[[[{"header":{"parameterUnit":"kt","parameterCategory":2,"dx":1,"dy":1,"la1":29.587661999999998,"la2":31.0,"lo1":-88.76705300000003,"lo2":-86.6583820000003,"nx":115,"ny":88,"refTime":"2022-10-27T00:00:00:Z","depth":0,"parameterNumber":1,"parameterNumberName":"U-component_of_WINDS"},"data":[-17.9905,-17.9772,-17.9468,-17.8861,-17.8254,-17.9316,-17.9999,-18.0523,-18.2146,-18.339,-18.4325,-18.4724,-18.4964,-18.6033,-18.6487,-18.7775,-18.9972,-19.1638,-19.2926,-19.4744,-19.5047,-19.6152,-19.73,-19.8145,-19.7559,-19.7289,-19.6882,-19.5889,-19.517,-19.4111,-19.3473,-19.3252,-19.3325,-19.2883,-19.2883,-19.2809,-19.2515,-19.2441,-19.2515,-19.241,-19.1353,-18.9394,-18.6264,-18.3705,-18.1083,-17.9008,-17.7042,-17.4976,-17.4348,-17.4041,-17.411,-17.3972,-17.3972,-17.3956,-17.2805,-17.1679,-17.1412,-17.0148,-16.8677,-16.7937,-16.7742,-16.7742,-16.7742,-16.7809,-16.8145,-16.8346,-17.029,-17.2569,-17.3641,-17.4735,-17.5484,-17.5231,-17.3008,-17.064,-16.8638,-16.5509,-16.2,-16.0001,-15.8878,-15.8214,-15.7545,-15.7545,-15.7545,-15.7545,-15.7545,-15.7545,-15.7545,-15.7545,-15.7545,-15.7545,-15.7545,-15.7545,-15.7545,-15.7545,-15.7545,-15.7545,-15.7545,-15.7545,-15.7545,-15.7545,-15.7545,-15.7545,-15.7545,-15.7545,-15.7545,-15.7545,-15.7066,-15.6707,-15.5989,-15.5032,-15.4134,-15.2915,-15.1532,-14.9619,-14.6506,-17.9905,-17.9551,-17.833,-17.833,-17.9468,-17.9696,-18.0606,-18.2034,-18.3627,-18.4488,-18.4921,-18.475,-18.3637,-18.4215,-18.5427,-18.6715,-18.8608,-19.1487,-19.4138,-19.588,-19.6637,-19.7544,-19.8292,-19.8769,-19.8286,-19.7725,-19.674,-19.5788,-19.4574,-19.3198,-19.2146,-19.1704,-19.082,-18.9862,-18.9789,-18.9862,-19.0747,-19.1041,-19.0474,-18.9896,-18.8362,-18.6876,-18.3938,-18.1806,-17.9953,-17.7872,-17.5838,-17.4819,-17.5652,-17.5498,-17.5359,-17.4804,-17.4526,-17.4479,-17.3163,-17.2047,-17.1685,-17.0368,-16.8592,-16.7742,-16.7742,-16.7742,-16.7742,-16.8011,-16.848,-16.9485,-17.1296,-17.2905,-17.3742,-17.4735,-17.5868,-17.573,-17.2703,-17.0118,-16.8415,-16.6202,-16.2364,-15.8745,-15.8214,-15.7813,-15.7545,-15.7545,-15.7545,-15.7545,-15.7545,-15.7545,-15.7545,-15.7545,-15.7545,-15.7545,-15.7545,-15.7545,-15.7545,-15.7545,-15.7545,-15.7545,-15.7545,-15.7545,-15.7545,-15.7545,-15.7545,-15.7545,-15.7545,-15.7545,-15.7545,-15.7545,-15.7186,-15.6168,-15.5211,-15.4254,-15.2926,-15.1282,-14.9964,-14.8295,-14.4596,-17.9435,-17.833,-17.6736,-17.704,-17.8482,-17.9468,-18.0758,-18.2413,-18.3997,-18.5679,-18.7225,-18.6391,-18.6109,-18.6942,-18.6639,-18.7775,-19.0426,-19.2396,-19.4744,-19.6865,-19.7834,-19.8629,-19.8883,-19.8952,-19.8666,-19.7861,-19.6627,-19.5024,-19.3127,-19.1882,-19.0894,-19.0231,-18.9936,-18.9789,-19.0599,-18.9862,-19.0157,-19.1483,-19.0083,-18.7448,-18.3904,-18.3103,-18.1176,-17.8651,-17.7186,-17.6158,-17.4753,-17.5012,-17.5706,-17.5914,-17.5914,-17.529,-17.5551,-17.5415,-17.4019,-17.2756,-17.1676,-17.0762,-16.8697,-16.7742,-16.7742,-16.7742,-16.7742,-16.7876,-16.8413,-17.0357,-17.2167,-17.347,-17.4304,-17.417,-17.5356,-17.4446,-17.1642,-16.8932,-16.6954,-16.47,-16.1209,-15.854,-15.7947,-15.7545,-15.7545,-15.7545,-15.7545,-15.7545,-15.7545,-15.7545,-15.7545,-15.7545,-15.7545,-15.7545,-15.7545,-15.7545,-15.7545,-15.7545,-15.7545,-15.7545,-15.7545,-15.7545,-15.7545,-15.7545,-15.7545,-15.7545,-15.7545,-15.7545,-15.7545,-15.7545,-15.6707,-15.545,-15.4433,-15.3584,-15.1759,-14.9701,-14.8565,-14.7354,-14.3265,-17.8665,-17.7343,-17.5674,-17.5901,-17.7571,-17.8785,-18.0599,-18.3013,-18.4584,-18.6718,-18.8552,-18.812,-18.8002,-18.8154,-18.7775,-18.8684,-19.1259,-19.2926,-19.535,-19.7016,-19.8604,-19.9089,-19.9144,-19.8832,-19.8281,-19.7375,-19.6288,-19.4801,-19.2535,-19.0879,-18.9715,-18.8757,-18.8536,-18.8757,-18.9641,-18.9789,-18.9494,-19.0326,-18.8498,-18.5231,-18.2417,-18.0826,-17.8856,-17.6554,-17.5179,-17.4584,-17.5156,-17.5498,-17.6053,-17.6607,-17.6399,-17.6677,-17.744,-17.6548,-17.5013,-17.3093,-17.2251,-17.0583,-16.8869,-16.7742,-16.7742,-16.7742,-16.7809,-16.7943,-16.8949,-17.096,-17.267,-17.3928,-17.4582,-17.4237,-17.3795,-17.2059,-17.022,-16.7641,-16.5253,-16.253,-15.9659,-15.854,-15.7679,-15.7545,-15.7545,-15.7545,-15.7545,-15.7545,-15.7545,-15.7545,-15.7545,-15.7545,-15.7545,-15.7545,-15.7545,-15.7545,-15.7545,-15.7545,-15.7545,-15.7545,-15.7545,-15.7545,-15.7545,-15.7545,-15.7545,-15.7545,-15.7545,-15.7545,-15.7545,-15.7545,-15.6946,-15.5331,-15.3871,-15.3083,-15.1378,-14.9133,-14.7891,-14.6593,-14.2413,-17.7526,-17.7191,-17.5674,-17.5826,-17.7343,-17.7647,-18.0281,-18.4556,-18.5971,-18.7125,-18.7642,-18.8637,-18.8533,-18.823,-18.8684,-18.9517,-19.1108,-19.3305,-19.5501,-19.7152,-19.8612,-19.9088,-19.8877,-19.8567,-19.7861,-19.7142,-19.6201,-19.4786,-19.2183,-19.0268,-18.8684,-18.7063,-18.7357,-18.8094,-18.8684,-18.8757,-18.8507,-18.8477,-18.6182,-18.3846,-18.1993,-17.9709,-17.7377,-17.5466,-17.4679,-17.4348,-17.529,-17.633,-17.7162,-17.8064,-17.855,-17.8619,-17.9951,-18.0412,-17.661,-17.4463,-17.2927,-17.0872,-16.8839,-16.7809,-16.7742,-16.7742,-16.7876,-16.8748,-16.9891,-17.1599,-17.2558,-17.3692,-17.3096,-17.2638,-17.2281,-17.1012,-16.8572,-16.5948,-16.3908,-16.1803,-15.9433,-15.814,-15.7545,-15.7545,-15.7545,-15.7545,-15.7545,-15.7545,-15.7545,-15.7545,-15.7545,-15.7545,-15.7545,-15.7545,-15.7545,-15.7545,-15.7545,-15.7545,-15.7545,-15.7545,-15.7545,-15.7545,-15.7545,-15.7545,-15.7545,-15.7545,-15.7545,-15.7545,-15.7545,-15.7545,-15.7245,-15.5305,-15.3799,-15.276,-15.0985,-14.8683,-14.7119,-14.5932,-14.2196,-17.5307,-17.4535,-17.4763,-17.408,-17.3542,-17.6101,-17.9482,-18.2991,-18.4963,-18.6266,-18.7211,-18.8774,-18.9214,-18.8608,-18.9214,-19.0199,-19.1184,-19.3668,-19.5591,-19.7191,-19.8523,-19.8694,-19.8517,-19.8113,-19.7417,-19.6551,-19.5585,-19.4707,-19.3299,-19.0872,-18.8905,-18.8242,-18.8242,-18.8831,-18.8905,-18.8338,-18.7498,-18.6143,-18.4422,-18.2489,-18.0318,-17.7953,-17.6026,-17.4703,-17.5156,-17.5236,-17.5914,-17.8134,-17.8966,-17.966,-18.0908,-18.1116,-18.186,-18.2481,-17.9578,-17.5644,-17.3823,-17.1118,-16.8742,-16.7876,-16.7809,-16.7943,-16.8614,-16.999,-17.1465,-17.2061,-17.2592,-17.2612,-17.1669,-17.0869,-17.0592,-16.9873,-16.6954,-16.4222,-16.2684,-16.1135,-15.9529,-15.7933,-15.7545,-15.7545,-15.7545,-15.7545,-15.7545,-15.7545,-15.7545,-15.7545,-15.7545,-15.7545,-15.7545,-15.7545,-15.7545,-15.7545,-15.7545,-15.7545,-15.7545,-15.7545,-15.7545,-15.7545,-15.7545,-15.7545,-15.7545,-15.7545,-15.7545,-15.7545,-15.7545,-15.7545,-15.7545,-15.5603,-15.3713,-15.2232,-15.0636,-14.8427,-14.6739,-14.5039,-14.1509,-17.3549,-17.2487,-17.317,-17.2411,-17.1342,-17.4887,-17.8479,-18.1444,-18.3196,-18.4497,-18.573,-18.7851,-18.8533,-18.8987,-18.9896,-19.1335,-19.2835,-19.4455,-19.5946,-19.7256,-19.8532,-19.854,-19.8198,-19.7613,-19.6778,-19.5947,-19.517,-19.4382,-19.3165,-19.2294,-19.0599,-18.9641,-18.9641,-18.9936,-18.9641,-18.8684,-18.7657,-18.6312,-18.4038,-18.1515,-17.8797,-17.6933,-17.5879,-17.5072,-17.5359,-17.6538,-17.7371,-17.9313,-18.0839,-18.1394,-18.2434,-18.3891,-18.3871,-18.3308,-18.2576,-17.8154,-17.4643,-17.1564,-16.9083,-16.8413,-16.848,-16.8815,-16.9821,-17.1866,-17.2594,-17.2896,-17.2653,-17.1538,-17.0367,-16.9288,-16.8643,-16.7381,-16.5015,-16.3046,-16.1689,-16.0204,-15.8828,-15.7545,-15.7545,-15.7545,-15.7545,-15.7545,-15.7545,-15.7545,-15.7545,-15.7545,-15.7545,-15.7545,-15.7545,-15.7545,-15.7545,-15.7545,-15.7545,-15.7545,-15.7545,-15.7545,-15.7545,-15.7545,-15.7545,-15.7545,-15.7545,-15.7545,-15.7545,-15.7545,-15.7545,-15.7545,-15.7545,-15.5873,-15.379,-15.2248,-15.046,-14.841,-14.6155,-14.3415,-14.0206,-17.2487,-17.2183,-17.0741,-17.0969,-17.2411,-17.4225,-17.6987,-18.0014,-18.1643,-18.2335,-18.2714,-18.6033,-18.7396,-18.7851,-19.0578,-19.2623,-19.4274,-19.5777,-19.7294,-19.8519,-19.8464,-19.8047,-19.7645,-19.7142,-19.6235,-19.5351,-19.4749,-19.394,-19.2051,-19.2073,-19.1262,-19.0231,-19.1041,-19.082,-19.0179,-18.9191,-18.838,-18.5974,-18.341,-18.0252,-17.7951,-17.6314,-17.5716,-17.5866,-17.6399,-17.7787,-17.9035,-18.0423,-18.2087,-18.3197,-18.3752,-18.5764,-18.6095,-18.4438,-18.3932,-18.1701,-17.7336,-17.3406,-17.029,-16.9284,-16.9351,-17.0424,-17.143,-17.1625,-17.226,-17.2909,-17.1805,-17.0401,-16.8979,-16.7872,-16.6612,-16.4954,-16.3326,-16.2118,-16.0697,-15.9324,-15.8007,-15.7545,-15.7545,-15.7545,-15.7545,-15.7545,-15.7545,-15.7545,-15.7545,-15.7545,-15.7545,-15.7545,-15.7545,-15.7545,-15.7545,-15.7545,-15.7545,-15.7545,-15.7545,-15.7545,-15.7545,-15.7545,-15.7545,-15.7545,-15.7545,-15.7545,-15.7545,-15.7545,-15.7545,-15.7485,-15.7231,-15.5992,-15.3998,-15.2068,-15.0278,-14.8417,-14.7122,-14.3737,-13.9172,-17.0741,-17.0741,-17.0128,-17.0279,-17.119,-17.3673,-17.6743,-17.97,-18.1403,-18.2094,-18.2776,-18.5503,-18.7018,-18.8002,-19.0426,-19.3002,-19.4653,-19.6062,-19.7615,-19.865,-19.8178,-19.7645,-19.696,-19.6235,-19.5559,-19.5059,-19.4532,-19.4131,-19.3031,-19.3178,-19.2662,-19.2294,-19.2883,-19.2073,-19.1032,-18.9702,-18.8638,-18.5179,-18.2574,-17.9306,-17.7266,-17.6131,-17.5797,-17.6501,-17.7717,-17.9243,-18.0284,-18.1533,-18.285,-18.4515,-18.5604,-18.6739,-18.7562,-18.6688,-18.5501,-18.2903,-17.9055,-17.5186,-17.1229,-16.9687,-17.0558,-17.2167,-17.3173,-17.343,-17.3336,-17.2507,-17.0773,-16.8955,-16.7554,-16.6722,-16.5751,-16.3582,-16.2317,-16.1549,-16.0253,-15.8733,-15.7545,-15.7545,-15.7545,-15.7545,-15.7545,-15.7545,-15.7545,-15.7545,-15.7545,-15.7545,-15.7545,-15.7545,-15.7545,-15.7545,-15.7545,-15.7545,-15.7545,-15.7545,-15.7545,-15.7545,-15.7545,-15.7545,-15.7545,-15.7545,-15.7545,-15.7545,-15.7545,-15.7545,-15.7545,-15.7485,-15.6977,-15.6021,-15.4127,-15.2253,-15.0167,-14.875,-14.7627,-14.3197,-13.7816,-16.99,-16.99,-16.99,-17.0203,-17.1017,-17.3574,-17.6261,-17.8845,-18.0506,-18.1591,-18.2638,-18.4897,-18.6563,-18.876,-19.1335,-19.3865,-19.5391,-19.6802,-19.7276,-19.8339,-19.7739,-19.7067,-19.6315,-19.544,-19.4918,-19.4556,-19.4329,-19.4041,-19.3988,-19.3841,-19.3915,-19.3988,-19.362,-19.3399,-19.2377,-19.0362,-18.8514,-18.4704,-18.1303,-17.9054,-17.7142,-17.6339,-17.6485,-17.7734,-17.9243,-18.0492,-18.1324,-18.2018,-18.3683,-18.5695,-18.6458,-18.7594,-18.8655,-18.8372,-18.68,-18.3786,-18.0939,-17.7263,-17.4044,-17.0759,-17.1162,-17.2905,-17.411,-17.3758,-17.3073,-17.1734,-16.9994,-16.8083,-16.6596,-16.5747,-16.5012,-16.2955,-16.1426,-16.0781,-15.9608,-15.808,-15.7545,-15.7545,-15.7545,-15.7545,-15.7545,-15.7545,-15.7545,-15.7545,-15.7545,-15.7545,-15.7545,-15.7545,-15.7545,-15.7545,-15.7545,-15.7545,-15.7545,-15.7545,-15.7545,-15.7545,-15.7545,-15.7545,-15.7545,-15.7545,-15.7545,-15.7545,-15.7545,-15.7545,-15.7545,-15.7545,-15.7156,-15.6513,-15.4464,-15.2334,-14.9761,-14.8053,-14.6582,-14.2724,-13.7499,-16.99,-16.99,-16.99,-17.0873,-17.2427,-17.4096,-17.5863,-17.7814,-17.923,-18.0557,-18.1956,-18.4139,-18.6487,-18.9366,-19.2881,-19.5088,-19.6537,-19.7766,-19.8214,-19.7557,-19.7032,-19.616,-19.5396,-19.4918,-19.4556,-19.4072,-19.3988,-19.3988,-19.3988,-19.3988,-19.3988,-19.3988,-19.3988,-19.3788,-19.3608,-19.0579,-18.8387,-18.6363,-18.1786,-18.0334,-17.9191,-17.8108,-17.8498,-17.9521,-18.0769,-18.1602,-18.2226,-18.285,-18.4377,-18.6458,-18.729,-18.8238,-18.9357,-18.8828,-18.7143,-18.4699,-18.2212,-18.025,-17.8402,-17.4648,-17.3575,-17.4514,-17.4916,-17.3808,-17.2025,-17.1016,-16.9994,-16.6893,-16.599,-16.5258,-16.3833,-16.2448,-16.1169,-16.0001,-15.8745,-15.7545,-15.7545,-15.7545,-15.7545,-15.7545,-15.7545,-15.7545,-15.7545,-15.7545,-15.7545,-15.7545,-15.7545,-15.7545,-15.7545,-15.7545,-15.7545,-15.7545,-15.7545,-15.7545,-15.7545,-15.7545,-15.7545,-15.7545,-15.7545,-15.7545,-15.7545,-15.7545,-15.7545,-15.7545,-15.7545,-15.7545,-15.7276,-15.6946,-15.5464,-15.3684,-15.0676,-14.7743,-14.5396,-14.2586,-13.8518,-16.99,-16.99,-16.99,-17.148,-17.4088,-17.5692,-17.7306,-17.8776,-17.942,-17.9987,-18.0655,-18.4518,-18.6942,-18.9109,-19.3271,-19.6404,-19.689,-19.746,-19.759,-19.7097,-19.6281,-19.5396,-19.4918,-19.4556,-19.4227,-19.4093,-19.3988,-19.3988,-19.3988,-19.3988,-19.3988,-19.3988,-19.3935,-19.3722,-19.3115,-19.1517,-18.9595,-18.7668,-18.484,-18.363,-18.0854,-18.1153,-18.2434,-18.07,-18.2642,-18.3405,-18.3267,-18.403,-18.5417,-18.6943,-18.8147,-18.8785,-18.89,-18.8361,-18.6736,-18.4722,-18.2636,-18.0749,-17.8469,-17.6458,-17.6726,-17.5721,-17.5619,-17.4051,-17.2222,-17.1241,-16.9419,-16.6354,-16.5747,-16.5258,-16.3833,-16.2448,-16.1169,-15.9477,-15.8214,-15.7545,-15.7545,-15.7545,-15.7545,-15.7545,-15.7545,-15.7545,-15.7545,-15.7545,-15.7545,-15.7545,-15.7545,-15.7545,-15.7545,-15.7545,-15.7545,-15.7545,-15.7545,-15.7545,-15.7545,-15.7545,-15.7545,-15.7545,-15.7545,-15.7545,-15.7545,-15.7545,-15.7545,-15.7545,-15.7545,-15.7545,-15.7141,-15.6405,-15.5624,-15.4723,-15.2355,-14.943,-14.6683,-14.2168,-13.8431,-16.99,-16.9976,-17.0569,-17.2368,-17.4896,-17.6397,-17.8006,-17.9496,-17.9608,-17.967,-17.9973,-18.4745,-18.8078,-19.076,-19.502,-19.68,-19.7102,-19.7365,-19.6981,-19.6399,-19.5541,-19.4918,-19.4507,-19.4175,-19.3988,-19.3988,-19.3988,-19.3988,-19.3988,-19.3988,-19.3988,-19.3882,-19.3722,-19.3376,-19.2539,-19.1289,-18.9394,-18.7449,-18.6139,-18.5488,-18.3217,-18.4585,-18.4446,-18.2989,-18.5417,-18.514,-18.4723,-18.5417,-18.6596,-18.7914,-18.8955,-18.8914,-18.879,-18.8597,-18.7041,-18.4728,-18.3537,-18.162,-17.9274,-17.9073,-17.8603,-17.716,-17.5803,-17.4303,-17.1623,-17.0564,-16.8606,-16.7013,-16.5747,-16.4765,-16.3458,-16.2194,-16.0911,-15.9274,-15.8214,-15.7813,-15.7545,-15.7545,-15.7545,-15.7545,-15.7545,-15.7545,-15.7545,-15.7545,-15.7545,-15.7545,-15.7545,-15.7545,-15.7545,-15.7545,-15.7545,-15.7545,-15.7545,-15.7545,-15.7545,-15.7545,-15.7545,-15.7545,-15.7545,-15.7545,-15.7545,-15.7545,-15.7545,-15.7545,-15.7545,-15.7545,-15.7141,-15.6133,-15.5332,-15.4763,-15.3,-15.0615,-14.636,-14.1582,-13.7741,-16.99,-17.0203,-17.1753,-17.3455,-17.514,-17.6601,-17.8208,-17.9594,-17.967,-17.967,-18.0276,-18.4366,-18.8972,-19.3347,-19.5554,-19.7154,-19.7557,-19.7388,-19.644,-19.5484,-19.4871,-19.4507,-19.4278,-19.4093,-19.3988,-19.3988,-19.3988,-19.3988,-19.3988,-19.3988,-19.3935,-19.3882,-19.3376,-19.3098,-19.2169,-19.0746,-18.8814,-18.8043,-18.7197,-18.6777,-18.6527,-18.6596,-18.618,-18.6874,-18.7082,-18.729,-18.7221,-18.729,-18.7984,-18.9093,-18.9533,-18.9397,-18.8592,-18.8296,-18.7242,-18.5372,-18.4235,-18.2894,-18.1151,-18.0615,-17.9408,-17.7251,-17.5453,-17.3942,-17.1465,-16.9649,-16.7664,-16.5869,-16.5258,-16.4083,-16.2448,-16.1298,-16.0131,-15.8878,-15.7947,-15.7545,-15.7545,-15.7545,-15.7545,-15.7545,-15.7545,-15.7545,-15.7545,-15.7545,-15.7545,-15.7545,-15.7545,-15.7545,-15.7545,-15.7545,-15.7545,-15.7545,-15.7545,-15.7545,-15.7545,-15.7545,-15.7545,-15.7545,-15.7545,-15.7545,-15.7545,-15.7545,-15.7545,-15.7545,-15.7545,-15.7545,-15.741,-15.6269,-15.5391,-15.4744,-15.3293,-15.1123,-14.7316,-14.2903,-13.8501,-17.0569,-17.1829,-17.3455,-17.5065,-17.6601,-17.8284,-17.9229,-17.967,-17.967,-17.967,-18.0352,-18.2473,-18.6712,-19.1655,-19.5573,-19.7209,-19.6906,-19.5971,-19.5351,-19.4918,-19.4507,-19.4175,-19.4041,-19.3988,-19.3988,-19.3988,-19.3988,-19.3988,-19.3988,-19.3935,-19.3648,-19.3265,-19.3041,-19.2451,-19.1486,-19.007,-18.9388,-18.9243,-18.9221,-18.9046,-18.9024,-18.9371,-18.8747,-18.8192,-18.8122,-18.84,-18.7637,-18.8192,-18.8885,-18.9672,-18.9922,-18.9591,-18.8629,-18.7857,-18.6791,-18.5669,-18.5107,-18.4034,-18.276,-18.1419,-18.0078,-17.8433,-17.6671,-17.4263,-17.1688,-16.9534,-16.7546,-16.4579,-16.4331,-16.2955,-16.0911,-16.0262,-15.9214,-15.848,-15.7545,-15.7545,-15.7545,-15.7545,-15.7545,-15.7545,-15.7545,-15.7545,-15.7545,-15.7545,-15.7545,-15.7545,-15.7545,-15.7545,-15.7545,-15.7545,-15.7545,-15.7545,-15.7545,-15.7545,-15.7545,-15.7545,-15.7545,-15.7545,-15.7545,-15.7545,-15.7545,-15.7545,-15.7545,-15.7545,-15.7545,-15.7545,-15.7545,-15.6464,-15.5254,-15.4469,-15.339,-15.1356,-14.8722,-14.4758,-14.0282,-17.0789,-17.2419,-17.4033,-17.565,-17.7184,-17.894,-17.967,-17.967,-17.967,-17.967,-18.0049,-18.2018,-18.5792,-19.0752,-19.5599,-19.7023,-19.6135,-19.5366,-19.4871,-19.4457,-19.4175,-19.3988,-19.3988,-19.3988,-19.3988,-19.3988,-19.3988,-19.3988,-19.3882,-19.3722,-19.3431,-19.2985,-19.2392,-19.1733,-19.111,-18.9099,-18.9079,-18.9438,-18.9311,-18.9116,-18.9648,-19.0203,-19.0273,-18.9371,-19.0065,-18.9995,-18.9648,-19.0203,-19.0481,-19.0503,-19.0235,-18.9724,-18.8665,-18.7551,-18.6477,-18.5589,-18.5442,-18.4704,-18.3363,-18.1821,-18.0347,-17.8768,-17.6462,-17.4263,-17.1511,-16.8955,-16.617,-16.3833,-16.3708,-16.2448,-16.0392,-15.9608,-15.8878,-15.808,-15.7679,-15.7545,-15.7545,-15.7545,-15.7545,-15.7545,-15.7545,-15.7545,-15.7545,-15.7545,-15.7545,-15.7545,-15.7545,-15.7545,-15.7545,-15.7545,-15.7545,-15.7545,-15.7545,-15.7545,-15.7545,-15.7545,-15.7545,-15.7545,-15.7545,-15.7545,-15.7545,-15.7545,-15.7545,-15.7545,-15.7545,-15.7545,-15.7604,-15.66,-15.5451,-15.4469,-15.3486,-15.1531,-14.9389,-14.5403,-14.0211,-17.1245,-17.2942,-17.4403,-17.6094,-17.7854,-17.9091,-17.967,-17.967,-17.967,-17.9746,-18.0352,-18.3263,-18.6458,-19.0261,-19.5045,-19.6208,-19.5564,-19.4844,-19.4507,-19.4124,-19.4041,-19.3988,-19.3988,-19.3988,-19.3988,-19.3988,-19.3988,-19.3935,-19.3722,-19.3265,-19.2985,-19.2509,-19.1672,-19.0854,-19.0265,-18.8027,-18.7215,-18.7852,-18.6394,-18.6666,-18.9024,-18.9857,-19.0689,-19.1244,-19.1591,-19.1452,-19.1313,-19.1313,-19.1591,-19.1567,-19.0691,-18.9626,-18.8565,-18.7448,-18.6439,-18.5696,-18.5241,-18.4771,-18.3363,-18.1821,-18.0347,-17.7968,-17.5763,-17.3317,-17.079,-16.8019,-16.5806,-16.3958,-16.3332,-16.2066,-15.9739,-15.9214,-15.8745,-15.808,-15.7545,-15.7545,-15.7545,-15.7545,-15.7545,-15.7545,-15.7545,-15.7545,-15.7545,-15.7545,-15.7545,-15.7545,-15.7545,-15.7545,-15.7545,-15.7545,-15.7545,-15.7545,-15.7545,-15.7545,-15.7545,-15.7545,-15.7545,-15.7545,-15.7545,-15.7545,-15.7545,-15.7545,-15.7545,-15.7545,-15.7545,-15.7545,-15.741,-15.6871,-15.5861,-15.4921,-15.4114,-15.2274,-14.97,-14.4908,-13.972,-17.3548,-17.6308,-17.6484,-17.8385,-18.0682,-18.0125,-17.967,-17.967,-17.9656,-18.0414,-18.1914,-18.4513,-18.7471,-19.0573,-19.3097,-19.4688,-19.4655,-19.438,-19.4124,-19.3988,-19.3988,-19.3988,-19.3988,-19.3988,-19.3988,-19.3988,-19.3935,-19.3722,-19.3321,-19.2985,-19.2334,-19.1745,-19.1372,-19.0463,-18.8961,-18.7209,-18.6962,-18.6644,-18.5801,-18.6687,-18.9093,-19.062,-19.1591,-19.1799,-19.1799,-19.1799,-19.1799,-19.1799,-19.1799,-19.133,-19.0045,-18.8865,-18.8263,-18.6791,-18.5696,-18.5549,-18.5442,-18.4637,-18.3363,-18.1821,-17.986,-17.7438,-17.5057,-17.2439,-16.9879,-16.8254,-16.6228,-16.3019,-16.2066,-16.104,-15.8878,-15.814,-15.7947,-15.7545,-15.7545,-15.7545,-15.7545,-15.7545,-15.7545,-15.7545,-15.7545,-15.7545,-15.7545,-15.7545,-15.7545,-15.7545,-15.7545,-15.7545,-15.7545,-15.7545,-15.7545,-15.7545,-15.7545,-15.7545,-15.7545,-15.7545,-15.7545,-15.7545,-15.7545,-15.7545,-15.7545,-15.7545,-15.7545,-15.7545,-15.7545,-15.7545,-15.7276,-15.6871,-15.5997,-15.5176,-15.4546,-15.2442,-14.8745,-14.4201,-13.9283,-17.4204,-17.7166,-17.7132,-17.9054,-18.1502,-18.0352,-17.967,-17.9642,-18.0171,-18.1239,-18.3134,-18.5468,-18.8382,-19.105,-19.2964,-19.3656,-19.4061,-19.4041,-19.3988,-19.3988,-19.3988,-19.3988,-19.3988,-19.3988,-19.3988,-19.3935,-19.3668,-19.3321,-19.3041,-19.2451,-19.1672,-19.0991,-19.0065,-18.9313,-18.817,-18.6513,-18.5732,-18.548,-18.4616,-18.4654,-18.6111,-18.8469,-19.0481,-19.1313,-19.1799,-19.1799,-19.1799,-19.1799,-19.1612,-19.0951,-18.9459,-18.8465,-18.7551,-18.6371,-18.5442,-18.5442,-18.5375,-18.4771,-18.3363,-18.1821,-17.986,-17.7372,-17.4302,-17.1753,-17.0044,-16.8019,-16.617,-16.4083,-16.2955,-16.0652,-15.7947,-15.7679,-15.7545,-15.7545,-15.7545,-15.7545,-15.7545,-15.7545,-15.7545,-15.7545,-15.7545,-15.7545,-15.7545,-15.7545,-15.7545,-15.7545,-15.7545,-15.7545,-15.7545,-15.7545,-15.7545,-15.7545,-15.7545,-15.7545,-15.7545,-15.7545,-15.7545,-15.7545,-15.7545,-15.7545,-15.7545,-15.7545,-15.7545,-15.7545,-15.7545,-15.7545,-15.7276,-15.66,-15.5997,-15.5313,-15.3837,-15.1664,-14.7798,-14.3606,-13.8954,-17.4426,-17.7349,-17.7281,-17.9084,-18.1477,-18.0355,-17.9809,-18.0052,-18.1353,-18.2648,-18.4417,-18.6812,-18.9666,-19.1872,-19.2966,-19.3463,-19.3954,-19.3988,-19.3988,-19.3988,-19.3988,-19.3988,-19.3988,-19.3988,-19.3882,-19.3722,-19.3376,-19.2928,-19.2407,-19.161,-19.1182,-19.0667,-18.9313,-18.8316,-18.7356,-18.5954,-18.4792,-18.4313,-18.3536,-18.3633,-18.4793,-18.6735,-18.8885,-19.1521,-19.1799,-19.1799,-19.1799,-19.1799,-19.133,-19.0376,-18.9163,-18.7959,-18.6895,-18.591,-18.5549,-18.5308,-18.5107,-18.4101,-18.2693,-18.1352,-17.9735,-17.7106,-17.3843,-17.1353,-16.9649,-16.7609,-16.5869,-16.4641,-16.2828,-16.0652,-15.7947,-15.7545,-15.7545,-15.7545,-15.7545,-15.7545,-15.7545,-15.7545,-15.7545,-15.7545,-15.7545,-15.7545,-15.7545,-15.7545,-15.7545,-15.7545,-15.7545,-15.7545,-15.7545,-15.7545,-15.7545,-15.7545,-15.7545,-15.7545,-15.7545,-15.7545,-15.7545,-15.7545,-15.7545,-15.7545,-15.7545,-15.7545,-15.7545,-15.7545,-15.7545,-15.7276,-15.6871,-15.6193,-15.5451,-15.4763,-15.2827,-15.082,-14.6322,-14.1729,-13.736,-17.5507,-17.8504,-17.8031,-17.911,-18.0955,-18.0496,-18.0392,-18.1216,-18.3414,-18.5048,-18.6917,-18.9481,-19.1236,-19.2841,-19.3732,-19.4061,-19.4041,-19.3988,-19.3988,-19.3988,-19.3988,-19.3988,-19.3935,-19.3882,-19.3722,-19.321,-19.2985,-19.2334,-19.1683,-19.1182,-19.0869,-19.0209,-18.8963,-18.7876,-18.6668,-18.531,-18.4134,-18.3415,-18.3028,-18.3752,-18.5903,-18.6874,-18.8816,-19.1105,-19.1729,-19.1799,-19.1799,-19.1706,-19.133,-19.0376,-18.9232,-18.7551,-18.6228,-18.5442,-18.5442,-18.5308,-18.4168,-18.2788,-18.1208,-17.9697,-17.7172,-17.2701,-17.1353,-16.9994,-16.7728,-16.6354,-16.5258,-16.4083,-16.2702,-16.0652,-15.808,-15.7545,-15.7545,-15.7545,-15.7545,-15.7545,-15.7545,-15.7545,-15.7545,-15.7545,-15.7545,-15.7545,-15.7545,-15.7545,-15.7545,-15.7545,-15.7545,-15.7545,-15.7545,-15.7545,-15.7545,-15.7545,-15.7545,-15.7545,-15.7545,-15.7545,-15.7545,-15.7545,-15.7545,-15.7545,-15.7545,-15.7545,-15.7545,-15.741,-15.7141,-15.6871,-15.6329,-15.5783,-15.496,-15.4071,-15.2069,-14.8886,-14.4682,-13.9954,-13.6067,-17.604,-17.8187,-17.8039,-17.9419,-18.1556,-18.0721,-18.0898,-18.2332,-18.4829,-18.6768,-18.8365,-19.0682,-19.2526,-19.3786,-19.4061,-19.4146,-19.3988,-19.3988,-19.3988,-19.3988,-19.3988,-19.3988,-19.3935,-19.3668,-19.3321,-19.2985,-19.2334,-19.1733,-19.1182,-19.0804,-19.0548,-19.0219,-18.8243,-18.7053,-18.6357,-18.4485,-18.3432,-18.28,-18.3475,-18.4515,-18.618,-18.7498,-18.944,-19.0342,-19.1383,-19.1799,-19.1706,-19.133,-19.0403,-18.9429,-18.8263,-18.6999,-18.5696,-18.4704,-18.4302,-18.4034,-18.2894,-18.1036,-17.8983,-17.7531,-17.557,-17.1707,-17.0336,-16.8839,-16.7664,-16.6233,-16.5195,-16.3833,-16.2321,-16.0652,-15.808,-15.7545,-15.7545,-15.7545,-15.7545,-15.7545,-15.7545,-15.7545,-15.7545,-15.7545,-15.7545,-15.7545,-15.7545,-15.7545,-15.7545,-15.7545,-15.7545,-15.7545,-15.7545,-15.7545,-15.7545,-15.7545,-15.7545,-15.7545,-15.7545,-15.7545,-15.7545,-15.7545,-15.7545,-15.7545,-15.7276,-15.7276,-15.741,-15.7141,-15.6736,-15.6464,-15.592,-15.5235,-15.4546,-15.3095,-15.0683,-14.7057,-14.3093,-13.8426,-13.4436,-17.6169,-17.7605,-17.7562,-17.9243,-18.1585,-18.094,-18.1359,-18.3297,-18.6271,-18.8134,-18.9407,-19.1778,-19.3348,-19.4204,-19.3629,-19.3546,-19.3399,-19.2883,-19.3252,-19.3399,-19.3767,-19.3935,-19.3668,-19.3321,-19.2928,-19.2334,-19.1559,-19.1055,-19.0869,-19.0548,-19.0286,-18.9943,-18.795,-18.6364,-18.6121,-18.4148,-18.2712,-18.2989,-18.4238,-18.514,-18.6111,-18.8122,-18.9648,-19.0342,-19.1244,-19.1706,-19.1424,-19.076,-18.9626,-18.8364,-18.731,-18.6333,-18.5388,-18.4101,-18.3217,-18.2428,-18.1051,-17.8569,-17.6146,-17.5071,-17.3688,-17.0985,-16.9741,-16.8755,-16.8092,-16.6486,-16.5078,-16.3332,-16.2066,-16.0131,-15.808,-15.7545,-15.7545,-15.7545,-15.7545,-15.7545,-15.7545,-15.7545,-15.7545,-15.7545,-15.7545,-15.7545,-15.7545,-15.7545,-15.7545,-15.7545,-15.7545,-15.7545,-15.7545,-15.7545,-15.7545,-15.7545,-15.7545,-15.7545,-15.7545,-15.7545,-15.7545,-15.7545,-15.7545,-15.7545,-15.6871,-15.66,-15.6269,-15.6133,-15.6133,-15.5783,-15.5235,-15.4546,-15.3316,-15.1569,-14.9626,-14.5756,-14.1661,-13.693,-13.2772,-17.551,-17.6958,-17.6501,-17.7657,-17.988,-18.0637,-18.2207,-18.4558,-18.7952,-18.9616,-19.0109,-19.2806,-19.354,-19.3967,-19.2367,-19.1925,-19.1852,-19.0747,-19.0968,-19.2146,-19.3125,-19.3648,-19.3192,-19.2985,-19.2275,-19.1559,-19.1246,-19.0804,-19.0548,-19.0421,-19.0286,-18.9598,-18.7653,-18.6591,-18.5724,-18.3964,-18.2819,-18.2989,-18.4238,-18.5556,-18.6943,-18.8469,-19.0134,-19.1036,-19.166,-19.1147,-19.0691,-19.0182,-18.9232,-18.7139,-18.6228,-18.5589,-18.5174,-18.4034,-18.2521,-18.0728,-17.806,-17.5752,-17.3917,-17.2377,-17.092,-16.9445,-16.9695,-16.9368,-16.6797,-16.5826,-16.4578,-16.2128,-16.0652,-15.9406,-15.7947,-15.7545,-15.7545,-15.7545,-15.7545,-15.7545,-15.7545,-15.7545,-15.7545,-15.7545,-15.7545,-15.7545,-15.7545,-15.7545,-15.7545,-15.7545,-15.7545,-15.7545,-15.7545,-15.7545,-15.7545,-15.7545,-15.7545,-15.7545,-15.7545,-15.7545,-15.7545,-15.7545,-15.7545,-15.7141,-15.6464,-15.5587,-15.5313,-15.5313,-15.5587,-15.5451,-15.4822,-15.3456,-15.1936,-15.04,-14.8565,-14.4567,-14.039,-13.5988,-13.2205,-17.639,-17.7765,-17.7599,-17.9126,-18.1673,-18.2282,-18.343,-18.5298,-18.7806,-18.873,-18.884,-19.0687,-19.1372,-19.1115,-19.0526,-19.0231,-19.0157,-18.9494,-19.0083,-19.1557,-19.2241,-19.2657,-19.2838,-19.2169,-19.161,-19.1055,-19.0804,-19.0482,-19.0286,-19.0286,-18.9874,-18.8892,-18.7281,-18.6121,-18.5391,-18.3691,-18.2712,-18.2989,-18.4238,-18.5764,-18.7221,-18.8747,-19.0273,-19.1383,-19.0897,-19.05,-19.0142,-18.9033,-18.7721,-18.6371,-18.5696,-18.4943,-18.3802,-18.1696,-17.9493,-17.7623,-17.4954,-17.2489,-17.0819,-16.9972,-16.8839,-16.7499,-16.7337,-16.6617,-16.5139,-16.4519,-16.3505,-16.0972,-16.0001,-15.901,-15.7947,-15.7545,-15.7545,-15.7545,-15.7545,-15.7545,-15.7545,-15.7545,-15.7545,-15.7545,-15.7545,-15.7545,-15.7545,-15.7545,-15.7545,-15.7545,-15.7545,-15.7545,-15.7545,-15.7545,-15.7545,-15.7545,-15.7545,-15.7545,-15.7545,-15.7545,-15.7545,-15.7545,-15.741,-15.6736,-15.5861,-15.4763,-15.5039,-15.5451,-15.5451,-15.5176,-15.4546,-15.3573,-15.1622,-14.9485,-14.7277,-14.4087,-13.9828,-13.5673,-13.2133,-17.803,-17.907,-17.907,-18.0852,-18.3303,-18.344,-18.4127,-18.5551,-18.7119,-18.7653,-18.7585,-18.8742,-18.95,-18.9126,-18.8831,-18.8536,-18.8389,-18.8021,-18.8905,-19.0621,-19.0337,-19.0695,-19.1918,-19.1453,-19.0991,-19.0869,-19.0554,-19.0151,-18.9806,-18.9667,-18.9106,-18.7876,-18.6513,-18.5472,-18.4638,-18.3432,-18.28,-18.292,-18.4238,-18.5625,-18.6735,-18.8053,-18.944,-19.0481,-18.9233,-18.8973,-18.9453,-18.7617,-18.5937,-18.4946,-18.4181,-18.2937,-18.1831,-17.883,-17.6134,-17.4331,-17.199,-16.9764,-16.8318,-16.7846,-16.6998,-16.5549,-16.6243,-16.5386,-16.3522,-16.3394,-16.2308,-16.0262,-15.9214,-15.8613,-15.7813,-15.7545,-15.7545,-15.7545,-15.7545,-15.7545,-15.7545,-15.7545,-15.7545,-15.7545,-15.7545,-15.7545,-15.7545,-15.7545,-15.7545,-15.7545,-15.7545,-15.7545,-15.7545,-15.7545,-15.7545,-15.7545,-15.7545,-15.7545,-15.7545,-15.7545,-15.7545,-15.7545,-15.7276,-15.66,-15.5724,-15.4428,-15.4704,-15.5176,-15.4487,-15.4487,-15.413,-15.3712,-15.1523,-14.9366,-14.6631,-14.3058,-13.8895,-13.4604,-13.0936,-18.0704,-18.0852,-18.0852,-18.1818,-18.3335,-18.3236,-18.392,-18.5341,-18.6644,-18.7069,-18.7266,-18.8173,-18.8831,-18.8684,-18.7431,-18.6915,-18.6644,-18.5612,-18.6445,-18.7878,-18.7211,-18.7753,-19.0575,-19.0809,-19.0652,-19.0482,-19.0354,-18.9667,-18.8749,-18.8677,-18.7802,-18.6591,-18.5472,-18.4722,-18.4303,-18.3345,-18.2712,-18.285,-18.4168,-18.4931,-18.5348,-18.6666,-18.7498,-18.7615,-18.6739,-18.6727,-18.7459,-18.585,-18.4214,-18.3162,-18.0565,-17.9383,-17.9403,-17.6152,-17.2883,-17.101,-16.9556,-16.7792,-16.6475,-16.6233,-16.5549,-16.4362,-16.5814,-16.6201,-16.2651,-16.2633,-16.208,-15.9659,-15.848,-15.7813,-15.7679,-15.7545,-15.7545,-15.7545,-15.7545,-15.7545,-15.7545,-15.7545,-15.7545,-15.7545,-15.7545,-15.7545,-15.7545,-15.7545,-15.7545,-15.7545,-15.7545,-15.7545,-15.7545,-15.7545,-15.7545,-15.7545,-15.7545,-15.7545,-15.7545,-15.7545,-15.7545,-15.7545,-15.741,-15.6871,-15.6193,-15.4566,-15.4013,-15.3654,-15.3293,-15.3573,-15.3573,-15.3433,-15.2069,-14.9419,-14.5926,-14.1789,-13.7576,-13.298,-12.9391,-18.0555,-18.2263,-18.1372,-18.1882,-18.3162,-18.3149,-18.3296,-18.3686,-18.4975,-18.5519,-18.5445,-18.5934,-18.6105,-18.5958,-18.5516,-18.5221,-18.5097,-18.4275,-18.4714,-18.5945,-18.5202,-18.6518,-18.9122,-18.9564,-18.9717,-19.0204,-19.0286,-18.9595,-18.8461,-18.8243,-18.7352,-18.5634,-18.4888,-18.4303,-18.3432,-18.2908,-18.2712,-18.2781,-18.3267,-18.4099,-18.5001,-18.5625,-18.6046,-18.6117,-18.4961,-18.5029,-18.5642,-18.2736,-18.1234,-18.1247,-17.8795,-17.5661,-17.3177,-17.1531,-16.9673,-16.8071,-16.709,-16.6533,-16.599,-16.5621,-16.518,-16.4057,-16.4575,-16.3709,-16.1402,-16.074,-16.0478,-15.8673,-15.7947,-15.7545,-15.7545,-15.7545,-15.7545,-15.7545,-15.7545,-15.7545,-15.7545,-15.7545,-15.7545,-15.7545,-15.7545,-15.7545,-15.7545,-15.7545,-15.7545,-15.7545,-15.7545,-15.7545,-15.7545,-15.7545,-15.7545,-15.7545,-15.7545,-15.7545,-15.7545,-15.7545,-15.7545,-15.7545,-15.7545,-15.7141,-15.6329,-15.4566,-15.3456,-15.3235,-15.3293,-15.3852,-15.3362,-15.3142,-15.1861,-14.947,-14.6492,-14.204,-13.728,-13.2373,-12.896,-18.0852,-18.3038,-18.1585,-18.1722,-18.2956,-18.2926,-18.2993,-18.318,-18.4043,-18.4462,-18.4313,-18.4263,-18.4263,-18.4263,-18.4263,-18.4162,-18.3958,-18.3217,-18.3286,-18.4007,-18.3731,-18.4828,-18.6834,-18.7082,-18.764,-18.8692,-18.9275,-18.8883,-18.7952,-18.7656,-18.6506,-18.4555,-18.4049,-18.3605,-18.2819,-18.2712,-18.2712,-18.2712,-18.2445,-18.2681,-18.3718,-18.3584,-18.3263,-18.316,-18.2302,-18.216,-18.2836,-18.0293,-17.8932,-17.8674,-17.7144,-17.3774,-16.9097,-16.7178,-16.5926,-16.473,-16.4488,-16.4488,-16.4488,-16.4425,-16.3675,-16.2192,-16.2271,-16.1097,-15.8842,-15.8732,-15.8598,-15.7947,-15.7545,-15.7545,-15.7545,-15.7545,-15.7545,-15.7545,-15.7545,-15.7545,-15.7545,-15.7545,-15.7545,-15.7545,-15.7545,-15.7545,-15.7545,-15.7545,-15.7545,-15.7545,-15.7545,-15.7545,-15.7545,-15.7545,-15.7545,-15.7545,-15.7545,-15.7545,-15.7545,-15.7545,-15.7545,-15.7545,-15.7604,-15.7335,-15.5861,-15.4428,-15.3735,-15.3514,-15.3852,-15.3874,-15.3267,-15.2187,-15.062,-14.8491,-14.5892,-14.1918,-13.7268,-13.3354,-12.9588,-18.1966,-18.3112,-18.1413,-18.1548,-18.2897,-18.253,-18.3228,-18.4166,-18.4339,-18.4313,-18.4313,-18.4263,-18.4263,-18.4263,-18.4213,-18.3907,-18.3271,-18.2317,-18.2098,-18.2478,-18.1591,-18.2283,-18.4253,-18.4029,-18.4502,-18.5953,-18.7181,-18.7312,-18.6462,-18.6364,-18.5239,-18.3258,-18.2908,-18.2889,-18.2712,-18.2712,-18.2712,-18.2375,-18.1744,-18.1356,-18.1103,-18.0494,-17.9542,-17.8328,-17.8251,-17.8616,-17.8944,-17.8737,-17.7377,-17.494,-17.5305,-17.3073,-16.7144,-16.3777,-16.1963,-16.1907,-16.1907,-16.1844,-16.1907,-16.2033,-16.1052,-15.9091,-15.9168,-15.8807,-15.6736,-15.7061,-15.7682,-15.7393,-15.7485,-15.7545,-15.7545,-15.7485,-15.7425,-15.7545,-15.7545,-15.7545,-15.7545,-15.7545,-15.7545,-15.7545,-15.7545,-15.7545,-15.7545,-15.7545,-15.7545,-15.7545,-15.7545,-15.7545,-15.7545,-15.7545,-15.7545,-15.7545,-15.7545,-15.7545,-15.7545,-15.7545,-15.7545,-15.7545,-15.7545,-15.7006,-15.5587,-15.3537,-15.2698,-15.2653,-15.2989,-15.2048,-15.1363,-15.1255,-14.9635,-14.7301,-14.5036,-14.2059,-13.765,-13.3645,-13.0195,-18.2921,-18.2896,-18.1369,-18.137,-18.2456,-18.2389,-18.2494,-18.2938,-18.3871,-18.4263,-18.4263,-18.4263,-18.4263,-18.4213,-18.398,-18.3217,-18.2201,-18.1787,-18.1485,-18.1311,-18.0945,-18.1749,-18.3178,-18.3266,-18.3931,-18.5303,-18.6026,-18.5662,-18.4959,-18.514,-18.4317,-18.2819,-18.2712,-18.2712,-18.2712,-18.2712,-18.2286,-18.1744,-18.1379,-18.0825,-18.01,-17.972,-17.9065,-17.8018,-17.7369,-17.663,-17.5788,-17.6726,-17.5803,-17.2899,-17.185,-16.9047,-16.4283,-16.1514,-16.027,-16.0396,-16.1152,-16.1718,-16.1718,-16.1718,-16.0613,-15.7982,-15.7941,-15.7199,-15.4702,-15.555,-15.6219,-15.6481,-15.7006,-15.7545,-15.7425,-15.6827,-15.6707,-15.7425,-15.7545,-15.7545,-15.7545,-15.7545,-15.7545,-15.7545,-15.7545,-15.7545,-15.7545,-15.7545,-15.7545,-15.7545,-15.7545,-15.7545,-15.7545,-15.7545,-15.7545,-15.7545,-15.7545,-15.7545,-15.7545,-15.7545,-15.7545,-15.7425,-15.7231,-15.6481,-15.5117,-15.264,-15.1281,-15.149,-15.0968,-15.0029,-14.9567,-14.9795,-14.8388,-14.6146,-14.4277,-14.222,-13.7737,-13.3805,-13.0802,-18.2136,-18.1251,-17.9963,-18.0211,-18.1408,-18.1977,-18.2397,-18.2913,-18.3895,-18.4263,-18.4263,-18.4263,-18.4162,-18.3958,-18.3162,-18.2375,-18.1606,-18.1301,-18.1125,-18.0818,-18.0754,-18.1259,-18.2198,-18.227,-18.2646,-18.3115,-18.3624,-18.3521,-18.2703,-18.2884,-18.2566,-18.2004,-18.181,-18.2157,-18.2573,-18.2712,-18.2196,-18.1287,-18.0732,-18.01,-17.9144,-17.8659,-17.8167,-17.7538,-17.6831,-17.6056,-17.5184,-17.4838,-17.3437,-17.0224,-16.7901,-16.483,-16.0973,-15.9404,-15.8822,-15.8948,-15.9704,-16.0207,-16.0207,-16.0207,-15.9058,-15.6572,-15.6216,-15.5164,-15.3521,-15.3697,-15.4493,-15.5032,-15.5809,-15.6168,-15.6049,-15.551,-15.551,-15.6647,-15.6886,-15.7066,-15.7425,-15.7545,-15.7545,-15.7545,-15.7545,-15.7545,-15.7545,-15.7545,-15.7545,-15.7545,-15.7545,-15.7545,-15.7545,-15.7545,-15.7545,-15.7545,-15.7545,-15.7545,-15.7545,-15.7545,-15.7365,-15.6992,-15.6425,-15.5633,-15.4575,-15.2178,-15.0933,-15.1065,-15.0339,-14.9381,-14.9092,-14.9256,-14.7937,-14.5935,-14.5382,-14.2675,-13.7421,-13.5534,-13.235,-17.9761,-17.8243,-17.7725,-17.8455,-17.9958,-18.1389,-18.2716,-18.36,-18.4116,-18.4189,-18.4042,-18.4189,-18.3833,-18.3125,-18.2128,-18.1606,-18.1423,-18.0999,-18.0818,-18.0754,-18.0754,-18.0754,-18.069,-18.069,-18.0031,-17.9369,-18.0516,-18.0794,-18.0041,-17.9927,-18.0036,-18.0302,-18.0284,-18.1047,-18.2226,-18.2346,-18.2037,-18.1011,-18.0074,-17.9048,-17.797,-17.7034,-17.6627,-17.6627,-17.6423,-17.6186,-17.5815,-17.3266,-17.0183,-16.6924,-16.4298,-16.115,-15.7984,-15.7626,-15.7636,-15.7447,-15.7626,-15.7626,-15.7689,-15.7636,-15.6457,-15.4121,-15.3759,-15.2957,-15.1648,-15.186,-15.2519,-15.3536,-15.3655,-15.3655,-15.3775,-15.3715,-15.4194,-15.545,-15.563,-15.6109,-15.7126,-15.7126,-15.7425,-15.7425,-15.7485,-15.7485,-15.7425,-15.7545,-15.7365,-15.7365,-15.7485,-15.7545,-15.7545,-15.7545,-15.7545,-15.7545,-15.7545,-15.7485,-15.7365,-15.6827,-15.6468,-15.5782,-15.4919,-15.4607,-15.3388,-15.2337,-15.1403,-15.0537,-14.9665,-14.9003,-14.8965,-14.8073,-14.6776,-14.5923,-14.5167,-14.3135,-13.8054,-13.6861,-13.3825,-17.8001,-17.6686,-17.7207,-17.8287,-17.9645,-18.1292,-18.1463,-18.1095,-18.3232,-18.36,-18.2716,-18.3414,-18.2522,-18.0744,-18.1278,-18.1301,-18.0999,-18.0818,-18.0754,-18.0754,-18.0754,-18.0294,-17.9419,-17.9351,-17.873,-17.7808,-17.8017,-17.8337,-17.8335,-17.8542,-17.8547,-17.8706,-17.8688,-17.9452,-18.0839,-18.0268,-17.9934,-17.9869,-17.9048,-17.797,-17.6967,-17.6627,-17.6525,-17.6423,-17.532,-17.4157,-17.3161,-17.1038,-16.7921,-16.3817,-16.3769,-16.1929,-15.7868,-15.8508,-15.8571,-15.7626,-15.7501,-15.7501,-15.7385,-15.6505,-15.526,-15.3696,-15.2595,-15.1596,-15.0688,-15.1142,-15.18,-15.216,-15.1382,-15.1382,-15.204,-15.2219,-15.2878,-15.4074,-15.4314,-15.4373,-15.4912,-15.575,-15.6228,-15.6348,-15.6886,-15.7305,-15.6468,-15.6228,-15.6288,-15.6408,-15.7006,-15.7545,-15.7545,-15.7545,-15.7545,-15.7545,-15.7545,-15.6827,-15.5151,-15.5032,-15.4468,-15.3726,-15.3137,-15.2426,-15.1387,-15.0537,-14.9801,-14.9171,-14.8575,-14.7995,-14.722,-14.6638,-14.5708,-14.4486,-14.325,-14.1541,-13.8078,-13.7355,-13.4492,-17.6866,-17.6425,-17.6451,-17.7207,-17.859,-18.0211,-18.0358,-17.9573,-18.1264,-18.1458,-18.0643,-18.0234,-17.886,-17.6954,-17.8218,-17.8753,-17.8422,-17.9068,-17.9286,-17.9215,-17.9286,-17.8871,-17.8167,-17.8095,-17.7446,-17.6473,-17.6397,-17.6194,-17.6124,-17.6115,-17.6538,-17.7093,-17.7232,-17.7752,-17.8786,-17.8321,-17.8008,-17.8095,-17.7484,-17.6424,-17.495,-17.4782,-17.4142,-17.2927,-17.1929,-17.036,-16.8235,-16.5839,-16.3376,-16.0963,-16.0179,-15.8587,-15.5864,-15.6556,-15.6682,-15.5927,-15.5801,-15.5801,-15.5801,-15.4583,-15.3595,-15.2897,-15.1556,-15.0495,-14.9834,-15.0424,-15.0903,-15.0783,-15.0185,-15.0005,-15.0783,-15.0903,-15.1441,-15.2578,-15.2937,-15.3177,-15.3655,-15.4493,-15.4912,-15.4972,-15.557,-15.569,-15.5091,-15.4912,-15.5151,-15.575,-15.6288,-15.7006,-15.7485,-15.7545,-15.7425,-15.6946,-15.6348,-15.5331,-15.4254,-15.3775,-15.3345,-15.2474,-15.177,-15.0827,-15.0194,-14.922,-14.8702,-14.7407,-14.7291,-14.6749,-14.5666,-14.5242,-14.4602,-14.3788,-14.2436,-13.9915,-13.7184,-13.6083,-13.4384,-17.6277,-17.6951,-17.5529,-17.5611,-17.6969,-17.8516,-17.9032,-17.8836,-17.8777,-17.8467,-17.7529,-17.5695,-17.4317,-17.3385,-17.4321,-17.4957,-17.4956,-17.6086,-17.6656,-17.6656,-17.6794,-17.6791,-17.6646,-17.6859,-17.632,-17.5299,-17.514,-17.4715,-17.3778,-17.3763,-17.4388,-17.5567,-17.5706,-17.5968,-17.6419,-17.6288,-17.6131,-17.5798,-17.5332,-17.41,-17.1999,-17.1832,-17.0395,-16.7473,-16.7267,-16.5645,-16.2756,-15.9611,-15.7986,-15.762,-15.5114,-15.3409,-15.3409,-15.3409,-15.3409,-15.3409,-15.3409,-15.3346,-15.3296,-15.2208,-15.1439,-15.1181,-14.9971,-14.9284,-14.9415,-14.9407,-14.9347,-14.9287,-14.9287,-14.9228,-14.9527,-14.9527,-15.0065,-15.1322,-15.1501,-15.198,-15.2997,-15.3476,-15.3596,-15.3536,-15.3895,-15.3715,-15.3655,-15.3536,-15.3955,-15.4792,-15.5211,-15.5809,-15.6587,-15.6827,-15.6468,-15.5391,-15.4433,-15.3596,-15.3046,-15.3225,-15.2247,-15.1222,-15.0983,-15.0236,-14.8932,-14.8328,-14.8033,-14.6871,-14.652,-14.5773,-14.51,-14.437,-14.3381,-14.2043,-14.0518,-13.8496,-13.4666,-13.3396,-13.2202,-17.5478,-17.5502,-17.4874,-17.488,-17.5275,-17.6896,-17.6822,-17.589,-17.7772,-17.6197,-17.2535,-17.2492,-17.1948,-17.1124,-17.2544,-17.311,-17.3181,-17.3464,-17.3606,-17.3748,-17.4883,-17.4932,-17.4169,-17.5209,-17.514,-17.414,-17.3974,-17.3807,-17.3625,-17.3625,-17.3833,-17.411,-17.411,-17.4446,-17.4795,-17.4077,-17.3818,-17.4038,-17.1208,-16.9279,-16.8748,-16.8748,-16.7858,-16.5951,-16.4544,-16.2413,-15.9374,-15.7181,-15.56,-15.4525,-15.3697,-15.3346,-15.3346,-15.3346,-15.3346,-15.3346,-15.3346,-15.3346,-15.3233,-15.1223,-14.9585,-14.8693,-14.7413,-14.7149,-14.7911,-14.7253,-14.6655,-14.6715,-14.6774,-14.7193,-14.8031,-14.821,-14.8749,-14.9946,-15.0125,-15.0424,-15.0664,-15.1561,-15.216,-15.2279,-15.3117,-15.3237,-15.2459,-15.216,-15.2279,-15.2758,-15.3536,-15.4194,-15.4553,-15.4613,-15.4074,-15.2997,-15.2399,-15.1731,-15.0139,-15.0079,-14.9441,-14.797,-14.7852,-14.7806,-14.7309,-14.6666,-14.6271,-14.63,-14.5379,-14.4109,-14.2857,-14.2334,-14.1054,-13.896,-13.832,-13.7254,-13.4395,-13.3002,-13.0585,-17.5166,-17.4726,-17.4585,-17.4538,-17.4612,-17.5496,-17.5278,-17.4273,-17.4371,-17.2244,-16.8953,-16.9061,-16.8638,-16.7748,-16.9223,-16.9925,-16.9995,-17.0628,-17.0909,-17.0979,-17.1822,-17.1855,-17.1293,-17.1981,-17.1995,-17.1544,-17.2168,-17.2515,-17.2584,-17.3278,-17.3625,-17.3625,-17.3625,-17.3289,-17.2659,-17.173,-17.1113,-17.0901,-16.6632,-16.4342,-16.3985,-16.293,-16.1121,-15.8589,-15.6807,-15.4696,-15.2218,-14.9991,-14.8751,-14.8625,-14.7995,-14.7995,-14.8562,-14.8625,-14.8876,-14.9506,-14.9506,-14.9286,-14.8732,-14.7435,-14.6387,-14.5841,-14.5236,-14.5219,-14.5937,-14.5279,-14.5159,-14.5757,-14.5817,-14.6356,-14.7612,-14.7732,-14.827,-14.9587,-14.9706,-14.9706,-14.9826,-15.0424,-15.0783,-15.0843,-15.1441,-15.1621,-15.0843,-15.0783,-15.0783,-15.0903,-15.198,-15.3117,-15.3715,-15.2758,-15.1621,-15.0963,-15.0783,-15.0168,-14.9502,-14.9195,-14.8809,-14.8162,-14.8033,-14.7666,-14.6686,-14.6107,-14.5552,-14.4894,-14.3657,-14.2508,-14.1985,-14.0822,-13.9309,-13.7041,-13.675,-13.5761,-13.4285,-13.2309,-12.9322,-17.4292,-17.3948,-17.417,-17.4243,-17.4243,-17.4464,-17.4201,-17.337,-17.0101,-16.7837,-16.6585,-16.6066,-16.5365,-16.4538,-16.5856,-16.648,-16.6549,-16.7729,-16.8283,-16.8283,-16.8492,-16.863,-16.863,-16.8838,-16.8908,-16.8977,-17.0295,-17.0919,-17.1058,-17.2237,-17.2931,-17.2931,-17.2931,-17.2012,-17.0273,-16.9223,-16.7856,-16.6133,-16.2001,-15.9456,-15.8523,-15.6464,-15.3551,-14.9983,-14.8277,-14.6483,-14.4513,-14.2267,-14.1511,-14.2644,-14.1574,-14.1385,-14.2393,-14.2414,-14.2665,-14.3251,-14.3503,-14.3328,-14.2374,-14.2343,-14.2536,-14.3106,-14.3192,-14.3124,-14.2765,-14.3065,-14.3842,-14.5099,-14.5099,-14.5757,-14.7014,-14.7074,-14.7552,-14.8869,-14.9108,-14.9168,-14.9048,-14.9108,-14.9168,-14.9407,-14.9467,-14.9527,-14.9766,-14.9826,-14.9826,-14.9946,-15.0783,-15.18,-15.2339,-15.1202,-14.9886,-14.9706,-14.9706,-14.9579,-14.9451,-14.9579,-14.9203,-14.9212,-14.8837,-14.7976,-14.6405,-14.5528,-14.4591,-14.3089,-14.1791,-14.1112,-14.0996,-13.9193,-13.7739,-13.6983,-13.5877,-13.4656,-13.4249,-13.1496,-12.8496,-17.0908,-17.0854,-17.2107,-17.2622,-17.277,-17.4022,-17.4003,-17.2621,-16.7611,0.0,0.0,-16.4298,-16.4317,-16.4468,-16.4746,-16.4885,-16.4885,-16.5162,-16.5231,-16.5301,-16.6549,-16.7174,-16.7243,-16.8353,-16.8908,-16.8908,-16.9185,-16.9324,-16.9324,-16.9601,-16.974,-16.974,-16.981,-16.9242,-16.8069,-16.6395,-16.3268,-15.8826,-15.7795,-15.6081,-15.3605,-15.3152,-15.0801,-14.6415,-14.6021,-14.457,-14.1741,-14.1134,-14.1071,-14.1259,-14.1071,-14.036,-13.917,-13.9107,-13.796,-13.5673,-13.6382,-13.7129,-13.7615,-13.7759,-13.8607,-14.0318,-14.0485,-13.9654,-13.744,-13.9295,-14.115,-14.2466,-14.2526,-14.3065,-14.4381,-14.4501,-14.5039,-14.6356,-14.6475,-14.6535,-14.6535,-14.6475,-14.7014,-14.7851,-14.8091,-14.845,-14.9467,-14.9587,-14.9706,-14.9706,-14.9886,-15.0185,-15.0305,-14.9946,-14.9467,-14.9467,-14.922,-14.9272,-14.9007,-14.8759,-14.8204,-14.6682,-14.6376,-14.5775,-14.4642,-14.3719,-14.3089,-14.2503,-14.0343,-13.8971,-13.8437,-13.739,-13.6052,-13.5005,-13.5238,-13.5412,-13.4119,-13.0867,-12.7039,-17.0051,-16.997,-17.0707,-17.0645,0.0,-17.0891,-17.0391,-16.8847,-16.5388,-16.3123,-16.1785,-16.1785,-16.1968,-16.211,-16.211,-16.2526,-16.3289,-16.322,-16.3705,-16.4468,-16.5231,-16.5648,-16.5648,-16.6341,-16.6619,-16.6688,-16.6688,-16.6688,-16.6688,-16.6688,-16.6375,-16.5978,-16.5965,-16.5314,-16.3947,-16.2978,-16.0232,-15.5675,-15.46,-15.2888,-15.0447,-14.9061,-14.6902,-14.3677,-14.2571,0.0,0.0,0.0,0.0,0.0,0.0,0.0,0.0,-13.6246,-13.429,-13.2714,-13.0418,-12.8953,-12.8569,-12.847,-12.9468,-13.1554,-13.2452,-13.2055,-13.0081,-13.3012,-13.5765,-13.762,-13.7799,-13.8936,-14.1509,-14.2466,-14.3364,-14.468,-14.5398,-14.5817,-14.5817,-14.5817,-14.6056,-14.6655,-14.6715,-14.6954,-14.7672,-14.7732,-14.7971,-14.8569,-14.8689,-14.8988,-14.9467,-14.8629,-14.7732,-14.7732,-14.748,-14.71,-14.6787,-14.6532,-14.5725,-14.5006,-14.4356,-14.3721,-14.2537,-14.205,-14.138,-14.0357,-13.9203,-13.7941,-13.7166,-13.5877,-13.4656,-13.3493,-13.3085,-13.2795,-13.215,-12.9964,-12.6687,-16.8956,-16.8659,-16.8953,-16.8471,-16.7439,-16.6595,-16.5316,-16.3749,-16.2323,-16.0721,-15.9142,-15.9266,-15.9543,-15.9751,-15.9751,-16.0445,-16.1624,-16.1347,-16.1971,-16.315,-16.2873,-16.2734,-16.2734,-16.2734,-16.2734,-16.2734,-16.2734,-16.2942,-16.315,-16.315,-16.289,-16.2284,-16.2215,-16.1299,-15.9573,0.0,0.0,0.0,-15.1967,-14.9989,-14.799,-14.5733,-14.3427,-14.1224,-13.9639,0.0,-14.0,-13.8049,-13.7357,-13.8364,-13.742,0.0,0.0,0.0,0.0,0.0,0.0,0.0,0.0,0.0,0.0,0.0,-12.2781,-12.32,-12.3439,-12.679,-12.9901,-13.2175,-13.3132,-13.4807,-13.7799,-13.8996,-14.0252,-14.1748,-14.2885,-14.3783,-14.4261,-14.4501,-14.48,-14.5039,-14.5279,-14.5518,-14.5817,-14.5817,-14.6236,-14.7193,-14.7373,-14.7851,-14.8749,-14.7133,-14.5877,-14.5817,-14.5622,-14.5009,-14.4652,-14.3913,-14.3299,-14.2944,-14.243,-14.1608,-14.0298,-13.9761,-13.8927,-13.7371,-13.6878,-13.6205,-13.5128,-13.39,-13.262,-13.1922,-13.0991,-13.0003,-12.9246,-12.8258,-12.5975,-16.5016,-16.4066,-16.5527,-16.6061,-16.5603,-16.1647,-15.9266,-15.8054,-15.7202,-15.6688,-15.6457,-15.7476,-15.8642,-15.9751,-15.9751,-15.989,-15.9959,-15.878,-15.8295,-15.8433,-15.7115,-15.6491,-15.6491,-15.6491,-15.6491,-15.6491,-15.6491,-15.7185,-15.8503,-15.8503,-15.8738,-15.9186,-15.9255,-15.8286,-15.6438,-15.4417,-15.3149,-15.2658,-14.9805,-14.7484,-14.6048,-14.4308,-14.2083,-13.9324,-13.893,-13.8364,-13.742,-13.7042,-13.6916,-13.7105,-13.6979,-13.6148,-13.4554,-12.9055,-12.3528,0.0,-11.3627,0.0,0.0,0.0,0.0,0.0,0.0,0.0,0.0,-12.32,-12.5473,-12.7029,-13.026,-13.1995,-13.1397,-13.1457,-13.2534,-13.4867,-13.5346,-13.6363,-13.8577,-13.9953,-14.109,-14.2227,-14.3364,-14.456,-14.5398,-14.5817,-14.5757,-14.5937,-14.5757,-14.5518,-14.6056,-14.5638,-14.5279,-14.5817,-14.5693,-14.4553,-14.3716,-14.227,-14.0769,-13.9823,-13.9348,-13.8814,-13.6908,-13.5784,-13.4778,-13.3828,-13.1823,-13.0354,-13.0875,-13.0003,-12.9479,-13.0235,-12.9886,-12.8665,-12.5989,-12.4942,-12.281,-16.4687,-16.4144,-16.4189,-16.3416,-16.1918,-15.8119,-15.6491,-15.6355,-15.426,-15.3187,-15.2967,-15.3513,-15.4133,-15.4688,-15.4688,-15.5173,-15.5936,-15.5312,-15.6006,-15.7532,-15.6907,-15.7046,-15.774,-15.6977,-15.6561,-15.6561,-15.4826,-15.4341,-15.4965,-15.368,-15.3411,-15.4054,-15.3649,-15.1687,-14.8239,-14.6895,-14.6683,-14.7433,-14.6876,-14.5877,-14.4375,-14.3654,-14.2137,-14.0103,-14.0,-13.9686,-13.9119,-13.8364,-13.7923,-13.7923,-13.7294,-13.5268,-13.176,-12.5963,-11.9704,0.0,0.0,0.0,0.0,0.0,0.0,0.0,0.0,0.0,0.0,0.0,-11.7037,-11.8353,-12.4037,-12.679,-12.4755,-12.7208,-12.8525,-12.7508,-12.8704,-13.0081,-13.1217,-13.385,-13.5765,-13.6363,-13.8158,-13.9893,-14.121,-14.1389,-14.2167,-14.4381,-14.1509,-13.9175,-13.9235,-13.9834,-14.0312,-14.0312,-14.0911,-14.103,-14.019,-13.869,-13.7014,-13.5535,-13.4952,-13.4128,-13.2655,-13.2007,-13.177,-13.1185,-13.0421,-12.9835,-12.9306,-12.8665,-12.8199,-12.785,-12.5873,-12.343,-12.1627,-12.1278,-11.965,-16.4239,-16.3411,-16.017,-15.8183,-15.6992,-15.446,-15.4468,-15.5923,-15.335,-15.1581,-15.0734,-15.1427,-15.0452,-14.83,-14.7607,-14.8508,-15.073,-15.0314,-15.2047,-15.5381,-15.5104,-15.552,-15.6491,-15.5451,-15.4965,-15.4757,-15.1973,-15.1003,-15.1774,-14.909,-14.8119,-14.8857,-14.7027,-14.4135,-14.0483,-14.0632,-14.1467,-14.2969,-14.4731,-14.4616,-14.243,-14.1935,-14.1198,-13.9938,-13.9938,-13.9938,-13.9938,-13.893,-13.8364,-13.8301,-13.5997,-13.2782,-12.86,-12.1471,0.0,0.0,0.0,0.0,0.0,0.0,0.0,0.0,0.0,-9.7471,-9.9445,0.0,-10.8573,0.0,-11.7216,-12.0866,-11.9789,-12.2482,0.0,0.0,-12.1524,-12.2661,-12.3259,-12.6849,-12.9482,-13.0081,-13.2414,-13.4628,-13.6243,-13.6423,-13.762,-14.0432,-13.6902,-13.3671,-13.3072,-13.4329,-13.5286,-13.5166,-13.5645,-13.5772,-13.5189,-13.4129,-13.3004,-13.1292,-13.0481,-12.9717,-12.872,-12.8417,-12.8233,-12.7836,-12.802,-12.7674,-12.6221,-12.6047,-12.5582,-12.4593,-12.1568,-11.8776,-11.8776,-11.8835,-11.7514,-16.1945,-15.9052,-15.0147,-14.8173,-15.085,-14.9978,-15.2159,-15.6288,-15.5344,-15.337,-15.0872,-15.3716,-15.0102,-14.1714,-13.8603,0.0,-14.4136,-14.2752,-14.4624,-14.9138,-14.7751,-14.7127,-14.7265,-14.7196,-14.7127,-14.7127,-14.4609,-14.5372,-14.858,-14.4727,-14.3449,-14.4669,-13.9584,-13.6503,-13.5829,-13.7934,-13.9932,-14.1514,-14.4291,-14.3791,-13.9672,-13.8105,-13.7269,-13.7231,-13.7168,-13.7231,-13.7168,-13.7105,-13.7042,-13.6853,-13.1651,-12.7316,-12.415,0.0,0.0,0.0,0.0,0.0,0.0,0.0,0.0,0.0,0.0,0.0,0.0,0.0,0.0,-10.6355,-11.0754,0.0,-11.7994,-11.5421,0.0,0.0,0.0,-11.2645,-11.504,-11.8652,-12.2003,-12.4396,0.0,0.0,-13.2175,-13.2474,-13.2653,-13.2953,-13.3491,-13.3012,-13.0739,-13.2354,-13.3611,-13.2301,-13.1285,-13.0516,-13.0133,-12.9617,-12.8873,-12.7727,-12.7127,-12.647,-12.6175,-12.4695,-12.3271,-12.3221,-12.1232,-11.9823,-11.9649,-11.9882,-11.9533,-11.9591,-11.9009,-11.8718,-11.8602,-11.8602,-11.7556,-15.0819,-14.2496,-13.745,-13.6672,-13.8774,-13.831,-14.0723,-14.5043,-14.4492,-14.2964,-14.0816,-14.1093,-13.7565,-13.1014,-12.689,0.0,0.0,0.0,-13.7636,-14.407,-14.4416,-14.608,-14.8722,-14.7959,-14.7612,-14.7473,-14.5732,-14.5378,-14.6334,-14.4654,-13.8658,-12.8296,0.0,-12.3062,-12.4526,-12.7912,-13.1234,-13.447,-13.8412,-13.912,-13.6555,-13.6713,-13.6853,-13.6853,-13.6853,-13.6853,-13.6853,-13.6035,-13.3859,-13.0235,-12.556,-11.912,0.0,0.0,0.0,0.0,0.0,0.0,0.0,0.0,0.0,0.0,0.0,-8.5384,-8.7,0.0,0.0,0.0,-9.753,-10.0283,-10.5788,-10.9258,0.0,0.0,0.0,0.0,0.0,0.0,0.0,-11.4224,-11.9669,-12.4277,-12.6849,-12.5892,-12.5174,-12.5952,-12.6431,-12.6323,-12.4985,0.0,-12.7499,-12.7796,-12.6176,-12.5313,-12.6303,-12.4569,-12.3033,-12.2902,-12.2835,-12.2584,-12.1824,-12.1215,-12.062,-12.0236,-11.9452,-11.8776,-11.8776,-11.7497,-11.645,-11.645,-11.645,-11.645,-11.645,-11.645,-11.575,-13.5351,0.0,0.0,0.0,0.0,-12.5867,-12.89,-13.3563,-13.3596,-13.2162,-12.9621,-12.893,0.0,0.0,0.0,0.0,0.0,0.0,-13.0607,-13.7775,-14.13,-14.4416,-14.7191,-14.6221,-14.5459,-14.4974,-14.2752,-14.1225,-14.0389,-13.7359,-12.7944,-11.2658,0.0,0.0,0.0,0.0,-12.326,-12.7716,-13.3287,-13.5514,-13.4182,-13.509,-13.5594,-13.5657,-13.5594,-13.5594,-13.5594,-13.3041,-12.9201,-12.4213,-11.7707,0.0,0.0,0.0,0.0,0.0,0.0,0.0,0.0,0.0,0.0,0.0,0.0,0.0,0.0,0.0,0.0,0.0,0.0,0.0,-9.5735,-10.2377,-10.4141,0.0,0.0,0.0,0.0,0.0,0.0,0.0,0.0,0.0,-11.7494,-11.7912,-11.8689,0.0,0.0,-12.1675,-12.0379,-12.1477,-12.2498,-12.2462,-12.0541,0.0,-12.0209,-11.7886,-11.6378,-11.7325,-11.8122,-11.8276,-11.738,-11.6371,-11.5836,-11.6032,-11.6227,-11.5723,-11.4284,-11.2036,-11.0602,-11.0833,-11.0557,-11.0383,-11.0788,-11.0846,-11.0225,0.0,0.0,0.0,0.0,-11.1376,0.0,0.0,0.0,-12.4885,-12.2712,0.0,-11.9708,0.0,0.0,0.0,0.0,-11.1047,-11.7102,0.0,0.0,-13.7632,-14.0678,-13.9225,-13.9087,-13.8258,-13.66,-13.2752,-13.0352,-12.8891,-11.9122,-10.9483,0.0,0.0,0.0,0.0,0.0,-11.7296,-12.2465,-13.055,-13.4113,-13.2796,-13.2698,-13.2761,-13.2761,-13.2761,-13.2698,-13.2509,-12.7097,-12.2834,-11.9764,-10.7562,0.0,0.0,0.0,0.0,0.0,0.0,0.0,0.0,0.0,0.0,0.0,0.0,0.0,0.0,0.0,0.0,0.0,0.0,0.0,0.0,-9.4539,0.0,0.0,0.0,0.0,0.0,0.0,0.0,0.0,0.0,-10.5636,-10.3131,-10.9019,-11.4233,-11.5502,0.0,0.0,0.0,0.0,-11.9507,-11.6628,-11.4007,-11.1955,-11.0548,-10.9522,-10.9657,-11.1336,0.0,0.0,-11.3263,-10.9749,-10.752,-10.9179,-11.0155,-10.901,-10.3674,-10.1393,-10.0532,-10.1503,-10.0585,-9.984,-10.0861,-10.1372,-10.1515,0.0,0.0,0.0,0.0,0.0,0.0,0.0,0.0,0.0,-10.7197,-10.448,-10.3823,0.0,0.0,0.0,0.0,0.0,0.0,0.0,0.0,-12.5104,-12.8608,-13.1017,-13.0117,-12.9358,-12.8668,-12.539,-11.7186,0.0,0.0,0.0,0.0,0.0,0.0,0.0,0.0,-11.4285,-12.04,-12.8877,-13.3092,-13.2572,-13.2572,-13.2572,-13.2572,-13.2572,-13.0336,-12.5591,-11.9772,-11.3173,0.0,0.0,0.0,0.0,0.0,0.0,0.0,0.0,0.0,0.0,0.0,0.0,0.0,0.0,0.0,0.0,0.0,0.0,0.0,0.0,0.0,0.0,0.0,-9.2086,0.0,0.0,0.0,0.0,0.0,0.0,0.0,0.0,0.0,-9.6068,-10.1729,-10.7597,-11.198,-11.4549,-11.5906,-11.5807,0.0,0.0,0.0,0.0,0.0,0.0,0.0,-10.3451,-10.3743,-10.413,-10.4323,-10.387,-10.2409,-10.1718,-10.2793,0.0,0.0,-9.4892,-9.388,-9.3811,-9.3232,-9.3127,-9.343,-9.388,-9.4426,-9.5041,0.0,0.0,0.0,0.0,0.0,0.0,0.0,0.0,0.0,-9.3454,-9.1583,0.0,0.0,0.0,0.0,0.0,0.0,0.0,0.0,0.0,0.0,0.0,-12.1332,-11.9956,0.0,0.0,0.0,0.0,0.0,0.0,0.0,0.0,0.0,0.0,0.0,0.0,-11.0884,-11.8322,-12.7691,-13.2572,-13.2572,-13.2572,-13.2572,-13.2572,-13.2572,-12.9108,-12.1832,0.0,0.0,0.0,0.0,0.0,0.0,0.0,0.0,0.0,0.0,0.0,0.0,0.0,0.0,0.0,0.0,0.0,0.0,0.0,0.0,0.0,0.0,0.0,0.0,0.0,-8.7478,0.0,0.0,0.0,0.0,0.0,0.0,0.0,0.0,0.0,0.0,-9.3767,-9.9839,-10.5273,-10.888,-11.1504,-11.2893,-11.2947,-11.2671,0.0,0.0,0.0,0.0,0.0,0.0,0.0,0.0,0.0,0.0,0.0,0.0,0.0,-9.2281,-8.8566,-8.4086,-8.3414,-8.3413,-8.2715,0.0,0.0,0.0,0.0,0.0,0.0,0.0,0.0,0.0,0.0,0.0,0.0,0.0,0.0,0.0,-8.0433,0.0,0.0,-7.3717,0.0,0.0,0.0,0.0,0.0,0.0,0.0,0.0,0.0,0.0,0.0,0.0,0.0,0.0,0.0,0.0,0.0,0.0,0.0,0.0,0.0,0.0,-10.6867,-11.5954,-12.6781,-13.2446,-13.2446,-13.2446,-13.2384,-13.2384,-13.2384,-12.8857,-12.1456,0.0,0.0,0.0,0.0,0.0,0.0,0.0,0.0,0.0,0.0,0.0,0.0,0.0,0.0,0.0,0.0,0.0,0.0,0.0,0.0,0.0,0.0,0.0,0.0,0.0,0.0,-8.317,-8.6282,-8.7059,0.0,0.0,0.0,0.0,0.0,0.0,0.0,0.0,0.0,-9.5462,-10.2618,-10.7939,-10.9111,-10.8887,-10.8546,-10.8553,-10.5091,-10.2179,-10.1599,-9.9953,-9.8329,0.0,0.0,0.0,0.0,0.0,0.0,0.0,0.0,0.0,0.0,0.0,0.0,0.0,0.0,0.0,0.0,0.0,0.0,0.0,0.0,0.0,0.0,0.0,0.0,0.0,0.0,0.0,0.0,0.0,0.0,0.0,0.0,0.0,0.0,0.0,0.0,0.0,0.0,0.0,0.0,0.0,0.0,0.0,0.0,0.0,0.0,0.0,0.0,0.0,0.0,0.0,0.0,0.0,0.0,-10.4816,-11.3121,-12.4074,-12.974,-12.974,-12.9677,-12.974,-12.9677,-12.7505,-12.243,0.0,0.0,0.0,0.0,0.0,0.0,0.0,0.0,0.0,0.0,0.0,0.0,0.0,0.0,0.0,0.0,0.0,0.0,0.0,0.0,0.0,0.0,0.0,0.0,0.0,0.0,0.0,0.0,-8.6042,-8.6102,-8.317,0.0,0.0,0.0,0.0,0.0,0.0,0.0,0.0,0.0,0.0,-10.0865,-10.4196,-10.5086,-10.5123,-10.3941,-10.1898,-10.0384,-9.978,-9.8795,-9.6909,-9.3412,0.0,0.0,0.0,0.0,0.0,0.0,0.0,0.0,0.0,0.0,0.0,0.0,0.0,0.0,0.0,0.0,0.0,0.0,0.0,0.0,0.0,0.0,0.0,0.0,0.0,0.0,0.0,0.0,0.0,0.0,0.0,0.0,0.0,0.0,0.0,0.0,0.0,0.0,0.0,0.0,0.0,0.0,0.0,0.0,0.0,0.0,0.0,0.0,0.0,0.0,0.0,0.0,0.0,-10.2948,-11.1107,-12.2563,-12.8481,-12.8481,-12.8481,-12.8481,-12.8481,-12.49,-11.8557,0.0,0.0,0.0,0.0,0.0,0.0,0.0,0.0,0.0,0.0,0.0,0.0,0.0,0.0,0.0,0.0,0.0,0.0,0.0,0.0,0.0,0.0,0.0,0.0,0.0,0.0,0.0,0.0,-8.0777,-8.1914,-8.1176,0.0,0.0,0.0,0.0,0.0,0.0,0.0,0.0,0.0,0.0,-9.4282,-9.8555,-9.9766,0.0,0.0,-9.8233,-9.6897,-9.7244,-9.6673,-9.443,-8.9015,-8.5658,0.0,0.0,0.0,0.0,0.0,0.0,0.0,0.0,0.0,0.0,0.0,0.0,0.0,0.0,0.0,0.0,0.0,0.0,0.0,0.0,0.0,0.0,0.0,0.0,0.0,0.0,0.0,0.0,0.0,0.0,0.0,0.0,0.0,0.0,0.0,0.0,0.0,0.0,0.0,0.0,0.0,0.0,0.0,0.0,0.0,0.0,0.0,0.0,0.0,0.0,0.0,0.0,-10.116,-10.947,-12.1745,-12.8103,-12.8229,-12.8229,-12.8166,-12.804,-12.349,-11.6431,0.0,0.0,0.0,0.0,0.0,0.0,0.0,0.0,0.0,0.0,0.0,0.0,0.0,0.0,0.0,0.0,0.0,0.0,0.0,0.0,0.0,0.0,0.0,0.0,0.0,0.0,0.0,0.0,0.0,0.0,0.0,0.0,0.0,0.0,0.0,0.0,0.0,0.0,0.0,0.0,0.0,-8.8329,-9.2571,-9.3433,-9.4416,0.0,-9.4258,-9.2233,-9.3813,-9.3637,-9.1048,-8.4494,0.0,0.0,0.0,0.0,0.0,0.0,0.0,0.0,0.0,0.0,0.0,0.0,0.0,0.0,0.0,0.0,0.0,0.0,0.0,0.0,0.0,0.0,0.0,0.0,0.0,0.0,0.0,0.0,0.0,0.0,0.0,0.0,0.0,0.0,0.0,0.0,0.0,0.0,0.0,0.0,0.0,0.0,0.0,0.0,0.0,0.0,0.0,0.0,0.0,0.0,0.0,0.0,0.0,0.0,-10.5252,-11.7464,-12.4326,-12.5396,-12.5459,-12.4893,-12.3759,-11.8083,0.0,0.0,0.0,0.0,0.0,0.0,0.0,0.0,0.0,0.0,0.0,0.0,0.0,0.0,0.0,0.0,0.0,0.0,0.0,0.0,0.0,0.0,0.0,0.0,0.0,0.0,0.0,-6.0897,0.0,0.0,0.0,0.0,0.0,0.0,0.0,0.0,0.0,0.0,0.0,0.0,0.0,0.0,-8.393,-8.7485,-8.9178,-9.0034,0.0,0.0,-8.9068,-8.8396,-8.9144,-8.7949,0.0,0.0,0.0,0.0,0.0,0.0,0.0,0.0,0.0,0.0,0.0,0.0,0.0,0.0,0.0,0.0,0.0,0.0,0.0,0.0,0.0,0.0,0.0,0.0,0.0,0.0,0.0,0.0,0.0,0.0,0.0,0.0,0.0,0.0,0.0,0.0,0.0,0.0,0.0,0.0,0.0,0.0,0.0,0.0,0.0,0.0,0.0,0.0,0.0,0.0,0.0,0.0,0.0,0.0,-9.4264,-10.257,-11.3792,-12.0549,-12.25,-12.2563,-12.2186,-12.1367,-11.4617,-10.7457,0.0,0.0,0.0,0.0,0.0,0.0,0.0,0.0,0.0,0.0,0.0,0.0,0.0,0.0,0.0,0.0,0.0,0.0,0.0,0.0,0.0,0.0,0.0,0.0,0.0,0.0,0.0,0.0,0.0,0.0,0.0,0.0,0.0,0.0,0.0,0.0,0.0,0.0,0.0,0.0,0.0,0.0,-8.2678,-8.3576,0.0,0.0,0.0,-8.4223,-8.3309,0.0,0.0,0.0,0.0,0.0,0.0,0.0,0.0,0.0,0.0,0.0,0.0,0.0,0.0,0.0,0.0,0.0,0.0,0.0,0.0,0.0,0.0,0.0,0.0,0.0,0.0,0.0,0.0,0.0,0.0,0.0,0.0,0.0,0.0,0.0,0.0,0.0,0.0,0.0,0.0,0.0,0.0,0.0,0.0,0.0,0.0,0.0,0.0,0.0,0.0,0.0,0.0,0.0,0.0,0.0,0.0,0.0,-10.0837,-11.0754,-11.7213,-11.9982,-11.9982,-11.9731,-11.9353,-11.2304,-10.517,0.0,0.0,0.0,0.0,0.0,0.0,0.0,0.0,0.0,0.0,0.0,0.0,0.0,0.0,0.0,0.0,0.0,0.0,0.0,0.0,0.0,0.0,0.0,0.0,0.0,0.0,0.0,0.0,0.0,0.0,0.0,0.0,0.0,0.0,0.0,0.0,0.0,0.0,0.0,0.0,0.0,-7.4615,-7.8131,-7.7845,-7.7056,0.0,0.0,-7.8547,-7.8701,-7.8069,0.0,0.0,0.0,0.0,0.0,0.0,0.0,0.0,0.0,0.0,0.0,0.0,0.0,0.0,0.0,0.0,0.0,0.0,0.0,0.0,0.0,0.0,0.0,0.0,0.0,0.0,0.0,0.0,0.0,0.0,0.0,0.0,0.0,0.0,0.0,0.0,0.0,0.0,0.0,0.0,0.0,0.0,0.0,0.0,0.0,0.0,0.0,0.0,0.0,0.0,0.0,0.0,0.0,0.0,0.0,0.0,-9.9384,-10.9228,-11.6183,-11.9919,-11.9101,-11.7527,-11.5113,-11.0112,-10.3097,0.0,0.0,0.0,0.0,0.0,0.0,0.0,0.0,0.0,0.0,0.0,0.0,0.0,0.0,0.0,0.0,0.0,0.0,0.0,0.0,0.0,0.0,0.0,0.0,0.0,0.0,0.0,0.0,0.0,0.0,0.0,0.0,0.0,0.0,0.0,0.0,0.0,0.0,0.0,0.0,0.0,-7.1828,-7.4423,-7.4192,0.0,0.0,0.0,0.0,-7.4716,-7.3201,0.0,0.0,0.0,0.0,0.0,0.0,0.0,0.0,0.0,0.0,0.0,0.0,0.0,0.0,0.0,0.0,0.0,0.0,0.0,0.0,0.0,0.0,0.0,0.0,0.0,0.0,0.0,0.0,0.0,0.0,0.0,0.0,0.0,0.0,0.0,0.0,0.0,0.0,0.0,0.0,0.0,0.0,0.0,0.0,0.0,0.0,0.0,0.0,0.0,0.0,0.0,0.0,0.0,0.0,0.0,0.0,-9.7536,-10.4911,-11.1049,-11.5954,-11.4883,-11.3436,-11.1988,-10.8187,-10.1486,0.0,0.0,0.0,0.0,0.0,0.0,0.0,0.0,0.0,0.0,0.0,0.0,0.0,0.0,0.0,0.0,0.0,0.0,0.0,0.0,0.0,0.0,0.0,0.0,0.0,0.0,0.0,0.0,0.0,0.0,0.0,0.0,0.0,0.0,0.0,0.0,0.0,0.0,0.0,0.0,-6.6406,-6.8438,-7.0166,0.0,0.0,0.0,0.0,0.0,0.0,-6.9658,-6.7829,0.0,0.0,0.0,0.0,0.0,0.0,0.0,0.0,0.0,0.0,0.0,0.0,0.0,0.0,0.0,0.0,0.0,0.0,0.0,0.0,0.0,0.0,0.0,0.0,0.0,0.0,0.0,0.0,0.0,0.0,0.0,0.0,0.0,0.0,0.0,0.0,0.0,0.0,0.0,0.0,0.0,0.0,0.0,0.0,0.0,0.0,0.0,0.0,0.0,0.0,0.0,0.0,0.0,0.0,0.0,-9.5185,-10.016,-10.5428,-11.0962,-11.0288,-10.9596,-10.9092,-10.6197,-9.9598,-8.9443,0.0,0.0,0.0,0.0,0.0,0.0,0.0,0.0,0.0,0.0,0.0,0.0,0.0,0.0,0.0,0.0,0.0,0.0,0.0,0.0,0.0,0.0,0.0,0.0,0.0,0.0,0.0,0.0,0.0,0.0,0.0,0.0,0.0,0.0,0.0,0.0,0.0,0.0,0.0,-6.3408,-6.4831,0.0,0.0,0.0,0.0,0.0,0.0,0.0,0.0,-6.478,0.0,0.0,0.0,0.0,0.0,0.0,0.0,0.0,0.0,0.0,0.0,0.0,0.0,0.0,0.0,0.0,0.0,0.0,0.0,0.0,0.0,0.0,0.0,0.0,0.0,0.0,0.0,0.0,0.0,0.0,0.0,0.0,0.0,0.0,0.0,0.0,0.0,0.0,0.0,0.0,0.0,0.0,0.0,0.0,0.0,0.0,0.0,0.0,0.0,0.0,0.0,0.0,0.0,0.0,0.0,0.0,-9.7712,-10.3532,-10.7668,-10.9183,-10.8714,-10.6385,-10.3372,-9.613,-8.442,0.0,0.0,0.0,0.0,0.0,0.0,0.0,0.0,0.0,0.0,0.0,0.0,0.0,0.0,0.0,0.0,0.0,0.0,0.0,0.0,0.0,0.0,0.0,0.0,0.0,0.0,0.0,0.0,0.0,0.0,0.0,0.0,0.0,0.0,0.0,0.0,0.0,0.0,-5.4705,-5.848,0.0,0.0,0.0,0.0,0.0,0.0,0.0,0.0,-6.2545,0.0,0.0,0.0,0.0,0.0,0.0,0.0,0.0,0.0,0.0,0.0,0.0,0.0,0.0,0.0,0.0,0.0,0.0,0.0,0.0,0.0,0.0,0.0,0.0,0.0,0.0,0.0,0.0,0.0,0.0,0.0,0.0,0.0,0.0,0.0,0.0,0.0,0.0,0.0,0.0,0.0,0.0,0.0,0.0,0.0,0.0,0.0,0.0,0.0,0.0,0.0,0.0,0.0,0.0,0.0,0.0,0.0,0.0,-9.9235,-10.4691,-10.4816,-10.4503,-10.3815,-9.8448,-9.1778,0.0,0.0,0.0,0.0,0.0,0.0,0.0,0.0,0.0,0.0,0.0,0.0,0.0,0.0,0.0,0.0,0.0,0.0,0.0,0.0,0.0,0.0,0.0,0.0,0.0,0.0,0.0,0.0,0.0,0.0,0.0,0.0,0.0,0.0,0.0,0.0,0.0,0.0,0.0,0.0,0.0,0.0,0.0,0.0,0.0,0.0,0.0,0.0,0.0,0.0,0.0,0.0,0.0,0.0,0.0,0.0,0.0,0.0,0.0,0.0,0.0,0.0,0.0,0.0,0.0,0.0,0.0,0.0,0.0,0.0,0.0,0.0,0.0,0.0,0.0,0.0,0.0,0.0,0.0,0.0,0.0,0.0,0.0,0.0,0.0,0.0,0.0,0.0,0.0,0.0,0.0,0.0,0.0,0.0,0.0,0.0,0.0,0.0,0.0,0.0,0.0,0.0,0.0,0.0,0.0,0.0,0.0,0.0,-9.4946,-10.1055,-10.0979,-10.1136,-10.1726,-9.4036,-8.7641,0.0,0.0,0.0,0.0,0.0,0.0,0.0,0.0,0.0,0.0,0.0,0.0,0.0,0.0,0.0,0.0,0.0,0.0,0.0,0.0,0.0,0.0,0.0,0.0,0.0,0.0,0.0,0.0,0.0,0.0,0.0,0.0,0.0,0.0,0.0,0.0,0.0,0.0,0.0,0.0,0.0,0.0,0.0,0.0,0.0,0.0,0.0,0.0,-5.8734,0.0,0.0,0.0,0.0,0.0,0.0,0.0,0.0,0.0,0.0,0.0,0.0,0.0,0.0,0.0,0.0,0.0,0.0,0.0,0.0,0.0,0.0,0.0,0.0,0.0,0.0,0.0,0.0,0.0,0.0,0.0,0.0,0.0,0.0,0.0,0.0,0.0,0.0,0.0,0.0,0.0,0.0,0.0,0.0,0.0,0.0,0.0,0.0,0.0,0.0,0.0,0.0,0.0,0.0,0.0,0.0,0.0,0.0,0.0,-9.2216,-9.5811,-10.002,-10.1322,-9.9383,-9.1733,-8.4055,0.0,0.0,0.0,0.0,0.0,0.0,0.0,0.0,0.0,0.0,0.0,0.0,0.0,0.0,0.0,0.0,0.0,0.0,0.0,0.0,0.0,0.0,0.0,0.0,0.0,0.0,0.0,0.0,0.0,0.0,0.0,0.0,0.0,0.0,0.0,0.0,0.0,0.0,0.0,0.0,0.0,0.0,0.0,0.0,0.0,0.0,0.0,0.0,0.0,0.0,0.0,0.0,0.0,0.0,0.0,0.0,0.0,0.0,0.0,0.0,0.0,0.0,0.0,0.0,0.0,0.0,0.0,0.0,0.0,0.0,0.0,0.0,0.0,0.0,0.0,0.0,0.0,0.0,0.0,0.0,0.0,0.0,0.0,0.0,0.0,0.0,0.0,0.0,0.0,0.0,0.0,0.0,0.0,0.0,0.0,0.0,0.0,0.0,0.0,0.0,0.0,0.0,0.0,0.0,0.0,0.0,0.0,0.0,-8.7601,-9.2575,-9.6043,-9.6414,-9.3435,-8.7072,-8.0571,0.0,0.0,0.0,0.0,0.0,0.0,0.0,0.0,0.0,0.0,0.0,0.0,0.0,0.0,0.0,0.0,0.0,0.0,0.0,0.0,0.0,0.0,0.0,0.0,0.0,0.0,0.0,0.0,0.0,0.0,0.0,0.0,0.0,0.0,0.0,0.0,0.0,0.0,0.0,0.0,0.0,0.0,0.0,0.0,0.0,0.0,0.0,0.0,0.0,0.0,0.0,0.0,0.0,0.0,0.0,0.0,0.0,0.0,0.0,0.0,0.0,0.0,0.0,0.0,0.0,0.0,0.0,0.0,0.0,0.0,0.0,0.0,0.0,0.0,0.0,0.0,0.0,0.0,0.0,0.0,0.0,0.0,0.0,0.0,0.0,0.0,0.0,0.0,0.0,0.0,0.0,0.0,0.0,0.0,0.0,0.0,0.0,0.0,0.0,0.0,0.0,0.0,0.0,0.0,0.0,0.0,0.0,0.0,0.0,-8.8993,-9.0763,-9.0295,-8.7576,-8.2473,-7.7306,0.0,0.0,0.0,0.0,0.0,0.0,0.0,0.0,0.0,0.0,0.0,0.0,0.0,0.0,0.0,0.0,0.0,0.0,0.0,0.0,0.0,0.0,0.0,0.0,0.0,0.0,0.0,0.0,0.0,0.0,0.0,0.0,0.0,0.0,0.0,0.0,0.0,0.0,0.0,0.0,0.0,0.0,0.0,0.0,0.0,0.0,0.0,0.0,0.0,0.0,0.0,0.0,0.0,0.0,0.0,0.0,0.0,0.0,0.0,0.0,0.0,0.0,0.0,0.0,0.0,0.0,0.0,0.0,0.0,0.0,0.0,0.0,0.0,0.0,0.0,0.0,0.0,0.0,0.0,0.0,0.0,0.0,0.0,0.0,0.0,0.0,0.0,0.0,0.0,0.0,0.0,0.0,0.0,0.0,0.0,0.0,0.0,0.0,0.0,0.0,0.0,0.0,0.0,0.0,0.0,0.0,0.0,0.0,0.0,-8.466,-8.4213,-8.3654,-8.3181,-7.9161,-7.4554,0.0,0.0,0.0,0.0,0.0,0.0,0.0,0.0,0.0,0.0,0.0,0.0,0.0,0.0,0.0,0.0,0.0,0.0,0.0,0.0,0.0,0.0,0.0,0.0,0.0,0.0,0.0,0.0,0.0,0.0,0.0,0.0,0.0,0.0,0.0,0.0,0.0,0.0,0.0,0.0,0.0,0.0,0.0,0.0,0.0,0.0,0.0,0.0,0.0,0.0,0.0,0.0,0.0,0.0,0.0,0.0,0.0,0.0,0.0,0.0,0.0,0.0,0.0,0.0,0.0,0.0,0.0,0.0,0.0,0.0,0.0,0.0,0.0,0.0,0.0,0.0,0.0,0.0,0.0,0.0,0.0,0.0,0.0,0.0,0.0,0.0,0.0,0.0,0.0,0.0,0.0,0.0,0.0,0.0,0.0,0.0,0.0,0.0,0.0,0.0,0.0,0.0,0.0,0.0,0.0,0.0,0.0,0.0,0.0,-7.7569,-7.7365,-7.7825,-7.9377,-7.4561,-7.0545,-6.785,0.0,0.0,0.0,0.0,0.0,0.0,0.0,0.0,0.0,0.0,0.0,0.0,0.0,0.0,0.0,0.0,0.0,0.0,0.0,0.0,0.0,0.0,0.0,0.0,0.0,0.0,0.0,0.0,0.0,0.0,0.0,0.0,0.0,0.0,0.0,0.0,0.0,0.0,0.0,0.0,0.0,0.0,0.0,0.0,0.0,0.0,0.0,0.0,0.0,0.0,0.0,0.0,0.0,0.0,0.0,0.0,0.0,0.0,0.0,0.0,0.0,0.0,0.0,0.0,0.0,0.0,0.0,0.0,0.0,0.0,0.0,0.0,0.0,0.0,0.0,0.0,0.0,0.0,0.0,0.0,0.0,0.0,0.0,0.0,0.0,0.0,0.0,0.0,0.0,0.0,0.0,0.0,0.0,0.0,0.0,0.0,0.0,0.0,0.0,0.0,0.0,0.0,0.0,0.0,0.0,0.0,0.0,0.0,-7.2288,-7.289,-7.4029,-7.5715,-7.1384,-6.8389,0.0,0.0,0.0,0.0,0.0,0.0,0.0,0.0,0.0,0.0,0.0,0.0,0.0,0.0,0.0,0.0,0.0,0.0,0.0,0.0,0.0,0.0,0.0,0.0,0.0,0.0,0.0,0.0,0.0,0.0,0.0,0.0,0.0,0.0,0.0,0.0,0.0,0.0,0.0,0.0,0.0,0.0,0.0,0.0,0.0,0.0,0.0,0.0,0.0,0.0,0.0,0.0,0.0,0.0,0.0,0.0,0.0,0.0,0.0,0.0,0.0,0.0,0.0,0.0,0.0,0.0,0.0,0.0,0.0,0.0,0.0,0.0,0.0,0.0,0.0,0.0,0.0,0.0,0.0,0.0,0.0,0.0,0.0,0.0,0.0,0.0,0.0,0.0,0.0,0.0,0.0,0.0,0.0,0.0,0.0,0.0,0.0,0.0,0.0,0.0,0.0,0.0,0.0,0.0,0.0,0.0,0.0,0.0,-6.5096,-6.8928,-7.1563,-7.2819,-7.2879,-7.0306,-6.8329,0.0,0.0,0.0,0.0,0.0,0.0,0.0,0.0,0.0,0.0,0.0,0.0,0.0,0.0,0.0,0.0,0.0,0.0,0.0,0.0,0.0,0.0,0.0,0.0,0.0,0.0,0.0,0.0,0.0,0.0,0.0,0.0,0.0,0.0,0.0,0.0,0.0,0.0,0.0,0.0,0.0,0.0,0.0,0.0,0.0,0.0,0.0,0.0,0.0,0.0,0.0,0.0,0.0,0.0,0.0,0.0,0.0,0.0,0.0,0.0,0.0,0.0,0.0,0.0,0.0,0.0,0.0,0.0,0.0,0.0,0.0,0.0,0.0,0.0,0.0,0.0,0.0,0.0,0.0,0.0,0.0,0.0,0.0,0.0,0.0,0.0,0.0,0.0,0.0,0.0,0.0,0.0,0.0,0.0,0.0,0.0,0.0,0.0,0.0,0.0,0.0,0.0,0.0,0.0,0.0,0.0,0.0,0.0,0.0,-6.6237,0.0,-7.0665,-7.1383,-6.8092,-6.6057,0.0,0.0,0.0,0.0,0.0,0.0,0.0,0.0,0.0,0.0,0.0,0.0,0.0,0.0,0.0,0.0,0.0,0.0,0.0,0.0,0.0,0.0,0.0,0.0,0.0,0.0,0.0,0.0,0.0,0.0,0.0,0.0,0.0,0.0,0.0,0.0,0.0,0.0,0.0,0.0,0.0,0.0,0.0,0.0,0.0,0.0,0.0,0.0,0.0,0.0,0.0,0.0,0.0,0.0,0.0,0.0,0.0,0.0,0.0,0.0,0.0,0.0,0.0,0.0,0.0,0.0,0.0,0.0,0.0,0.0,0.0,0.0,0.0,0.0,0.0,0.0,0.0,0.0,0.0,0.0,0.0,0.0,0.0,0.0,0.0,0.0,0.0,0.0,0.0,0.0,0.0,0.0,0.0,0.0,0.0,0.0,0.0,0.0,0.0,0.0,0.0,0.0,0.0,0.0,0.0,0.0,0.0,0.0,0.0,-6.504,-6.7192,-6.9168,-7.0784,-6.7972,-6.6177,0.0,0.0,0.0,0.0,0.0,0.0,0.0,0.0,0.0,0.0,0.0,0.0,0.0,0.0,0.0,0.0,0.0,0.0,0.0,0.0,0.0,0.0,0.0,0.0,0.0,0.0,0.0,0.0,0.0,0.0,0.0,0.0,0.0,0.0,0.0,0.0,0.0,0.0,0.0,0.0,0.0,0.0,0.0,0.0,0.0,0.0,0.0,0.0,0.0,0.0,0.0,0.0,0.0,0.0,0.0,0.0,0.0,0.0,0.0,0.0,0.0,0.0,0.0,0.0,0.0,0.0,0.0,0.0,0.0,0.0,0.0,0.0,0.0,0.0,0.0,0.0,0.0,0.0,0.0,0.0,0.0,0.0,0.0,0.0,0.0,0.0,0.0,0.0,0.0,0.0,0.0,0.0,0.0,0.0,0.0,0.0,0.0,0.0,0.0,0.0,0.0,0.0,0.0,0.0,0.0,0.0,0.0,0.0,0.0,-6.4921,-6.6237,-6.821,-7.0545,-6.9528,-6.827,0.0,0.0,0.0,0.0,0.0,0.0,0.0,0.0,0.0,0.0,0.0,0.0,0.0,0.0,0.0,0.0,0.0,0.0,0.0,0.0,0.0,0.0,0.0,0.0,0.0,0.0,0.0,0.0,0.0,0.0,0.0,0.0,0.0,0.0,0.0,0.0,0.0,0.0,0.0,0.0,0.0,0.0,0.0,0.0,0.0,0.0,0.0,0.0,0.0,0.0,0.0,0.0,0.0,0.0,0.0,0.0,0.0,0.0,0.0,0.0,0.0,0.0,0.0,0.0,0.0,0.0,0.0,0.0,0.0,0.0,0.0,0.0,0.0,0.0,0.0,0.0,0.0,0.0,0.0,0.0,0.0,0.0,0.0,0.0,0.0,0.0,0.0,0.0,0.0,0.0,0.0,0.0,0.0,0.0,0.0,0.0,0.0,0.0,0.0,0.0,0.0,0.0,0.0,0.0,0.0,0.0,0.0,0.0,0.0,0.0,-6.528,-6.6357,-6.803,-6.7791,-6.642,-6.3928,0.0,0.0,0.0,0.0,0.0,0.0,0.0,0.0,0.0,0.0,0.0,0.0,0.0,0.0,0.0,0.0,0.0,0.0,0.0,0.0,0.0,0.0,0.0,0.0,0.0,0.0,0.0,0.0,0.0,0.0,0.0,0.0,0.0,0.0,0.0,0.0,0.0,0.0,0.0,0.0,0.0,0.0,0.0,0.0,0.0,0.0,0.0,0.0,0.0,0.0,0.0,0.0,0.0,0.0,0.0,0.0,0.0,0.0,0.0,0.0,0.0,0.0,0.0,0.0,0.0,0.0,0.0,0.0,0.0,0.0,0.0,0.0,0.0,0.0,0.0,0.0,0.0,0.0,0.0,0.0,0.0,0.0,0.0,0.0,0.0,0.0,0.0,0.0,0.0,0.0,0.0,0.0,0.0,0.0,0.0,0.0,0.0,0.0,0.0,0.0,0.0,0.0,0.0,0.0,0.0,0.0,0.0,0.0,0.0,0.0,-6.5284,-6.6008,-6.6545,-6.5659,0.0,0.0,0.0,0.0,0.0,0.0,0.0,0.0,0.0,0.0,0.0,0.0,0.0,0.0,0.0,0.0,0.0,0.0,0.0,0.0,0.0,0.0,0.0,0.0,0.0,0.0,0.0,0.0,0.0,0.0,0.0,0.0,0.0,0.0,0.0,0.0,0.0,0.0,0.0,0.0,0.0,0.0,0.0,0.0,0.0,0.0,0.0,0.0,0.0,0.0,0.0,0.0,0.0,0.0,0.0,0.0,0.0,0.0,0.0,0.0,0.0,0.0,0.0,0.0,0.0,0.0,0.0,0.0,0.0,0.0,0.0,0.0,0.0,0.0,0.0,0.0,0.0,0.0,0.0,0.0,0.0,0.0,0.0,0.0,0.0,0.0,0.0,0.0,0.0,0.0,0.0,0.0,0.0,0.0,0.0,0.0,0.0,0.0,0.0,0.0,0.0,0.0,0.0,0.0,0.0,0.0,0.0,0.0,0.0,0.0,0.0,-6.4575,-6.4301,-6.531,0.0,-6.3743,0.0,0.0,0.0,0.0,0.0,0.0,0.0,0.0,0.0,0.0,0.0,0.0,0.0,0.0,0.0,0.0,0.0,0.0,0.0,0.0,0.0,0.0,0.0,0.0,0.0,0.0,0.0,0.0,0.0,0.0,0.0,0.0,0.0,0.0,0.0,0.0,0.0,0.0,0.0,0.0,0.0,0.0,0.0,0.0,0.0,0.0,0.0,0.0,0.0,0.0,0.0,0.0,0.0,0.0,0.0,0.0,0.0,0.0,0.0,0.0,0.0,0.0,0.0,0.0,0.0,0.0,0.0,0.0,0.0,0.0,0.0,0.0,0.0,0.0,0.0,0.0,0.0,0.0,0.0,0.0,0.0,0.0,0.0,0.0,0.0,0.0,0.0,0.0,0.0,0.0,0.0,0.0,0.0,0.0,0.0,0.0,0.0,0.0,0.0,0.0,0.0,0.0,0.0,0.0,0.0,0.0,0.0,0.0,0.0,0.0,0.0,0.0,-6.2069,-6.1956,-6.244,0.0,0.0,0.0,0.0,0.0,0.0,0.0,0.0,0.0,0.0,0.0,0.0,0.0,0.0,0.0,0.0,0.0,0.0,0.0,0.0,0.0,0.0,0.0,0.0,0.0,0.0,0.0,0.0,0.0,0.0,0.0,0.0,0.0,0.0,0.0,0.0,0.0,0.0,0.0,0.0,0.0,0.0,0.0,0.0,0.0,0.0,0.0,0.0,0.0,0.0,0.0,0.0,0.0,0.0,0.0,0.0,0.0,0.0,0.0,0.0,0.0,0.0,0.0,0.0,0.0,0.0,0.0,0.0,0.0,0.0,0.0,0.0,0.0,0.0,0.0,0.0,0.0,0.0,0.0,0.0,0.0,0.0,0.0,0.0,0.0,0.0,0.0,0.0,0.0,0.0,0.0,0.0,0.0,0.0,0.0,0.0,0.0,0.0,0.0,0.0,0.0,0.0,0.0,0.0,0.0,0.0,0.0,0.0,0.0,0.0,-6.2306,-6.2031,-6.1216,-6.0993,-6.1471,0.0,0.0,0.0,0.0,0.0,0.0,0.0,0.0,0.0,0.0,0.0,0.0,0.0,0.0,0.0,0.0,0.0,0.0,0.0,0.0,0.0,0.0,0.0,0.0,0.0,0.0,0.0,0.0,0.0,0.0,0.0,0.0,0.0,0.0,0.0,0.0,0.0,0.0,0.0,0.0,0.0,0.0,0.0,0.0,0.0,0.0,0.0,0.0,0.0,0.0,0.0,0.0,0.0,0.0,0.0,0.0,0.0,0.0,0.0,0.0,0.0,0.0,0.0,0.0,0.0,0.0,0.0,0.0,0.0,0.0,0.0,0.0,0.0,0.0,0.0,0.0,0.0,0.0,0.0,0.0,0.0,0.0,0.0,0.0,0.0,0.0,0.0,0.0,0.0,0.0,0.0,0.0,0.0,0.0,0.0,0.0,0.0,0.0,0.0,0.0,0.0,0.0,0.0,0.0,0.0,0.0,0.0,0.0,0.0,0.0,0.0,0.0,0.0,0.0,-6.0454,0.0,0.0,0.0,0.0,0.0,0.0,0.0,0.0,0.0,0.0,0.0,0.0,0.0,0.0,0.0,0.0,0.0,0.0,0.0,0.0,0.0,0.0,0.0,0.0,0.0,0.0,0.0,0.0,0.0,0.0,0.0,0.0,0.0,0.0,0.0,0.0,0.0,0.0,0.0,0.0,0.0,0.0,0.0,0.0,0.0,0.0,0.0,0.0,0.0,0.0,0.0,0.0,0.0,0.0,0.0,0.0,0.0,0.0,0.0,0.0,0.0,0.0,0.0,0.0,0.0,0.0,0.0,0.0,0.0,0.0,0.0,0.0,0.0,0.0,0.0,0.0,0.0,0.0,0.0,0.0,0.0,0.0,0.0,0.0,0.0,0.0,0.0,0.0,0.0,0.0,0.0,0.0,0.0,0.0,0.0,0.0,0.0,0.0,0.0,0.0,0.0,0.0,0.0,0.0,0.0,0.0,0.0,0.0,0.0,0.0,0.0,0.0,0.0,0.0,0.0,0.0,0.0,0.0,0.0,0.0,0.0,0.0,0.0,0.0,0.0,0.0,0.0,0.0,0.0,0.0,0.0,0.0,0.0,0.0,0.0,0.0,0.0,0.0,0.0,0.0,0.0,0.0,0.0,0.0,0.0,0.0,0.0,0.0,0.0,0.0,0.0,0.0,0.0,0.0,0.0,0.0,0.0,0.0,0.0,0.0,0.0,0.0,0.0,0.0,0.0,0.0,0.0,0.0,0.0,0.0,0.0,0.0,0.0,0.0,0.0,0.0,0.0,0.0,0.0,0.0,0.0,0.0,0.0,0.0,0.0,0.0,0.0,0.0,0.0,0.0,0.0,0.0,0.0,0.0,0.0,0.0,0.0,0.0,0.0,0.0,0.0,0.0,0.0,0.0,0.0,0.0,0.0,0.0,0.0,0.0,0.0,0.0,0.0,0.0,0.0,0.0,0.0,0.0,0.0,0.0,0.0,0.0,0.0,0.0,0.0,0.0,0.0,0.0,0.0,0.0,0.0,0.0,0.0,0.0,0.0,0.0,0.0,0.0,0.0,0.0,0.0,0.0,0.0,0.0,0.0,0.0,0.0,0.0,0.0,0.0,0.0,0.0,0.0,0.0,0.0,0.0,0.0,0.0,0.0,0.0,0.0,0.0,0.0,0.0,0.0,0.0,0.0,0.0,0.0,0.0,0.0,0.0,0.0,0.0,0.0,0.0,0.0,0.0,0.0,0.0,0.0,0.0,0.0,0.0,0.0,0.0,0.0,0.0,0.0,0.0,0.0,0.0,0.0,0.0,0.0,0.0,0.0,0.0,0.0,0.0,0.0,0.0,0.0,0.0,0.0,0.0,0.0,0.0,0.0,0.0,0.0,0.0,0.0,0.0,0.0,0.0,0.0,0.0,0.0,0.0,0.0,0.0,0.0,0.0,0.0,0.0,0.0,0.0,0.0,0.0,0.0,0.0,0.0,0.0,0.0,0.0,0.0,0.0,0.0,0.0,0.0,0.0,0.0,0.0,0.0,0.0,0.0,0.0,0.0,0.0,0.0,0.0,0.0,0.0,0.0,0.0,0.0,0.0,0.0,0.0,0.0,0.0,0.0,0.0,0.0,0.0,0.0,0.0,0.0,0.0,0.0,0.0,0.0,0.0,0.0,0.0,0.0,0.0,0.0,0.0,0.0,0.0,0.0,0.0,0.0,0.0,0.0,0.0,0.0,0.0,0.0,0.0,0.0,0.0,0.0,0.0,0.0,0.0,0.0,0.0,0.0,0.0,0.0,0.0,0.0,0.0,0.0,0.0,0.0,0.0,0.0,0.0,0.0,0.0,0.0,0.0,0.0,0.0,0.0,0.0,0.0,0.0,0.0,0.0,0.0,0.0,0.0,0.0,0.0,0.0,0.0,0.0,0.0,0.0,0.0,0.0,0.0,0.0,0.0,0.0,0.0,0.0,0.0,0.0,0.0,0.0,0.0,0.0,0.0,0.0,0.0,0.0,0.0,0.0,0.0,0.0,0.0,0.0,0.0,0.0,0.0,0.0,0.0,0.0,0.0,0.0,0.0,0.0,0.0,0.0,0.0,0.0,0.0,0.0,0.0,0.0,0.0,0.0,0.0,0.0,0.0,0.0,0.0,0.0,0.0,0.0,0.0,0.0,0.0,0.0,0.0,0.0,0.0,0.0,0.0,0.0,0.0,0.0,0.0,0.0,0.0,0.0,0.0,0.0,0.0,0.0,0.0,0.0,0.0,0.0,0.0,0.0,0.0,0.0,0.0,0.0,0.0,0.0,0.0,0.0,0.0,0.0,0.0,0.0,0.0,0.0,0.0,0.0,0.0,0.0,0.0,0.0,0.0,0.0,0.0,0.0,0.0,0.0,0.0,0.0,0.0,0.0,0.0,0.0,0.0,0.0,0.0,0.0,0.0,0.0,0.0,0.0,0.0,0.0,0.0,0.0,0.0,0.0,0.0,0.0,0.0,0.0,0.0,0.0,0.0,0.0,0.0,0.0,0.0,0.0,0.0,0.0,0.0,0.0,0.0,0.0,0.0,0.0,0.0,0.0,0.0,0.0,0.0,0.0,0.0,0.0,0.0,0.0,0.0,0.0,0.0,0.0,0.0,0.0,0.0,0.0,0.0,0.0,0.0,0.0,0.0,0.0,0.0,0.0,0.0,0.0,0.0,0.0,0.0,0.0,0.0,0.0,0.0,0.0,0.0,0.0,0.0,0.0,0.0,0.0,0.0,0.0,0.0,0.0,0.0,0.0,0.0,0.0,0.0,0.0,0.0,0.0,0.0,0.0,0.0,0.0,0.0,0.0,0.0,0.0,0.0,0.0,0.0,0.0,0.0,0.0,0.0,0.0,0.0,0.0,0.0,0.0,0.0,0.0,0.0,0.0,0.0,0.0,0.0,0.0,0.0,0.0,0.0,0.0,0.0,0.0,0.0,0.0,0.0,0.0,0.0,0.0,0.0,0.0,0.0,0.0,0.0,0.0,0.0,0.0,0.0,0.0,0.0,0.0,0.0,0.0,0.0,0.0,0.0,0.0,0.0,0.0,0.0,0.0,0.0,0.0,0.0,0.0,0.0,0.0,0.0,0.0,0.0,0.0,0.0,0.0,0.0,0.0,0.0,0.0,0.0,0.0,0.0,0.0,0.0,0.0,0.0,0.0,0.0,0.0,0.0,0.0,0.0,0.0,0.0,0.0,0.0,0.0,0.0,0.0,0.0,0.0,0.0,0.0,0.0,0.0,0.0,0.0,0.0,0.0,0.0,0.0,0.0,0.0,0.0,0.0,0.0,0.0,0.0,0.0,0.0,0.0,0.0,0.0,0.0,0.0,0.0,0.0,0.0,0.0,0.0,0.0,0.0,0.0,0.0,0.0,0.0,0.0,0.0,0.0,0.0,0.0,0.0,0.0,0.0,0.0,0.0,0.0,0.0,0.0,0.0,0.0,0.0,0.0,0.0,0.0,0.0,0.0,0.0,0.0,0.0,0.0,0.0,0.0,0.0,0.0,0.0,0.0,0.0,0.0,0.0,0.0,0.0,0.0,0.0,0.0,0.0,0.0,0.0,0.0,0.0,0.0,0.0,0.0,0.0,0.0,0.0,0.0,0.0,0.0,0.0,0.0,0.0,0.0,0.0,0.0,0.0,0.0,0.0,0.0,0.0,0.0,0.0,0.0,0.0,0.0,0.0,0.0,0.0,0.0,0.0,0.0,0.0,0.0,0.0,0.0,0.0,0.0,0.0,0.0,0.0,0.0,0.0,0.0,0.0,0.0,0.0,0.0,0.0,0.0,0.0,0.0,0.0,0.0,0.0,0.0,0.0,0.0,0.0,0.0,0.0,0.0,0.0,0.0,0.0,0.0,0.0,0.0,0.0,0.0,0.0,0.0,0.0,0.0,0.0,0.0,0.0,0.0,0.0,0.0,0.0,0.0,0.0,0.0,0.0,0.0,0.0,0.0,0.0,0.0,0.0,0.0,0.0,0.0,0.0,0.0,0.0,0.0,0.0,0.0,0.0,0.0,0.0,0.0,0.0,0.0,0.0,0.0,0.0,0.0,0.0,0.0,0.0,0.0,0.0,0.0,0.0,0.0,0.0,0.0,0.0,0.0,0.0,0.0,0.0,0.0,0.0,0.0,0.0,0.0,0.0,0.0,0.0,0.0,0.0,0.0,0.0,0.0,0.0,0.0,0.0,0.0,0.0,0.0,0.0,0.0,0.0,0.0,0.0,0.0,0.0,0.0,0.0,0.0,0.0,0.0,0.0,0.0,0.0,0.0,0.0,0.0,0.0,0.0,0.0,0.0,0.0,0.0,0.0,0.0,0.0,0.0,0.0,0.0,0.0,0.0,0.0,0.0]}],[{"header":{"parameterUnit":"kt","parameterCategory":2,"dx":1,"dy":1,"la1":29.587661999999998,"la2":31.0,"lo1":-88.76705300000003,"lo2":-86.6583820000003,"nx":115,"ny":88,"refTime":"2022-10-27T00:00:00:Z","depth":0,"parameterNumber":2,"parameterNumberName":"V-component_of_WINDS"},"data":[0.4318,0.6278,0.6267,0.6246,0.6225,0.6262,0.6286,0.6501,0.7754,0.8809,0.9862,1.0894,1.1921,1.3009,1.304,1.3131,1.3284,1.3401,1.3491,1.3618,1.3639,1.4146,1.5095,1.69,2.2072,2.7288,3.2505,3.7634,4.193,4.5931,4.8238,4.8183,4.8201,4.8091,4.8091,4.8073,4.7999,4.7981,4.7999,4.8419,4.9487,5.2969,5.7169,6.2136,6.7254,7.0965,7.3786,7.6309,7.717,7.7488,7.7519,7.7457,7.7457,7.7678,7.9664,8.1887,8.3141,8.5529,8.7574,8.8824,8.919,8.919,8.919,8.9226,8.9404,8.9511,9.0545,9.1757,9.2813,9.4627,9.7523,9.8134,10.1402,10.5338,10.7952,11.2691,11.7161,11.975,12.1362,12.2226,12.3087,12.3087,12.3087,12.3087,12.3087,12.3087,12.3087,12.3087,12.3087,12.3087,12.3087,12.3087,12.3087,12.3087,12.3087,12.3087,12.3087,12.3087,12.3087,12.3087,12.3087,12.3087,12.3087,12.3087,12.3087,12.3087,12.2713,12.2433,12.1872,12.1124,12.0423,12.0009,12.0534,12.1701,12.4026,0.4318,0.6074,0.6227,0.6227,0.6267,0.6275,0.6307,0.6754,0.8619,0.9669,1.0096,1.1704,1.2439,1.2882,1.2966,1.3056,1.3189,1.339,1.3575,1.3697,1.375,1.4897,1.6041,1.7609,2.1716,2.6909,3.3806,3.8945,4.3582,4.616,4.7907,4.7797,4.7577,4.7338,4.732,4.7338,4.7558,4.7632,4.7711,4.8448,5.1574,5.5134,5.9987,6.5275,7.0432,7.436,7.6229,7.7606,7.7976,7.8137,7.8075,7.7828,7.7704,7.8368,8.0517,8.2524,8.3968,8.6106,8.8231,8.919,8.919,8.919,8.919,8.9333,8.9582,9.0117,9.108,9.1935,9.2624,9.4627,9.8239,10.0947,10.5315,10.9161,11.0944,11.3695,11.7694,12.1535,12.2226,12.2743,12.3087,12.3087,12.3087,12.3087,12.3087,12.3087,12.3087,12.3087,12.3087,12.3087,12.3087,12.3087,12.3087,12.3087,12.3087,12.3087,12.3087,12.3087,12.3087,12.3087,12.3087,12.3087,12.3087,12.3087,12.3087,12.3087,12.2807,12.2012,12.1264,12.0516,11.9748,11.9261,11.9822,12.1162,12.4043,0.4895,0.6227,0.6172,0.6182,0.6233,0.6267,0.6312,0.6768,0.8838,1.0137,1.1041,1.2217,1.3014,1.3072,1.3051,1.3131,1.3316,1.3454,1.3618,1.3766,1.4051,1.5632,1.7181,1.8938,2.2416,2.7588,3.4892,4.0787,4.5475,4.7397,4.7595,4.743,4.7356,4.732,4.7522,4.7338,4.7412,4.7742,4.7393,5.0008,5.4475,5.6855,6.0841,6.7685,7.2038,7.4322,7.6439,7.792,7.8229,7.8322,7.8322,7.8044,7.839,7.9249,8.1377,8.3328,8.5361,8.7007,8.8521,8.919,8.919,8.919,8.919,8.9262,8.9547,9.058,9.1543,9.3453,9.4147,9.754,10.0987,10.4042,10.8036,11.1814,11.3941,11.5861,11.9016,12.1927,12.2571,12.3087,12.3087,12.3087,12.3087,12.3087,12.3087,12.3087,12.3087,12.3087,12.3087,12.3087,12.3087,12.3087,12.3087,12.3087,12.3087,12.3087,12.3087,12.3087,12.3087,12.3087,12.3087,12.3087,12.3087,12.3087,12.3087,12.3087,12.2433,12.1451,12.0656,12.0263,11.9637,11.8811,11.9503,12.0394,12.4538,0.5264,0.6193,0.6135,0.6143,0.6201,0.6243,0.6504,0.6991,0.927,1.0603,1.1739,1.2536,1.3146,1.3157,1.3131,1.3194,1.3374,1.3491,1.366,1.3777,1.4977,1.6543,1.8518,2.0898,2.5005,3.0379,3.5495,4.074,4.4671,4.6708,4.7301,4.7062,4.7007,4.7062,4.7283,4.732,4.7246,4.7674,4.8091,5.0934,5.5988,5.8754,6.2459,6.9324,7.3908,7.5685,7.6843,7.8137,7.8384,7.8631,7.8538,7.8662,7.9001,8.1156,8.3009,8.4891,8.6586,8.7856,8.8846,8.919,8.919,8.919,8.9226,8.9297,8.9832,9.0901,9.2536,9.4681,9.7271,10.1103,10.4685,10.7514,11.0542,11.3876,11.6789,11.8628,12.0585,12.1927,12.2915,12.3087,12.3087,12.3087,12.3087,12.3087,12.3087,12.3087,12.3087,12.3087,12.3087,12.3087,12.3087,12.3087,12.3087,12.3087,12.3087,12.3087,12.3087,12.3087,12.3087,12.3087,12.3087,12.3087,12.3087,12.3087,12.3087,12.3087,12.262,12.1358,12.0759,12.041,11.9873,11.9158,11.9493,12.0842,12.5168,0.523,0.6188,0.6135,0.614,0.6193,0.6204,0.6886,0.826,1.0357,1.1445,1.1682,1.2777,1.3183,1.3162,1.3194,1.3252,1.3364,1.3517,1.3671,1.4002,1.5849,1.8294,2.0464,2.3282,2.7588,3.2327,3.6807,4.1181,4.3487,4.5679,4.7044,4.664,4.6713,4.6897,4.7044,4.7062,4.7437,4.7867,4.9452,5.25,5.7601,6.2318,6.676,7.2232,7.5274,7.717,7.8044,7.8507,7.8878,7.9279,7.9495,7.9526,8.0826,8.2932,8.4949,8.6747,8.8111,8.895,8.9066,8.9226,8.919,8.919,8.9262,8.9725,9.0809,9.1962,9.4179,9.6527,9.9434,10.3219,10.6871,10.9735,11.2903,11.6198,11.854,12.0001,12.151,12.2445,12.3087,12.3087,12.3087,12.3087,12.3087,12.3087,12.3087,12.3087,12.3087,12.3087,12.3087,12.3087,12.3087,12.3087,12.3087,12.3087,12.3087,12.3087,12.3087,12.3087,12.3087,12.3087,12.3087,12.3087,12.3087,12.3087,12.3087,12.3087,12.2854,12.1884,12.0973,12.0697,12.0368,11.9598,12.0201,12.164,12.5528,0.5739,0.6095,0.6103,0.6079,0.625,0.6919,0.7836,0.919,1.0705,1.18,1.2476,1.2993,1.3231,1.3189,1.3231,1.33,1.3369,1.3755,1.4535,1.5519,1.6932,2.0007,2.3057,2.6302,3.0606,3.5321,3.957,4.2275,4.5738,4.7369,4.7099,4.6934,4.6934,4.7081,4.7099,4.7176,4.7401,4.9007,5.1578,5.601,6.0771,6.565,7.045,7.4833,7.6843,7.7791,7.8322,7.931,7.9681,7.999,8.0546,8.0638,8.1207,8.3884,8.6136,8.8292,8.9525,8.9791,8.925,8.9262,8.9226,8.9297,8.9654,9.0623,9.1891,9.3664,9.6162,9.8906,10.1879,10.4965,10.8418,11.1905,11.5282,11.8495,11.9831,12.1149,12.2135,12.2837,12.3087,12.3087,12.3087,12.3087,12.3087,12.3087,12.3087,12.3087,12.3087,12.3087,12.3087,12.3087,12.3087,12.3087,12.3087,12.3087,12.3087,12.3087,12.3087,12.3087,12.3087,12.3087,12.3087,12.3087,12.3087,12.3087,12.3087,12.3087,12.3087,12.2118,12.145,12.1362,12.1169,12.1,12.1501,12.3056,12.6302,0.606,0.6023,0.6047,0.6021,0.6171,0.6871,0.8183,0.9708,1.1004,1.2093,1.2987,1.3136,1.3183,1.3215,1.3279,1.3379,1.3696,1.4451,1.5851,1.7475,1.9335,2.2182,2.5653,2.9313,3.4034,3.8532,4.193,4.443,4.7267,4.7944,4.7522,4.7283,4.7283,4.7356,4.7283,4.7044,4.8313,5.014,5.3207,5.8103,6.3315,6.814,7.2627,7.5896,7.8075,7.86,7.897,7.9835,8.0515,8.0762,8.1225,8.1874,8.2105,8.4992,8.7084,8.9553,9.0914,9.1222,8.9903,8.9547,8.9582,8.9761,9.0295,9.1624,9.3955,9.6084,9.868,10.1801,10.4913,10.7071,11.0042,11.2634,11.5544,11.7917,11.9644,12.0997,12.2424,12.3087,12.3087,12.3087,12.3087,12.3087,12.3087,12.3087,12.3087,12.3087,12.3087,12.3087,12.3087,12.3087,12.3087,12.3087,12.3087,12.3087,12.3087,12.3087,12.3087,12.3087,12.3087,12.3087,12.3087,12.3087,12.3087,12.3087,12.3087,12.3087,12.3087,12.288,12.233,12.2192,12.2112,12.2339,12.2911,12.4944,12.7634,0.6023,0.6013,0.5962,0.597,0.6021,0.6274,0.7534,0.9434,1.1508,1.255,1.2576,1.3009,1.3104,1.3136,1.3326,1.3469,1.3798,1.6053,1.7044,1.8678,2.2174,2.5634,2.9098,3.2327,3.7035,4.1078,4.3844,4.5667,4.7661,4.7889,4.7687,4.743,4.7632,4.7577,4.7637,4.7829,4.9157,5.2231,5.5855,6.0968,6.6091,7.0342,7.4587,7.6925,7.8538,7.9156,7.9712,8.0329,8.1071,8.1565,8.1812,8.2707,8.4563,8.7233,8.8471,9.0098,9.1824,9.1475,9.0545,9.001,9.0046,9.0616,9.1151,9.367,9.5977,9.8077,10.1201,10.4422,10.7134,10.9278,11.1327,11.3635,11.5963,11.7516,11.9453,12.1152,12.2618,12.3087,12.3087,12.3087,12.3087,12.3087,12.3087,12.3087,12.3087,12.3087,12.3087,12.3087,12.3087,12.3087,12.3087,12.3087,12.3087,12.3087,12.3087,12.3087,12.3087,12.3087,12.3087,12.3087,12.3087,12.3087,12.3087,12.3087,12.3087,12.3041,12.3119,12.2974,12.3045,12.3142,12.3056,12.3164,12.3177,12.55,12.8649,0.5962,0.5962,0.6127,0.6132,0.6165,0.6824,0.791,0.9614,1.1691,1.2733,1.2781,1.2972,1.3078,1.3146,1.3316,1.3496,1.3825,1.6292,1.7724,2.0441,2.5211,2.9098,3.296,3.7035,4.0454,4.2797,4.5135,4.6831,4.8128,4.8165,4.8036,4.7944,4.8091,4.7889,4.8294,4.9502,5.1429,5.5512,5.9762,6.4598,6.938,7.3406,7.6895,7.8122,7.9125,7.9804,8.0268,8.0823,8.141,8.2151,8.2879,8.3875,8.6467,8.9046,9.0976,9.194,9.2962,9.2658,9.1044,9.0224,9.0687,9.1543,9.2078,9.4165,9.7321,9.9848,10.3373,10.6603,10.9071,11.0613,11.2064,11.5074,11.6852,11.7911,11.9667,12.18,12.3087,12.3087,12.3087,12.3087,12.3087,12.3087,12.3087,12.3087,12.3087,12.3087,12.3087,12.3087,12.3087,12.3087,12.3087,12.3087,12.3087,12.3087,12.3087,12.3087,12.3087,12.3087,12.3087,12.3087,12.3087,12.3087,12.3087,12.3087,12.3087,12.3041,12.3196,12.355,12.3976,12.4119,12.3788,12.3714,12.3874,12.669,13.0212,0.6119,0.6119,0.6119,0.613,0.6719,0.7389,0.8466,0.996,1.1436,1.23,1.2571,1.2929,1.3046,1.3199,1.3379,1.4194,1.5163,1.7434,2.117,2.3914,2.8451,3.2315,3.6606,4.0652,4.3435,4.5364,4.6654,4.8155,4.8367,4.833,4.8348,4.8367,4.8275,4.822,4.8858,5.1453,5.4947,5.9347,6.4426,6.9181,7.3148,7.6218,7.8346,7.89,7.9804,8.036,8.0731,8.104,8.1781,8.2677,8.3016,8.4751,8.7721,9.0101,9.212,9.3391,9.4442,9.4252,9.2541,9.0794,9.1008,9.1935,9.3064,9.4834,9.917,10.1918,10.4939,10.8114,11.0529,11.1798,11.288,11.5699,11.7822,11.8701,12.0273,12.2399,12.3087,12.3087,12.3087,12.3087,12.3087,12.3087,12.3087,12.3087,12.3087,12.3087,12.3087,12.3087,12.3087,12.3087,12.3087,12.3087,12.3087,12.3087,12.3087,12.3087,12.3087,12.3087,12.3087,12.3087,12.3087,12.3087,12.3087,12.3087,12.3087,12.3087,12.3337,12.3662,12.4526,12.4739,12.4279,12.3956,12.4641,12.7107,13.0767,0.6119,0.6119,0.6119,0.6527,0.7528,0.7601,0.8832,1.0681,1.1158,1.1834,1.2524,1.2876,1.304,1.3242,1.4122,1.514,1.6979,2.0132,2.3679,2.8644,3.253,3.7021,4.0865,4.3435,4.5364,4.7714,4.8367,4.8367,4.8367,4.8367,4.8367,4.8367,4.8367,4.8541,4.8945,5.3525,5.8271,6.2808,6.8193,7.1946,7.5141,7.7674,7.9239,7.9928,8.0484,8.0854,8.1132,8.141,8.209,8.3016,8.3387,8.5537,8.855,9.108,9.2797,9.4109,9.5613,9.5588,9.4858,9.2862,9.2292,9.2791,9.3004,9.5848,10.0826,10.3265,10.4939,10.9941,11.1436,11.252,11.4451,11.6409,11.8174,11.975,12.1535,12.3087,12.3087,12.3087,12.3087,12.3087,12.3087,12.3087,12.3087,12.3087,12.3087,12.3087,12.3087,12.3087,12.3087,12.3087,12.3087,12.3087,12.3087,12.3087,12.3087,12.3087,12.3087,12.3087,12.3087,12.3087,12.3087,12.3087,12.3087,12.3087,12.3087,12.3087,12.3431,12.3727,12.4494,12.5007,12.4484,12.4797,12.5558,12.7263,13.002,0.6119,0.6119,0.6119,0.655,0.7791,0.9208,1.0262,1.113,1.176,1.2389,1.2633,1.2903,1.3072,1.3638,1.4999,1.6751,1.8958,2.3589,2.733,3.1658,3.6378,4.0865,4.3435,4.5364,4.7078,4.7943,4.8367,4.8367,4.8367,4.8367,4.8367,4.8367,4.8578,4.9424,5.1745,5.764,6.3438,6.7149,7.2112,7.6532,7.8403,8.0181,8.1225,8.0453,8.1318,8.1657,8.1596,8.1935,8.2553,8.3232,8.4261,8.6532,8.9343,9.187,9.3612,9.5393,9.6599,9.6106,9.4894,9.3824,9.3967,9.3432,9.3624,9.6975,10.0941,10.2892,10.5865,11.0892,11.1798,11.252,11.4451,11.6409,11.8174,12.0447,12.2226,12.3087,12.3087,12.3087,12.3087,12.3087,12.3087,12.3087,12.3087,12.3087,12.3087,12.3087,12.3087,12.3087,12.3087,12.3087,12.3087,12.3087,12.3087,12.3087,12.3087,12.3087,12.3087,12.3087,12.3087,12.3087,12.3087,12.3087,12.3087,12.3087,12.3087,12.3087,12.3602,12.441,12.4901,12.5292,12.5313,12.5387,12.639,12.7729,13.0223,0.6119,0.6121,0.6515,0.7149,0.8401,1.021,1.1277,1.1765,1.2363,1.2564,1.2585,1.2919,1.3152,1.3967,1.5991,1.83,2.1369,2.7299,3.1419,3.5736,3.9783,4.3435,4.5576,4.729,4.8367,4.8367,4.8367,4.8367,4.8367,4.8367,4.8367,4.879,4.9424,5.0461,5.3848,5.9168,6.6139,7.1252,7.6626,7.9932,8.1334,8.2182,8.2121,8.1472,8.2553,8.2429,8.2244,8.2553,8.3078,8.3665,8.4128,8.7341,9.0808,9.173,9.4021,9.719,9.7332,9.6569,9.5322,9.5215,9.4965,9.4445,9.5205,9.7614,10.2105,10.401,10.7155,10.9759,11.1798,11.324,11.4987,11.6763,11.8525,12.0841,12.2226,12.2743,12.3087,12.3087,12.3087,12.3087,12.3087,12.3087,12.3087,12.3087,12.3087,12.3087,12.3087,12.3087,12.3087,12.3087,12.3087,12.3087,12.3087,12.3087,12.3087,12.3087,12.3087,12.3087,12.3087,12.3087,12.3087,12.3087,12.3087,12.3087,12.3087,12.3087,12.3602,12.4751,12.5505,12.5605,12.5843,12.6101,12.7228,12.8604,13.1283,0.6119,0.613,0.7311,0.8332,0.9562,1.0608,1.168,1.2558,1.2564,1.2564,1.2606,1.2892,1.3421,1.5005,1.7754,2.1592,2.6447,2.928,3.508,4.0438,4.3648,4.5576,4.6866,4.7943,4.8367,4.8367,4.8367,4.8367,4.8367,4.8367,4.8578,4.879,5.0461,5.1515,5.4877,6.0142,6.7327,7.4547,8.0184,8.2671,8.3047,8.3078,8.2893,8.3202,8.3294,8.3387,8.3356,8.3387,8.3696,8.419,8.4881,8.7564,9.122,9.2347,9.4634,9.7271,9.796,9.7247,9.632,9.6035,9.5393,9.524,9.6008,9.8411,10.2518,10.5495,10.8623,11.1617,11.252,11.4094,11.6409,11.7998,11.9576,12.1362,12.2571,12.3087,12.3087,12.3087,12.3087,12.3087,12.3087,12.3087,12.3087,12.3087,12.3087,12.3087,12.3087,12.3087,12.3087,12.3087,12.3087,12.3087,12.3087,12.3087,12.3087,12.3087,12.3087,12.3087,12.3087,12.3087,12.3087,12.3087,12.3087,12.3087,12.3087,12.3087,12.3259,12.4581,12.5553,12.5869,12.6084,12.5967,12.6936,12.8388,13.1145,0.6515,0.7314,0.8332,0.9558,1.0608,1.1685,1.2336,1.2564,1.2564,1.2564,1.2611,1.276,1.5105,1.8665,2.2067,2.6182,3.1407,3.7206,4.1078,4.3435,4.5576,4.729,4.8155,4.8367,4.8367,4.8367,4.8367,4.8367,4.8367,4.8578,4.9405,5.0882,5.1725,5.3598,5.6948,6.1757,6.7298,7.5022,8.1052,8.3922,8.4159,8.4313,8.4035,8.3788,8.3757,8.3881,8.3541,8.3788,8.4097,8.4944,8.6052,8.8408,9.1492,9.3407,9.5689,9.7685,9.8423,9.7853,9.7175,9.6462,9.5749,9.5124,9.5675,9.7842,10.2144,10.568,10.8805,11.3376,11.3735,11.5699,11.8525,11.9401,12.0795,12.1881,12.3087,12.3087,12.3087,12.3087,12.3087,12.3087,12.3087,12.3087,12.3087,12.3087,12.3087,12.3087,12.3087,12.3087,12.3087,12.3087,12.3087,12.3087,12.3087,12.3087,12.3087,12.3087,12.3087,12.3087,12.3087,12.3087,12.3087,12.3087,12.3087,12.3087,12.3087,12.3087,12.3087,12.4457,12.5723,12.6207,12.6445,12.6161,12.6461,12.779,13.0244,0.671,0.7716,0.893,0.9974,1.1031,1.212,1.2564,1.2564,1.2564,1.2564,1.259,1.2728,1.4214,1.7737,2.38,2.9665,3.5909,4.0636,4.3648,4.5789,4.729,4.8367,4.8367,4.8367,4.8367,4.8367,4.8367,4.8367,4.879,4.9424,5.025,5.1936,5.3807,5.6112,5.82,6.3961,6.9053,7.3906,7.9871,8.3953,8.4437,8.4684,8.4715,8.4313,8.4622,8.4591,8.4437,8.4684,8.4808,8.5316,8.7197,8.9733,9.1764,9.4021,9.6299,9.8161,9.8601,9.8209,9.7496,9.6676,9.5892,9.5303,9.606,9.7842,10.2292,10.6603,11.1031,11.4451,11.463,11.6409,11.9226,12.0273,12.1362,12.2399,12.2915,12.3087,12.3087,12.3087,12.3087,12.3087,12.3087,12.3087,12.3087,12.3087,12.3087,12.3087,12.3087,12.3087,12.3087,12.3087,12.3087,12.3087,12.3087,12.3087,12.3087,12.3087,12.3087,12.3087,12.3087,12.3087,12.3087,12.3087,12.3087,12.3087,12.3087,12.3087,12.3134,12.4287,12.5601,12.6207,12.6805,12.6307,12.5908,12.7515,13.1322,0.6728,0.7929,0.914,1.0192,1.1268,1.2131,1.2564,1.2564,1.2564,1.2569,1.2611,1.3418,1.447,1.7273,2.3949,3.2394,3.89,4.3419,4.5576,4.7502,4.8155,4.8367,4.8367,4.8367,4.8367,4.8367,4.8367,4.8578,4.9424,5.0882,5.1936,5.3388,5.6321,5.9033,6.0904,6.7046,7.1865,7.3997,7.9359,8.3109,8.4159,8.453,8.49,8.5147,8.5302,8.524,8.5178,8.5178,8.5302,8.5542,8.7658,8.994,9.1969,9.4225,9.6538,9.7958,9.8494,9.8245,9.7496,9.6676,9.5892,9.6629,9.7177,9.9812,10.3638,10.8073,11.1574,11.4272,11.5165,11.694,12.0099,12.0795,12.1535,12.2399,12.3087,12.3087,12.3087,12.3087,12.3087,12.3087,12.3087,12.3087,12.3087,12.3087,12.3087,12.3087,12.3087,12.3087,12.3087,12.3087,12.3087,12.3087,12.3087,12.3087,12.3087,12.3087,12.3087,12.3087,12.3087,12.3087,12.3087,12.3087,12.3087,12.3087,12.3087,12.3087,12.3259,12.3945,12.5091,12.6013,12.676,12.6364,12.5892,12.9336,13.3169,0.7957,0.9047,1.0021,1.1301,1.2238,1.2596,1.2564,1.2564,1.276,1.2814,1.312,1.6751,1.9291,2.2345,2.9721,3.7844,4.494,4.6442,4.7502,4.8367,4.8367,4.8367,4.8367,4.8367,4.8367,4.8367,4.8578,4.9424,5.0672,5.1936,5.4017,5.6343,5.7596,6.0281,6.4604,6.9297,7.294,7.6596,8.0548,8.2874,8.419,8.4869,8.5302,8.5394,8.5394,8.5394,8.5394,8.5394,8.5394,8.6439,8.8872,9.1352,9.2586,9.5689,9.7958,9.8399,9.8601,9.8173,9.7496,9.6676,9.6642,9.7598,9.8288,10.1321,10.5124,10.7706,11.0808,11.5477,11.694,11.835,12.1362,12.2445,12.2571,12.3087,12.3087,12.3087,12.3087,12.3087,12.3087,12.3087,12.3087,12.3087,12.3087,12.3087,12.3087,12.3087,12.3087,12.3087,12.3087,12.3087,12.3087,12.3087,12.3087,12.3087,12.3087,12.3087,12.3087,12.3087,12.3087,12.3087,12.3087,12.3087,12.3087,12.3087,12.3087,12.3087,12.3431,12.3945,12.4921,12.594,12.6832,12.7349,12.7603,13.0124,13.3626,0.8558,1.006,1.064,1.154,1.2493,1.2611,1.2564,1.2956,1.4971,1.5856,1.7634,2.1541,2.4592,2.7488,3.4242,4.1384,4.6142,4.8155,4.8367,4.8367,4.8367,4.8367,4.8367,4.8367,4.8367,4.8578,4.9635,5.0672,5.1725,5.3598,5.6321,5.8848,6.1527,6.3803,6.7097,7.1362,7.4805,7.6828,8.0034,8.2213,8.2862,8.3912,8.4808,8.5178,8.5394,8.5394,8.5394,8.5394,8.5813,8.7273,9.0114,9.2175,9.4021,9.6503,9.8601,9.8601,9.8566,9.8245,9.7496,9.6676,9.6642,9.7561,9.9622,10.2182,10.4714,10.8073,11.1031,11.4094,11.5699,11.8876,12.2571,12.2915,12.3087,12.3087,12.3087,12.3087,12.3087,12.3087,12.3087,12.3087,12.3087,12.3087,12.3087,12.3087,12.3087,12.3087,12.3087,12.3087,12.3087,12.3087,12.3087,12.3087,12.3087,12.3087,12.3087,12.3087,12.3087,12.3087,12.3087,12.3087,12.3087,12.3087,12.3087,12.3087,12.3087,12.3087,12.3431,12.4287,12.4921,12.577,12.7096,12.8393,12.9046,13.0442,13.3311,1.0096,1.2013,1.298,1.3308,1.3884,1.459,1.4744,1.4566,1.8661,2.081,2.2031,2.7086,3.004,3.2539,3.7946,4.3333,4.7236,4.8367,4.8367,4.8367,4.8367,4.8367,4.8367,4.8367,4.879,4.9424,5.0461,5.2146,5.4038,5.653,5.8222,5.9888,6.3803,6.6686,6.9119,7.3015,7.6307,7.8236,8.0042,8.1519,8.2275,8.314,8.4097,8.5271,8.5394,8.5394,8.5394,8.5394,8.6439,8.8521,9.0733,9.3202,9.5485,9.7553,9.8399,9.853,9.8423,9.7888,9.714,9.6427,9.607,9.7415,10.0116,10.2705,10.5495,10.8847,11.1617,11.342,11.5877,11.8876,12.2571,12.3087,12.3087,12.3087,12.3087,12.3087,12.3087,12.3087,12.3087,12.3087,12.3087,12.3087,12.3087,12.3087,12.3087,12.3087,12.3087,12.3087,12.3087,12.3087,12.3087,12.3087,12.3087,12.3087,12.3087,12.3087,12.3087,12.3087,12.3087,12.3087,12.3087,12.3087,12.3087,12.3087,12.3087,12.3431,12.3945,12.4799,12.5601,12.6447,12.7954,12.9383,13.1172,13.3034,13.5278,1.5162,1.6599,2.1071,2.1001,1.882,2.1563,2.1151,1.9246,2.3333,2.6007,2.7935,3.2559,3.6091,3.8577,4.3171,4.6142,4.8155,4.8367,4.8367,4.8367,4.8367,4.8367,4.8578,4.879,4.9424,5.1093,5.1936,5.4017,5.6552,5.8222,5.9495,6.1573,6.5065,6.7917,7.0955,7.4635,7.7686,7.9751,8.1011,8.1812,8.2769,8.3202,8.4066,8.5085,8.5363,8.5394,8.5394,8.5603,8.6439,8.8521,9.0766,9.4021,9.6944,9.8601,9.8601,9.853,9.7924,9.7446,9.6858,9.6302,9.7452,10.1475,10.2705,10.4939,10.8664,11.0892,11.252,11.4094,11.6054,11.8876,12.2399,12.3087,12.3087,12.3087,12.3087,12.3087,12.3087,12.3087,12.3087,12.3087,12.3087,12.3087,12.3087,12.3087,12.3087,12.3087,12.3087,12.3087,12.3087,12.3087,12.3087,12.3087,12.3087,12.3087,12.3087,12.3087,12.3087,12.3087,12.3087,12.3087,12.3087,12.3087,12.3087,12.3259,12.3602,12.3945,12.4628,12.5309,12.6326,12.7289,12.8736,13.0569,13.2867,13.5447,13.6364,2.0446,2.1681,2.4032,2.4019,2.2896,2.4595,2.4418,2.4004,2.8035,3.0836,3.3214,3.8145,4.1582,4.3627,4.6142,4.7732,4.8367,4.8367,4.8367,4.8367,4.8367,4.8367,4.8578,4.9635,5.0672,5.1936,5.4017,5.6112,5.8222,5.9703,6.0766,6.2035,6.6892,6.9936,7.1769,7.6652,7.9521,8.1149,8.1688,8.2151,8.2893,8.348,8.4344,8.4746,8.5209,8.5394,8.5603,8.6439,8.8281,9.0353,9.2586,9.5281,9.7958,9.8209,9.7995,9.7853,9.7247,9.702,9.794,9.7901,9.908,10.2409,10.4382,10.6787,10.8623,11.1073,11.2477,11.4451,11.6586,11.8876,12.2399,12.3087,12.3087,12.3087,12.3087,12.3087,12.3087,12.3087,12.3087,12.3087,12.3087,12.3087,12.3087,12.3087,12.3087,12.3087,12.3087,12.3087,12.3087,12.3087,12.3087,12.3087,12.3087,12.3087,12.3087,12.3087,12.3087,12.3087,12.3087,12.3087,12.3431,12.3431,12.3259,12.3602,12.4116,12.4457,12.5139,12.5988,12.6832,12.8462,13.0124,13.1831,13.4021,13.7223,13.8607,2.5347,2.6543,2.7329,2.7388,2.7138,2.7849,2.8116,2.8007,3.2845,3.6144,3.832,4.2516,4.5527,4.6848,4.7605,4.8257,4.822,4.8091,4.8183,4.822,4.8312,4.8578,4.9635,5.0672,5.2146,5.4017,5.697,5.8639,5.9495,6.0766,6.1828,6.2634,6.7712,7.1539,7.2379,7.7456,8.1349,8.1472,8.2028,8.2429,8.2862,8.3757,8.4437,8.4746,8.5147,8.5603,8.623,8.769,8.994,9.2381,9.4668,9.6741,9.8054,9.7888,9.7932,9.8279,9.7792,9.822,9.9912,10.0569,10.1292,10.3756,10.6066,10.7768,10.838,11.1242,11.3455,11.5165,11.694,11.9576,12.2399,12.3087,12.3087,12.3087,12.3087,12.3087,12.3087,12.3087,12.3087,12.3087,12.3087,12.3087,12.3087,12.3087,12.3087,12.3087,12.3087,12.3087,12.3087,12.3087,12.3087,12.3087,12.3087,12.3087,12.3087,12.3087,12.3087,12.3087,12.3087,12.3087,12.3945,12.4287,12.4581,12.4751,12.4751,12.5309,12.5988,12.6832,12.8079,13.0025,13.1797,13.3268,13.5315,13.9037,14.1141,2.9567,3.1003,3.4708,3.4332,3.192,3.5317,3.4799,3.379,3.8239,4.1386,4.3017,4.5178,4.6688,4.8137,4.7963,4.7852,4.7834,4.7558,4.7614,4.7907,4.8375,4.9405,5.0863,5.1936,5.4227,5.697,5.8014,5.9703,6.0766,6.1412,6.1828,6.3669,6.8532,7.1159,7.3393,7.8088,8.0919,8.1472,8.2028,8.2615,8.3232,8.3912,8.4653,8.5055,8.5333,8.6106,8.7658,8.8936,9.0766,9.4838,9.6944,9.8161,9.8459,9.7853,9.8586,10.0437,10.0229,10.045,10.2701,10.3063,10.3717,10.6396,10.7848,10.9203,11.1187,11.3437,11.5506,11.6984,11.8876,12.0667,12.2571,12.3087,12.3087,12.3087,12.3087,12.3087,12.3087,12.3087,12.3087,12.3087,12.3087,12.3087,12.3087,12.3087,12.3087,12.3087,12.3087,12.3087,12.3087,12.3087,12.3087,12.3087,12.3087,12.3087,12.3087,12.3087,12.3087,12.3087,12.3087,12.3602,12.4457,12.5431,12.577,12.577,12.5431,12.5601,12.6495,12.7911,12.9479,13.1029,13.2308,13.4222,13.5869,13.8685,14.1153,3.4486,3.536,3.6941,3.7054,3.6343,3.7915,3.8362,3.8331,4.0777,4.2922,4.4466,4.556,4.6607,4.765,4.7503,4.743,4.7412,4.7246,4.7393,4.7761,4.8154,4.96,5.1896,5.4877,5.653,5.8639,5.9703,6.0974,6.1828,6.1828,6.2841,6.5271,6.9324,7.2379,7.4433,7.892,8.1349,8.1472,8.2028,8.2707,8.3356,8.4035,8.4715,8.5209,8.4993,8.6064,8.8664,9.1179,9.385,9.6503,9.7958,9.9373,10.0837,9.994,10.0778,10.3587,10.2286,10.2875,10.5192,10.5695,10.6787,10.9295,11.0234,11.1593,11.3232,11.4397,11.6627,11.857,11.975,12.1188,12.2571,12.3087,12.3087,12.3087,12.3087,12.3087,12.3087,12.3087,12.3087,12.3087,12.3087,12.3087,12.3087,12.3087,12.3087,12.3087,12.3087,12.3087,12.3087,12.3087,12.3087,12.3087,12.3087,12.3087,12.3087,12.3087,12.3087,12.3087,12.3259,12.4116,12.5091,12.6447,12.6109,12.5601,12.5601,12.594,12.6832,12.8009,12.9497,13.0807,13.2609,13.407,13.503,13.6862,13.9239,3.7841,3.8062,3.8062,3.8441,3.8962,3.941,4.0188,4.1136,4.2126,4.3539,4.4819,4.5531,4.659,4.7154,4.7081,4.7007,4.6971,4.6879,4.7099,4.7748,4.8561,5.0206,5.2098,5.6257,5.8848,5.9495,6.0997,6.2243,6.3048,6.3462,6.4884,6.7917,7.1362,7.4231,7.648,7.9521,8.1149,8.1441,8.2028,8.2646,8.314,8.3727,8.4344,8.4808,8.4995,8.612,8.8344,9.2523,9.6021,9.8079,9.8705,10.0363,10.2352,10.1951,10.2976,10.5267,10.488,10.531,10.7747,10.8481,10.9228,11.114,11.1605,11.2871,11.4234,11.5209,11.7383,11.9401,12.0795,12.1708,12.2743,12.3087,12.3087,12.3087,12.3087,12.3087,12.3087,12.3087,12.3087,12.3087,12.3087,12.3087,12.3087,12.3087,12.3087,12.3087,12.3087,12.3087,12.3087,12.3087,12.3087,12.3087,12.3087,12.3087,12.3087,12.3087,12.3087,12.3087,12.3431,12.4287,12.5261,12.6736,12.6399,12.594,12.6784,12.6784,12.7337,12.7841,12.8558,12.9556,13.1737,13.4281,13.5011,13.5784,13.828,3.841,3.8441,3.8441,3.8647,3.9178,3.9994,4.0774,4.1726,4.3519,4.4695,4.5175,4.6263,4.7081,4.7044,4.6732,4.6603,4.6752,4.6493,4.6918,4.837,5.0601,5.2069,5.2404,5.6294,5.9427,6.0974,6.162,6.3462,6.5683,6.5889,6.8122,7.1159,7.4231,7.6278,7.7285,7.9721,8.1349,8.141,8.1997,8.2337,8.2522,8.3109,8.348,8.3777,8.5348,8.6824,8.8661,9.2156,9.5385,9.7389,9.9318,10.0974,10.2019,10.3245,10.5166,10.7899,10.75,10.8705,11.0711,11.1073,11.114,11.0864,11.2106,11.3428,11.4154,11.6541,11.9114,12.0585,12.1881,12.2743,12.2915,12.3087,12.3087,12.3087,12.3087,12.3087,12.3087,12.3087,12.3087,12.3087,12.3087,12.3087,12.3087,12.3087,12.3087,12.3087,12.3087,12.3087,12.3087,12.3087,12.3087,12.3087,12.3087,12.3087,12.3087,12.3087,12.3087,12.3087,12.3259,12.3945,12.4799,12.6567,12.7241,12.7793,12.8343,12.8009,12.8009,12.8176,12.8736,12.9032,13.0817,13.3967,13.5491,13.621,13.7546,3.8378,3.8741,3.8552,3.9075,3.9978,4.0394,4.1476,4.283,4.3982,4.4968,4.5593,4.6143,4.6401,4.6364,4.6254,4.6181,4.6364,4.7442,4.9062,5.0913,5.245,5.3924,5.5572,5.7278,5.9363,6.1343,6.1828,6.3438,6.6506,6.6892,6.935,7.3826,7.5875,7.7285,7.9521,8.0719,8.1349,8.1379,8.1596,8.1966,8.2368,8.2646,8.3564,8.5064,8.5758,8.7759,9.1549,9.3611,9.5352,9.6624,9.8598,10.1674,10.4828,10.563,10.7315,10.9669,11.0333,11.0487,11.1436,11.1713,11.1416,11.1179,11.2845,11.4364,11.5392,11.786,12.0381,12.1754,12.2571,12.3087,12.3087,12.3087,12.3087,12.3087,12.3087,12.3087,12.3087,12.3087,12.3087,12.3087,12.3087,12.3087,12.3087,12.3087,12.3087,12.3087,12.3087,12.3087,12.3087,12.3087,12.3087,12.3087,12.3087,12.3087,12.3087,12.3087,12.3087,12.3087,12.3087,12.3602,12.4628,12.6567,12.7911,12.8295,12.8343,12.7673,12.755,12.7933,12.8276,12.8507,12.9037,13.1588,13.3732,13.4998,13.6491,3.8441,3.9115,3.9011,3.9456,4.056,4.1392,4.2458,4.3978,4.461,4.5138,4.5741,4.5942,4.5942,4.5942,4.5942,4.6344,4.7147,4.9951,5.1692,5.2763,5.3988,5.5627,5.7121,5.7867,5.9388,6.1082,6.1499,6.3888,6.7482,6.8301,7.1593,7.6681,7.7887,7.912,8.0919,8.1349,8.1349,8.1349,8.1946,8.2531,8.3,8.3664,8.4728,8.6384,8.6953,8.9338,9.3915,9.4857,9.5641,9.676,9.8445,10.1596,10.5663,10.7275,10.8786,11.0589,11.0949,11.0949,11.0949,11.0906,11.066,11.0951,11.2309,11.438,11.6468,11.8531,12.0601,12.2571,12.3087,12.3087,12.3087,12.3087,12.3087,12.3087,12.3087,12.3087,12.3087,12.3087,12.3087,12.3087,12.3087,12.3087,12.3087,12.3087,12.3087,12.3087,12.3087,12.3087,12.3087,12.3087,12.3087,12.3087,12.3087,12.3087,12.3087,12.3087,12.3087,12.3087,12.3134,12.3478,12.5091,12.6736,12.7576,12.796,12.7673,12.7409,12.7188,12.7417,12.751,12.7666,12.8225,12.9476,13.1119,13.3063,13.537,3.8678,3.913,3.9803,4.0248,4.1176,4.277,4.3778,4.4427,4.5321,4.5741,4.5741,4.5942,4.5942,4.5942,4.6143,4.7348,4.9751,5.3141,5.4156,5.3403,5.6603,5.7692,5.6992,5.8466,5.9726,6.042,6.0819,6.4497,7.0644,7.1539,7.4607,7.9921,8.0719,8.095,8.1349,8.1349,8.1349,8.1915,8.3305,8.4327,8.469,8.6333,8.7084,8.6976,8.9359,9.1993,9.4646,9.5036,9.5807,9.772,9.8931,10.144,10.5205,10.7632,10.8989,10.9208,10.9208,10.9165,10.9208,10.9293,10.9657,11.0365,11.1451,11.3799,11.6508,11.8354,12.0176,12.2417,12.3041,12.3087,12.3087,12.3041,12.2994,12.3087,12.3087,12.3087,12.3087,12.3087,12.3087,12.3087,12.3087,12.3087,12.3087,12.3087,12.3087,12.3087,12.3087,12.3087,12.3087,12.3087,12.3087,12.3087,12.3087,12.3087,12.3087,12.3087,12.3087,12.3087,12.3087,12.3774,12.5431,12.7695,12.8698,12.7807,12.7523,12.7583,12.7572,12.6637,12.6676,12.7765,12.7473,12.8191,13.0055,13.1907,13.3941,3.9298,4.0129,4.0001,4.104,4.2753,4.3367,4.4234,4.4976,4.5631,4.5942,4.5942,4.5942,4.5942,4.6143,4.7367,4.9951,5.3538,5.4928,5.5919,5.6733,5.8139,5.8616,5.8636,5.9105,5.9763,6.0209,6.0443,6.4155,7.0537,7.3629,7.7054,8.0919,8.1349,8.1349,8.1349,8.1349,8.2114,8.3305,8.4097,8.5283,8.6628,8.7413,8.8062,8.9485,9.1596,9.3176,9.3468,9.3967,9.5205,9.7324,9.9468,10.1825,10.3905,10.6651,10.8104,10.8189,10.8698,10.908,10.908,10.908,10.9358,11.0364,11.2398,11.4211,11.6312,11.9088,12.0958,12.1982,12.2667,12.3087,12.2994,12.2526,12.2433,12.2994,12.3087,12.3087,12.3087,12.3087,12.3087,12.3087,12.3087,12.3087,12.3087,12.3087,12.3087,12.3087,12.3087,12.3087,12.3087,12.3087,12.3087,12.3087,12.3087,12.3087,12.3087,12.3087,12.3087,12.2994,12.3119,12.4192,12.5892,12.8649,12.9778,12.8245,12.7804,12.7854,12.746,12.6251,12.6735,12.8166,12.7646,12.7216,12.9853,13.1203,13.2815,3.9338,4.0182,4.0722,4.2019,4.3552,4.4109,4.4632,4.5393,4.585,4.5942,4.5942,4.5942,4.6344,4.7147,5.0151,5.2942,5.5523,5.6512,5.7326,5.8533,5.8731,5.8895,5.92,5.9223,5.9786,6.1269,6.1662,6.5214,7.1738,7.4354,7.7495,8.0321,8.0947,8.1101,8.1287,8.1349,8.2313,8.4295,8.548,8.6628,8.8587,8.9563,9.0536,9.1929,9.3282,9.3611,9.3147,9.4436,9.5891,9.8031,10.0636,10.2748,10.4288,10.6259,10.7127,10.7212,10.7722,10.8061,10.8061,10.8061,10.8807,11.0654,11.246,11.4292,11.674,11.9005,12.0703,12.1124,12.1732,12.2012,12.1919,12.1498,12.1498,12.2386,12.2573,12.2713,12.2994,12.3087,12.3087,12.3087,12.3087,12.3087,12.3087,12.3087,12.3087,12.3087,12.3087,12.3087,12.3087,12.3087,12.3087,12.3087,12.3087,12.3087,12.3087,12.3087,12.2947,12.2931,12.3039,12.3796,12.3782,12.6004,12.7492,12.5918,12.643,12.674,12.6495,12.524,12.4685,12.5746,12.4993,12.5674,13.0408,13.117,13.235,3.8825,3.972,4.1644,4.2843,4.3412,4.4595,4.5556,4.5777,4.5905,4.5924,4.5887,4.5924,4.7329,4.9711,5.3517,5.5523,5.6117,5.7721,5.8533,5.8731,5.8731,5.8731,5.8928,5.8928,6.0674,6.3518,6.4146,6.7596,7.3886,7.4758,7.6653,8.004,8.0268,8.0607,8.1132,8.1424,8.248,8.4888,8.6857,8.8783,9.0925,9.2896,9.3667,9.3667,9.4053,9.4173,9.4222,9.6043,9.8255,10.005,10.2167,10.4153,10.6061,10.632,10.6577,10.645,10.632,10.632,10.6363,10.6577,10.8033,11.0951,11.1969,11.37,11.7683,11.8646,11.9161,11.9955,12.0049,12.0049,12.0142,12.0095,12.0469,12.1451,12.1591,12.1965,12.276,12.276,12.2994,12.2994,12.3041,12.3041,12.2994,12.3087,12.2947,12.2947,12.3041,12.3087,12.3087,12.3087,12.3087,12.3087,12.3087,12.3041,12.2947,12.2526,12.2246,12.2259,12.2128,12.2156,12.1738,12.1718,12.2877,12.3817,12.4751,12.5305,12.4996,12.4524,12.3706,12.2715,12.208,12.3878,12.8737,13.0445,13.2373,3.9055,3.9373,4.1523,4.3215,4.4374,4.4991,4.5244,4.5152,4.5685,4.5777,4.5556,4.7434,5.0189,5.311,5.4774,5.6512,5.7721,5.8533,5.8731,5.8731,5.8731,5.9888,6.1998,6.2193,6.3731,6.6259,6.7001,6.9351,7.3641,7.6477,7.8563,7.9331,7.9557,7.9897,8.0515,8.2153,8.4144,8.6758,8.8783,9.0925,9.2861,9.3667,9.386,9.4053,9.5935,9.6785,9.6232,9.8749,10.0897,10.2364,10.3581,10.4907,10.6233,10.6915,10.6957,10.632,10.6235,10.6235,10.6407,10.7563,10.922,11.1411,11.2914,11.4755,11.6938,11.8085,11.86,11.888,11.8272,11.8272,11.8787,11.8927,11.9441,12.0376,12.0563,12.061,12.103,12.1685,12.2059,12.2152,12.2573,12.29,12.2246,12.2059,12.2106,12.2199,12.2667,12.3087,12.3087,12.3087,12.3087,12.3087,12.3087,12.2526,12.1217,12.1124,12.1227,12.1188,12.181,12.2335,12.3138,12.3817,12.4588,12.2967,12.3568,12.3908,12.3532,12.3044,12.2263,12.1238,12.0467,12.1423,12.6249,12.6139,12.8748,3.9615,4.0528,4.1752,4.3158,4.4528,4.4932,4.4968,4.4981,4.6035,4.6506,4.6928,5.1044,5.4896,5.8137,5.9631,6.0896,6.209,6.2314,6.261,6.2585,6.261,6.3561,6.5067,6.5262,6.7007,6.9737,6.9929,7.1859,7.4987,7.7492,7.86,7.8847,7.8909,7.9606,8.1007,8.2207,8.4667,8.831,8.9702,9.1108,9.2778,9.2933,9.3325,9.4136,9.5793,9.6876,9.7376,9.9646,10.1347,10.2052,10.3278,10.4469,10.5131,10.5599,10.5683,10.5174,10.5089,10.5089,10.5089,10.6739,10.855,11.0831,11.2658,11.4698,11.68,11.7524,11.7898,11.7805,11.7337,11.7197,11.7805,11.7898,11.8319,11.9207,11.9488,11.9675,12.0049,12.0703,12.103,12.1077,12.1545,12.1638,12.1171,12.103,12.1217,12.1685,12.2106,12.2667,12.3041,12.3087,12.2994,12.262,12.2152,12.1358,12.0516,12.0142,12.0076,12.0201,12.0723,12.1052,12.1354,12.219,12.2581,12.2597,12.25,12.2321,12.1958,12.1873,12.1336,12.0653,11.9783,11.9235,12.271,12.2799,12.4768,4.0494,4.2278,4.2343,4.2972,4.4123,4.4509,4.4638,4.4796,4.686,4.8029,4.9442,5.5607,6.0022,6.3107,6.561,6.6504,6.6722,6.7593,6.7591,6.7591,6.7865,6.8085,6.8251,6.8333,7.0122,7.2835,7.3218,7.4612,7.7144,7.7364,7.7642,7.8167,7.8229,7.9499,8.1798,8.2439,8.4719,8.9332,8.9577,9.0148,9.1213,9.1365,9.2276,9.427,9.4635,9.5635,9.7552,9.9494,10.0648,10.0657,10.2425,10.3476,10.3476,10.3476,10.3476,10.3476,10.3476,10.3433,10.3643,10.51,10.7523,11.0092,11.1989,11.4033,11.6473,11.673,11.6683,11.6636,11.6636,11.6589,11.6823,11.6823,11.7244,11.8226,11.8366,11.874,11.9535,11.9908,12.0002,11.9955,12.0236,12.0095,12.0049,11.9955,12.0282,12.0937,12.1264,12.1732,12.2339,12.2526,12.2246,12.1404,12.0656,12.0002,11.9842,11.9982,11.9753,11.9214,11.9026,11.9236,11.9531,11.9312,11.9074,12.1341,12.105,12.1238,12.1215,12.1141,12.0311,11.9188,11.817,11.7505,11.9143,12.011,12.2207,4.0916,4.2134,4.2791,4.34,4.3701,4.4105,4.4087,4.4058,4.6803,5.0524,5.5022,5.8553,6.1947,6.462,6.5586,6.6234,6.6261,6.637,6.6424,6.6478,6.6912,6.8467,7.059,7.1457,7.3218,7.5944,7.6324,7.6703,7.7303,7.7303,7.7395,7.7519,7.7519,7.8811,8.1508,8.3031,8.5482,8.8438,8.9125,8.9534,8.9725,8.9725,9.0902,9.3413,9.5719,9.7829,9.9588,10.2319,10.3478,10.2764,10.3183,10.3433,10.3433,10.3433,10.3433,10.3433,10.3433,10.3433,10.36,10.638,10.893,11.0782,11.2604,11.4192,11.5561,11.5047,11.4579,11.4626,11.4673,11.5,11.5654,11.5795,11.6215,11.715,11.7291,11.7524,11.7711,11.8413,11.888,11.8974,11.9628,11.9721,11.9114,11.888,11.8974,11.9348,11.9955,12.0469,12.075,12.0797,12.0376,11.9535,11.9067,11.8812,11.8625,11.8578,11.9137,12.0359,12.0263,11.9959,12.0089,12.0634,12.1113,12.0601,12.0642,12.0387,11.9872,11.9432,11.8359,11.6602,11.6065,11.5681,11.5292,11.6897,12.0712,4.1246,4.2755,4.3327,4.3517,4.3536,4.3756,4.4311,4.5476,5.0825,5.6173,6.1077,6.3419,6.6216,6.8841,6.9446,6.9735,6.9764,7.0023,7.0138,7.0167,7.0513,7.1624,7.3151,7.3667,7.4785,7.6376,7.6654,7.6809,7.6839,7.7148,7.7303,7.7303,7.7303,7.8972,8.2123,8.4222,8.6482,8.8729,8.8367,8.8304,8.8805,8.9155,9.0694,9.3416,9.4919,9.69,9.9088,9.9984,10.0333,10.0249,9.9824,9.9824,10.0206,10.0249,10.0418,10.0843,10.0843,10.1169,10.1982,10.3715,10.6356,10.965,11.1948,11.3457,11.4018,11.3504,11.3411,11.3878,11.3925,11.4345,11.5327,11.5421,11.5841,11.687,11.6963,11.6963,11.7057,11.7524,11.7805,11.7852,11.8319,11.8459,11.7852,11.7805,11.7805,11.7898,11.874,11.9628,12.0095,11.9348,11.8459,11.7945,11.7805,11.7852,11.7593,11.7615,11.8103,11.8913,11.9074,11.9045,11.9049,11.964,11.9717,11.9441,11.9744,11.9579,11.914,11.8163,11.6894,11.4991,11.4747,11.3917,11.343,11.5268,11.9282,4.1643,4.337,4.3425,4.3444,4.3444,4.3499,4.4849,4.7673,5.5885,6.1918,6.604,6.7939,7.0406,7.3257,7.3844,7.4122,7.4153,7.4678,7.4925,7.4925,7.5017,7.5079,7.5079,7.5172,7.5203,7.5233,7.582,7.6098,7.616,7.6685,7.6994,7.6994,7.6994,7.8844,8.2359,8.4833,8.6683,8.8335,8.7046,8.6803,8.7871,8.8748,9.0449,9.3265,9.3556,9.4673,9.7246,9.596,9.5451,9.6215,9.5493,9.5366,9.6045,9.6285,9.6455,9.708,9.725,9.8047,9.9691,10.0133,10.2611,10.7349,11.0372,11.1821,11.1541,11.1774,11.2382,11.3364,11.3364,11.3878,11.486,11.4906,11.528,11.6309,11.6496,11.6543,11.6449,11.6496,11.6543,11.673,11.6776,11.6823,11.701,11.7057,11.7057,11.715,11.7805,11.86,11.902,11.8132,11.7104,11.6963,11.6963,11.7127,11.729,11.7127,11.7359,11.7102,11.7333,11.7442,11.6978,11.7584,11.8136,11.7692,11.8188,11.8407,11.831,11.6797,11.5577,11.4942,11.4015,11.299,11.2648,11.4813,11.7487,4.1426,4.2599,4.2911,4.304,4.3076,4.3389,4.5608,4.9498,5.5676,0.0,0.0,6.7845,6.996,7.3226,7.335,7.3411,7.3411,7.3535,7.3566,7.3597,7.4153,7.443,7.4461,7.4956,7.5203,7.5203,7.5326,7.5388,7.5388,7.5511,7.5573,7.5573,7.5604,7.6683,7.9042,8.2509,8.4314,8.4449,8.4122,8.4745,8.6243,8.6429,8.8386,9.2381,9.2578,9.3437,9.5381,9.5196,9.5153,9.5281,9.5153,9.512,9.498,9.4937,9.4596,9.3901,9.4611,9.5796,9.7482,9.9629,10.233,10.5497,10.8286,10.911,10.738,10.8829,11.0278,11.1307,11.1354,11.1774,11.2803,11.2896,11.3317,11.4345,11.4439,11.4486,11.4486,11.4439,11.486,11.5514,11.5701,11.5982,11.6776,11.687,11.6963,11.6963,11.7104,11.7337,11.7431,11.715,11.6776,11.6776,11.6846,11.7149,11.7731,11.7799,11.7887,11.7725,11.7742,11.752,11.6868,11.7162,11.7692,11.7209,11.6722,11.6352,11.6162,11.5284,11.4161,11.3283,11.3478,11.3624,11.3039,11.4263,11.6155,4.1415,4.2378,4.2562,4.3735,0.0,4.579,4.8457,5.2833,5.7959,6.364,6.9508,6.9508,7.0426,7.2176,7.2176,7.2361,7.2701,7.267,7.2886,7.3226,7.3566,7.3751,7.3751,7.406,7.4183,7.4214,7.4214,7.4214,7.4214,7.4214,7.4728,7.5422,7.5635,7.6868,7.9741,8.1702,8.2746,8.2774,8.2852,8.4095,8.6423,8.7148,8.9142,9.286,9.3029,0.0,0.0,0.0,0.0,0.0,0.0,0.0,0.0,9.3202,9.2295,9.1639,9.0685,9.0924,9.277,9.4198,9.6678,10.0717,10.2787,10.3173,10.163,10.3921,10.6071,10.752,10.7661,10.8549,11.0559,11.1307,11.2008,11.3037,11.3598,11.3925,11.3925,11.3925,11.4112,11.4579,11.4626,11.4813,11.5374,11.5421,11.5608,11.6075,11.6169,11.6402,11.6776,11.6122,11.5421,11.5421,11.5743,11.6225,11.6498,11.6818,11.7218,11.6901,11.6377,11.5348,11.4398,11.4518,11.4743,11.4677,11.5005,11.4979,11.4841,11.4015,11.299,11.2014,11.1672,11.1428,11.1133,11.1245,11.2577,4.1734,4.3226,4.3301,4.5142,4.8012,4.9546,5.2918,5.7585,6.1701,6.6162,7.0439,7.091,7.1033,7.1126,7.1126,7.1435,7.196,7.1836,7.2114,7.2639,7.2516,7.2454,7.2454,7.2454,7.2454,7.2454,7.2454,7.2547,7.2639,7.2639,7.3591,7.5459,7.5427,7.7368,8.0868,0.0,0.0,0.0,8.2297,8.3998,8.7173,8.8433,9.0714,9.3696,9.3745,0.0,9.4432,9.3115,9.2648,9.3328,9.2691,0.0,0.0,0.0,0.0,0.0,0.0,0.0,0.0,0.0,0.0,0.0,9.5927,9.6254,9.6441,9.9059,10.149,10.3266,10.4014,10.5323,10.7661,10.8595,10.9577,11.0746,11.1634,11.2335,11.2709,11.2896,11.313,11.3317,11.3504,11.3691,11.3925,11.3925,11.4252,11.5,11.514,11.5514,11.6215,11.4953,11.3972,11.3925,11.4542,11.483,11.4547,11.4987,11.5267,11.4982,11.3802,11.264,11.1848,11.1669,11.1252,11.1489,11.2333,11.3029,11.3135,11.2355,11.1281,11.0696,10.9915,10.9085,10.8451,10.7621,10.8547,4.306,4.6271,4.6683,4.703,4.8073,5.5068,6.0341,6.4058,6.6122,6.7521,6.8436,6.9702,7.0632,7.1126,7.1126,7.1188,7.1219,7.0694,7.0477,7.0539,6.9952,6.9674,6.9674,6.9674,6.9674,6.9674,6.9674,6.9983,7.057,7.057,7.1715,7.4018,7.405,7.5923,7.9494,8.0599,8.1216,8.117,8.2611,8.4721,8.7321,8.9737,9.1829,9.3533,9.371,9.3328,9.2691,9.2436,9.2351,9.2478,9.2393,9.2266,9.2045,8.932,8.6495,0.0,8.1424,0.0,0.0,0.0,0.0,0.0,0.0,0.0,0.0,9.6254,9.803,9.9246,10.177,10.3126,10.2659,10.2705,10.3547,10.537,10.5744,10.6539,10.8268,10.9343,11.0232,11.112,11.2008,11.2943,11.3598,11.3925,11.3878,11.4018,11.3878,11.3691,11.4112,11.3785,11.3504,11.3925,11.4084,11.3446,11.2789,11.2661,11.2475,11.1469,11.1091,11.0665,11.0372,10.9466,10.9141,10.9586,10.9393,10.9138,10.9817,10.9085,10.8646,10.928,10.8988,10.7963,10.5717,10.4839,10.6287,4.2208,4.3982,4.6113,4.9572,5.3785,5.9512,6.2038,6.2379,6.5281,6.7005,6.7506,6.8148,6.8624,6.8871,6.8871,6.9088,6.9427,6.9149,6.9458,7.0138,6.986,6.9921,7.023,6.9891,6.9705,6.9705,6.8933,6.8717,6.8995,6.9632,7.113,7.3686,7.4525,7.5422,7.6348,7.7285,7.8816,8.1094,8.2254,8.5073,8.9342,9.0639,9.2305,9.4279,9.4432,9.4219,9.3837,9.3328,9.303,9.303,9.2606,9.167,9.0345,8.7383,8.4012,0.0,0.0,0.0,0.0,0.0,0.0,0.0,0.0,0.0,0.0,0.0,9.1439,9.2467,9.6908,9.9059,9.7469,9.9386,10.0415,9.962,10.0555,10.163,10.2518,10.4575,10.6071,10.6539,10.7941,10.9297,11.0325,11.0465,11.1073,11.2803,11.0559,10.8736,10.8782,10.925,10.9624,10.9624,11.0091,11.0432,11.0517,11.1062,11.1447,11.0737,10.977,10.8857,10.8142,10.7375,10.6943,10.7661,10.799,10.7983,10.8261,10.7963,10.7572,10.7279,10.562,10.357,10.2057,10.1764,10.3325,4.3624,4.551,4.7444,5.1778,5.7529,6.221,6.2998,6.1616,6.5093,6.6697,6.7111,6.742,6.7182,6.6416,6.6105,6.6509,6.7306,6.7121,6.7895,6.918,6.9057,6.9242,6.9674,6.9211,6.8995,6.8902,6.806,6.7626,6.7574,6.8534,7.0253,7.2401,7.3706,7.4035,7.3326,7.4186,7.681,8.0682,8.1885,8.4973,9.0301,9.1077,9.2354,9.4389,9.4389,9.4389,9.4389,9.371,9.3328,9.3285,9.1947,9.0196,8.7972,8.4267,0.0,0.0,0.0,0.0,0.0,0.0,0.0,0.0,0.0,7.6152,7.7695,0.0,8.4636,0.0,9.1579,9.4431,9.3589,9.5693,0.0,0.0,9.4945,9.5833,9.6301,9.9106,10.1163,10.163,10.3453,10.5183,10.6445,10.6585,10.752,10.9717,10.6959,10.4435,10.3967,10.4949,10.5697,10.5604,10.5978,10.6555,10.7293,10.8615,10.9154,10.9437,10.7799,10.6456,10.5637,10.4688,10.4072,10.4679,10.5532,10.595,10.5677,10.5766,10.5376,10.4546,10.2008,9.9665,9.9665,9.9714,10.1034,5.0479,5.6519,5.3908,5.3565,5.5091,6.174,6.5176,6.6139,6.7949,6.8285,6.7173,6.8439,6.7222,6.4396,6.3714,0.0,6.5307,6.468,6.5148,6.6401,6.5783,6.5505,6.5567,6.5536,6.5505,6.5505,6.6283,6.6441,6.6347,6.7295,6.8229,6.9198,6.9404,7.0115,7.1085,7.2955,7.5977,7.9861,8.1428,8.4277,8.8553,9.0977,9.2371,9.2563,9.2521,9.2563,9.2521,9.2478,9.2436,9.2309,8.9428,8.689,8.4928,0.0,0.0,0.0,0.0,0.0,0.0,0.0,0.0,0.0,0.0,0.0,0.0,0.0,0.0,8.3281,8.653,0.0,9.2187,9.0177,0.0,0.0,0.0,8.781,8.9677,9.2701,9.5319,9.7189,0.0,0.0,10.3266,10.35,10.364,10.3874,10.4295,10.3921,10.2144,10.3406,10.4388,10.3598,10.2802,10.2429,10.3281,10.3564,10.4127,10.529,10.3867,10.2871,10.2631,10.1202,9.9823,10.0005,10.0158,10.0544,10.0397,10.0593,10.03,10.0349,9.986,9.9616,9.9519,9.9519,10.0402,4.8641,5.4877,5.1049,5.161,5.5014,5.8353,6.0823,6.2503,6.3766,6.4026,6.3433,6.3558,6.233,6.0225,5.8833,0.0,0.0,0.0,6.2724,6.4899,6.5055,6.5613,6.6215,6.5876,6.5721,6.5659,6.5647,6.6061,6.7074,6.7453,6.5395,6.1194,0.0,6.3211,6.517,6.9631,7.4438,7.9605,8.3372,8.6721,8.9742,9.1564,9.2309,9.2309,9.2309,9.2309,9.2309,9.1757,9.0501,8.8674,8.5691,8.206,0.0,0.0,0.0,0.0,0.0,0.0,0.0,0.0,0.0,0.0,0.0,6.6709,6.7972,0.0,0.0,0.0,7.6199,7.835,8.265,8.5362,0.0,0.0,0.0,0.0,0.0,0.0,0.0,8.9242,9.3496,9.7095,9.9106,9.8358,9.7797,9.8404,9.8778,9.8916,9.853,0.0,10.0737,10.0973,10.0815,10.0799,10.1143,10.0874,10.1196,10.2899,10.2388,10.1501,10.0871,9.97,9.899,9.9336,9.9568,9.9665,9.9665,9.8591,9.7713,9.7713,9.7713,9.7713,9.7713,9.7713,9.8424,4.5124,0.0,0.0,0.0,0.0,5.4239,5.6215,5.8248,5.9306,5.9535,5.9072,5.8757,0.0,0.0,0.0,0.0,0.0,0.0,6.0383,6.2969,6.4022,6.5055,6.5919,6.5484,6.5143,6.4926,6.468,6.4919,6.5278,6.4052,6.0342,5.4643,0.0,0.0,0.0,0.0,7.2606,7.9033,8.4301,8.8004,9.0294,9.112,9.1459,9.1502,9.1459,9.1459,9.1459,8.9949,8.7764,8.4971,8.0898,0.0,0.0,0.0,0.0,0.0,0.0,0.0,0.0,0.0,0.0,0.0,0.0,0.0,0.0,0.0,0.0,0.0,0.0,0.0,7.4797,7.9986,8.1181,0.0,0.0,0.0,0.0,0.0,0.0,0.0,0.0,0.0,9.221,9.2538,9.3147,0.0,0.0,9.5491,9.554,9.6844,9.7877,9.8286,9.8486,0.0,9.8653,9.8481,9.874,10.0205,10.0441,9.9906,9.8494,9.7215,9.6553,9.7147,9.7742,9.7751,9.6748,9.5055,9.4046,9.4243,9.4216,9.4068,9.4413,9.4462,9.5186,0.0,0.0,0.0,0.0,4.699,0.0,0.0,0.0,5.6093,5.5923,0.0,5.5186,0.0,0.0,0.0,0.0,5.3264,5.5385,0.0,0.0,6.1999,6.3186,6.3265,6.3203,6.2826,6.2252,6.2964,6.2175,5.9932,5.5548,5.2661,0.0,0.0,0.0,0.0,0.0,7.0305,7.7831,8.337,8.7094,8.9361,8.9506,8.9549,8.9549,8.9549,8.9506,8.9379,8.6537,8.4028,8.1927,7.5141,0.0,0.0,0.0,0.0,0.0,0.0,0.0,0.0,0.0,0.0,0.0,0.0,0.0,0.0,0.0,0.0,0.0,0.0,0.0,0.0,7.3862,0.0,0.0,0.0,0.0,0.0,0.0,0.0,0.0,0.0,8.309,8.1851,8.6524,9.0459,9.1669,0.0,0.0,0.0,0.0,9.6991,9.5714,9.5663,9.5619,9.5044,9.5416,9.5955,9.657,0.0,0.0,9.525,9.2704,9.1224,9.1612,9.3047,9.3104,8.9528,8.8334,8.8164,8.9015,8.8794,8.872,8.9627,9.0081,9.0606,0.0,0.0,0.0,0.0,0.0,0.0,0.0,0.0,0.0,4.9135,4.8859,4.8828,0.0,0.0,0.0,0.0,0.0,0.0,0.0,0.0,5.8171,5.9459,6.04,5.9813,5.9464,5.9147,5.8637,5.5738,0.0,0.0,0.0,0.0,0.0,0.0,0.0,0.0,7.1586,7.7816,8.4696,8.851,8.9421,8.9421,8.9421,8.9421,8.9421,8.812,8.5512,8.2317,7.8511,0.0,0.0,0.0,0.0,0.0,0.0,0.0,0.0,0.0,0.0,0.0,0.0,0.0,0.0,0.0,0.0,0.0,0.0,0.0,0.0,0.0,0.0,0.0,7.1945,0.0,0.0,0.0,0.0,0.0,0.0,0.0,0.0,0.0,7.7794,8.2747,8.7325,8.9874,9.1525,9.3232,9.504,0.0,0.0,0.0,0.0,0.0,0.0,0.0,9.6259,9.5272,9.4171,9.2704,9.0692,8.8436,8.726,8.8572,0.0,0.0,8.3769,8.3424,8.3729,8.3579,8.4036,8.4494,8.4902,8.577,8.6898,0.0,0.0,0.0,0.0,0.0,0.0,0.0,0.0,0.0,4.3578,4.3805,0.0,0.0,0.0,0.0,0.0,0.0,0.0,0.0,0.0,0.0,0.0,5.6739,5.6096,0.0,0.0,0.0,0.0,0.0,0.0,0.0,0.0,0.0,0.0,0.0,0.0,7.1837,7.7945,8.5522,8.9421,8.9421,8.9421,8.9421,8.9421,8.9421,8.7495,8.3342,0.0,0.0,0.0,0.0,0.0,0.0,0.0,0.0,0.0,0.0,0.0,0.0,0.0,0.0,0.0,0.0,0.0,0.0,0.0,0.0,0.0,0.0,0.0,0.0,0.0,6.8345,0.0,0.0,0.0,0.0,0.0,0.0,0.0,0.0,0.0,0.0,7.9029,8.3961,8.7167,8.9954,9.2737,9.5571,9.6679,9.816,0.0,0.0,0.0,0.0,0.0,0.0,0.0,0.0,0.0,0.0,0.0,0.0,0.0,8.2364,7.957,7.705,7.7107,7.7444,7.7302,0.0,0.0,0.0,0.0,0.0,0.0,0.0,0.0,0.0,0.0,0.0,0.0,0.0,0.0,0.0,3.9993,0.0,0.0,3.746,0.0,0.0,0.0,0.0,0.0,0.0,0.0,0.0,0.0,0.0,0.0,0.0,0.0,0.0,0.0,0.0,0.0,0.0,0.0,0.0,0.0,0.0,7.0901,7.8212,8.5515,8.9336,8.9336,8.9336,8.9294,8.9294,8.9294,8.7325,8.3085,0.0,0.0,0.0,0.0,0.0,0.0,0.0,0.0,0.0,0.0,0.0,0.0,0.0,0.0,0.0,0.0,0.0,0.0,0.0,0.0,0.0,0.0,0.0,0.0,0.0,0.0,6.498,6.7411,6.8018,0.0,0.0,0.0,0.0,0.0,0.0,0.0,0.0,0.0,8.335,8.9008,9.3418,9.4848,9.7399,9.9247,9.9689,10.1264,10.1956,10.0277,10.1491,10.138,0.0,0.0,0.0,0.0,0.0,0.0,0.0,0.0,0.0,0.0,0.0,0.0,0.0,0.0,0.0,0.0,0.0,0.0,0.0,0.0,0.0,0.0,0.0,0.0,0.0,0.0,0.0,0.0,0.0,0.0,0.0,0.0,0.0,0.0,0.0,0.0,0.0,0.0,0.0,0.0,0.0,0.0,0.0,0.0,0.0,0.0,0.0,0.0,0.0,0.0,0.0,0.0,0.0,0.0,6.9871,7.6301,8.3689,8.751,8.751,8.7468,8.751,8.7468,8.6612,8.3947,0.0,0.0,0.0,0.0,0.0,0.0,0.0,0.0,0.0,0.0,0.0,0.0,0.0,0.0,0.0,0.0,0.0,0.0,0.0,0.0,0.0,0.0,0.0,0.0,0.0,0.0,0.0,0.0,6.7224,6.727,6.498,0.0,0.0,0.0,0.0,0.0,0.0,0.0,0.0,0.0,0.0,9.0421,9.4438,9.6504,9.8029,9.9502,10.2344,10.3724,10.1981,10.3881,10.3468,9.7367,0.0,0.0,0.0,0.0,0.0,0.0,0.0,0.0,0.0,0.0,0.0,0.0,0.0,0.0,0.0,0.0,0.0,0.0,0.0,0.0,0.0,0.0,0.0,0.0,0.0,0.0,0.0,0.0,0.0,0.0,0.0,0.0,0.0,0.0,0.0,0.0,0.0,0.0,0.0,0.0,0.0,0.0,0.0,0.0,0.0,0.0,0.0,0.0,0.0,0.0,0.0,0.0,0.0,6.9113,7.4942,8.267,8.6661,8.6661,8.6661,8.6661,8.6661,8.5042,8.1672,0.0,0.0,0.0,0.0,0.0,0.0,0.0,0.0,0.0,0.0,0.0,0.0,0.0,0.0,0.0,0.0,0.0,0.0,0.0,0.0,0.0,0.0,0.0,0.0,0.0,0.0,0.0,0.0,6.311,6.3998,6.3708,0.0,0.0,0.0,0.0,0.0,0.0,0.0,0.0,0.0,0.0,8.9275,9.2712,9.5297,0.0,0.0,10.0839,10.2332,10.1582,10.3896,10.3279,9.6086,9.226,0.0,0.0,0.0,0.0,0.0,0.0,0.0,0.0,0.0,0.0,0.0,0.0,0.0,0.0,0.0,0.0,0.0,0.0,0.0,0.0,0.0,0.0,0.0,0.0,0.0,0.0,0.0,0.0,0.0,0.0,0.0,0.0,0.0,0.0,0.0,0.0,0.0,0.0,0.0,0.0,0.0,0.0,0.0,0.0,0.0,0.0,0.0,0.0,0.0,0.0,0.0,0.0,6.8234,7.3838,8.2118,8.6407,8.6491,8.6491,8.6449,8.6364,8.4279,8.0208,0.0,0.0,0.0,0.0,0.0,0.0,0.0,0.0,0.0,0.0,0.0,0.0,0.0,0.0,0.0,0.0,0.0,0.0,0.0,0.0,0.0,0.0,0.0,0.0,0.0,0.0,0.0,0.0,0.0,0.0,0.0,0.0,0.0,0.0,0.0,0.0,0.0,0.0,0.0,0.0,0.0,8.9493,9.0179,9.3842,9.6499,0.0,9.7395,9.8692,9.9291,10.174,10.1119,9.384,0.0,0.0,0.0,0.0,0.0,0.0,0.0,0.0,0.0,0.0,0.0,0.0,0.0,0.0,0.0,0.0,0.0,0.0,0.0,0.0,0.0,0.0,0.0,0.0,0.0,0.0,0.0,0.0,0.0,0.0,0.0,0.0,0.0,0.0,0.0,0.0,0.0,0.0,0.0,0.0,0.0,0.0,0.0,0.0,0.0,0.0,0.0,0.0,0.0,0.0,0.0,0.0,0.0,0.0,7.0993,7.9231,8.3859,8.4581,8.4623,8.4241,8.3477,8.1156,0.0,0.0,0.0,0.0,0.0,0.0,0.0,0.0,0.0,0.0,0.0,0.0,0.0,0.0,0.0,0.0,0.0,0.0,0.0,0.0,0.0,0.0,0.0,0.0,0.0,0.0,0.0,4.8223,0.0,0.0,0.0,0.0,0.0,0.0,0.0,0.0,0.0,0.0,0.0,0.0,0.0,0.0,8.7102,9.0002,9.1744,9.303,0.0,0.0,9.5933,9.5417,9.7926,9.7677,0.0,0.0,0.0,0.0,0.0,0.0,0.0,0.0,0.0,0.0,0.0,0.0,0.0,0.0,0.0,0.0,0.0,0.0,0.0,0.0,0.0,0.0,0.0,0.0,0.0,0.0,0.0,0.0,0.0,0.0,0.0,0.0,0.0,0.0,0.0,0.0,0.0,0.0,0.0,0.0,0.0,0.0,0.0,0.0,0.0,0.0,0.0,0.0,0.0,0.0,0.0,0.0,0.0,0.0,6.4333,6.9674,7.6935,8.1311,8.2628,8.267,8.2415,8.1863,7.8959,7.4894,0.0,0.0,0.0,0.0,0.0,0.0,0.0,0.0,0.0,0.0,0.0,0.0,0.0,0.0,0.0,0.0,0.0,0.0,0.0,0.0,0.0,0.0,0.0,0.0,0.0,0.0,0.0,0.0,0.0,0.0,0.0,0.0,0.0,0.0,0.0,0.0,0.0,0.0,0.0,0.0,0.0,0.0,8.6934,8.8071,0.0,0.0,0.0,9.1312,9.0915,0.0,0.0,0.0,0.0,0.0,0.0,0.0,0.0,0.0,0.0,0.0,0.0,0.0,0.0,0.0,0.0,0.0,0.0,0.0,0.0,0.0,0.0,0.0,0.0,0.0,0.0,0.0,0.0,0.0,0.0,0.0,0.0,0.0,0.0,0.0,0.0,0.0,0.0,0.0,0.0,0.0,0.0,0.0,0.0,0.0,0.0,0.0,0.0,0.0,0.0,0.0,0.0,0.0,0.0,0.0,0.0,0.0,6.898,7.5057,7.9061,8.0929,8.0929,8.0759,8.0505,7.7365,7.3129,0.0,0.0,0.0,0.0,0.0,0.0,0.0,0.0,0.0,0.0,0.0,0.0,0.0,0.0,0.0,0.0,0.0,0.0,0.0,0.0,0.0,0.0,0.0,0.0,0.0,0.0,0.0,0.0,0.0,0.0,0.0,0.0,0.0,0.0,0.0,0.0,0.0,0.0,0.0,0.0,0.0,8.1785,8.2874,8.3662,8.3358,0.0,0.0,8.5907,8.6075,8.6136,0.0,0.0,0.0,0.0,0.0,0.0,0.0,0.0,0.0,0.0,0.0,0.0,0.0,0.0,0.0,0.0,0.0,0.0,0.0,0.0,0.0,0.0,0.0,0.0,0.0,0.0,0.0,0.0,0.0,0.0,0.0,0.0,0.0,0.0,0.0,0.0,0.0,0.0,0.0,0.0,0.0,0.0,0.0,0.0,0.0,0.0,0.0,0.0,0.0,0.0,0.0,0.0,0.0,0.0,0.0,0.0,6.8145,7.4196,7.8551,8.0887,8.0335,7.9273,7.7828,7.5325,7.1188,0.0,0.0,0.0,0.0,0.0,0.0,0.0,0.0,0.0,0.0,0.0,0.0,0.0,0.0,0.0,0.0,0.0,0.0,0.0,0.0,0.0,0.0,0.0,0.0,0.0,0.0,0.0,0.0,0.0,0.0,0.0,0.0,0.0,0.0,0.0,0.0,0.0,0.0,0.0,0.0,0.0,7.9598,8.1754,8.1143,0.0,0.0,0.0,0.0,8.2617,8.112,0.0,0.0,0.0,0.0,0.0,0.0,0.0,0.0,0.0,0.0,0.0,0.0,0.0,0.0,0.0,0.0,0.0,0.0,0.0,0.0,0.0,0.0,0.0,0.0,0.0,0.0,0.0,0.0,0.0,0.0,0.0,0.0,0.0,0.0,0.0,0.0,0.0,0.0,0.0,0.0,0.0,0.0,0.0,0.0,0.0,0.0,0.0,0.0,0.0,0.0,0.0,0.0,0.0,0.0,0.0,0.0,6.7348,7.1767,7.5433,7.8212,7.749,7.6513,7.5537,7.3835,6.9913,0.0,0.0,0.0,0.0,0.0,0.0,0.0,0.0,0.0,0.0,0.0,0.0,0.0,0.0,0.0,0.0,0.0,0.0,0.0,0.0,0.0,0.0,0.0,0.0,0.0,0.0,0.0,0.0,0.0,0.0,0.0,0.0,0.0,0.0,0.0,0.0,0.0,0.0,0.0,0.0,7.3751,7.6008,7.7927,0.0,0.0,0.0,0.0,0.0,0.0,7.7363,7.5331,0.0,0.0,0.0,0.0,0.0,0.0,0.0,0.0,0.0,0.0,0.0,0.0,0.0,0.0,0.0,0.0,0.0,0.0,0.0,0.0,0.0,0.0,0.0,0.0,0.0,0.0,0.0,0.0,0.0,0.0,0.0,0.0,0.0,0.0,0.0,0.0,0.0,0.0,0.0,0.0,0.0,0.0,0.0,0.0,0.0,0.0,0.0,0.0,0.0,0.0,0.0,0.0,0.0,0.0,0.0,6.6341,6.916,7.1952,7.5021,7.439,7.3923,7.3584,7.2307,6.8772,6.2628,0.0,0.0,0.0,0.0,0.0,0.0,0.0,0.0,0.0,0.0,0.0,0.0,0.0,0.0,0.0,0.0,0.0,0.0,0.0,0.0,0.0,0.0,0.0,0.0,0.0,0.0,0.0,0.0,0.0,0.0,0.0,0.0,0.0,0.0,0.0,0.0,0.0,0.0,0.0,7.0422,7.2002,0.0,0.0,0.0,0.0,0.0,0.0,0.0,0.0,7.1946,0.0,0.0,0.0,0.0,0.0,0.0,0.0,0.0,0.0,0.0,0.0,0.0,0.0,0.0,0.0,0.0,0.0,0.0,0.0,0.0,0.0,0.0,0.0,0.0,0.0,0.0,0.0,0.0,0.0,0.0,0.0,0.0,0.0,0.0,0.0,0.0,0.0,0.0,0.0,0.0,0.0,0.0,0.0,0.0,0.0,0.0,0.0,0.0,0.0,0.0,0.0,0.0,0.0,0.0,0.0,0.0,6.7628,7.0823,7.3653,7.3992,7.3329,7.1758,7.0384,6.6844,6.0914,0.0,0.0,0.0,0.0,0.0,0.0,0.0,0.0,0.0,0.0,0.0,0.0,0.0,0.0,0.0,0.0,0.0,0.0,0.0,0.0,0.0,0.0,0.0,0.0,0.0,0.0,0.0,0.0,0.0,0.0,0.0,0.0,0.0,0.0,0.0,0.0,0.0,0.0,6.0889,6.4949,0.0,0.0,0.0,0.0,0.0,0.0,0.0,0.0,6.9463,0.0,0.0,0.0,0.0,0.0,0.0,0.0,0.0,0.0,0.0,0.0,0.0,0.0,0.0,0.0,0.0,0.0,0.0,0.0,0.0,0.0,0.0,0.0,0.0,0.0,0.0,0.0,0.0,0.0,0.0,0.0,0.0,0.0,0.0,0.0,0.0,0.0,0.0,0.0,0.0,0.0,0.0,0.0,0.0,0.0,0.0,0.0,0.0,0.0,0.0,0.0,0.0,0.0,0.0,0.0,0.0,0.0,0.0,6.8362,7.1952,7.2038,7.1823,7.135,6.9094,6.5767,0.0,0.0,0.0,0.0,0.0,0.0,0.0,0.0,0.0,0.0,0.0,0.0,0.0,0.0,0.0,0.0,0.0,0.0,0.0,0.0,0.0,0.0,0.0,0.0,0.0,0.0,0.0,0.0,0.0,0.0,0.0,0.0,0.0,0.0,0.0,0.0,0.0,0.0,0.0,0.0,0.0,0.0,0.0,0.0,0.0,0.0,0.0,0.0,0.0,0.0,0.0,0.0,0.0,0.0,0.0,0.0,0.0,0.0,0.0,0.0,0.0,0.0,0.0,0.0,0.0,0.0,0.0,0.0,0.0,0.0,0.0,0.0,0.0,0.0,0.0,0.0,0.0,0.0,0.0,0.0,0.0,0.0,0.0,0.0,0.0,0.0,0.0,0.0,0.0,0.0,0.0,0.0,0.0,0.0,0.0,0.0,0.0,0.0,0.0,0.0,0.0,0.0,0.0,0.0,0.0,0.0,0.0,0.0,6.602,7.0268,7.0378,7.0816,7.1561,6.8478,6.4999,0.0,0.0,0.0,0.0,0.0,0.0,0.0,0.0,0.0,0.0,0.0,0.0,0.0,0.0,0.0,0.0,0.0,0.0,0.0,0.0,0.0,0.0,0.0,0.0,0.0,0.0,0.0,0.0,0.0,0.0,0.0,0.0,0.0,0.0,0.0,0.0,0.0,0.0,0.0,0.0,0.0,0.0,0.0,0.0,0.0,0.0,0.0,0.0,6.5231,0.0,0.0,0.0,0.0,0.0,0.0,0.0,0.0,0.0,0.0,0.0,0.0,0.0,0.0,0.0,0.0,0.0,0.0,0.0,0.0,0.0,0.0,0.0,0.0,0.0,0.0,0.0,0.0,0.0,0.0,0.0,0.0,0.0,0.0,0.0,0.0,0.0,0.0,0.0,0.0,0.0,0.0,0.0,0.0,0.0,0.0,0.0,0.0,0.0,0.0,0.0,0.0,0.0,0.0,0.0,0.0,0.0,0.0,0.0,6.5021,6.9133,7.0687,7.1607,7.171,6.8656,6.4207,0.0,0.0,0.0,0.0,0.0,0.0,0.0,0.0,0.0,0.0,0.0,0.0,0.0,0.0,0.0,0.0,0.0,0.0,0.0,0.0,0.0,0.0,0.0,0.0,0.0,0.0,0.0,0.0,0.0,0.0,0.0,0.0,0.0,0.0,0.0,0.0,0.0,0.0,0.0,0.0,0.0,0.0,0.0,0.0,0.0,0.0,0.0,0.0,0.0,0.0,0.0,0.0,0.0,0.0,0.0,0.0,0.0,0.0,0.0,0.0,0.0,0.0,0.0,0.0,0.0,0.0,0.0,0.0,0.0,0.0,0.0,0.0,0.0,0.0,0.0,0.0,0.0,0.0,0.0,0.0,0.0,0.0,0.0,0.0,0.0,0.0,0.0,0.0,0.0,0.0,0.0,0.0,0.0,0.0,0.0,0.0,0.0,0.0,0.0,0.0,0.0,0.0,0.0,0.0,0.0,0.0,0.0,0.0,6.2341,6.7259,6.946,7.0371,6.993,6.6511,6.2385,0.0,0.0,0.0,0.0,0.0,0.0,0.0,0.0,0.0,0.0,0.0,0.0,0.0,0.0,0.0,0.0,0.0,0.0,0.0,0.0,0.0,0.0,0.0,0.0,0.0,0.0,0.0,0.0,0.0,0.0,0.0,0.0,0.0,0.0,0.0,0.0,0.0,0.0,0.0,0.0,0.0,0.0,0.0,0.0,0.0,0.0,0.0,0.0,0.0,0.0,0.0,0.0,0.0,0.0,0.0,0.0,0.0,0.0,0.0,0.0,0.0,0.0,0.0,0.0,0.0,0.0,0.0,0.0,0.0,0.0,0.0,0.0,0.0,0.0,0.0,0.0,0.0,0.0,0.0,0.0,0.0,0.0,0.0,0.0,0.0,0.0,0.0,0.0,0.0,0.0,0.0,0.0,0.0,0.0,0.0,0.0,0.0,0.0,0.0,0.0,0.0,0.0,0.0,0.0,0.0,0.0,0.0,0.0,0.0,6.4954,6.7161,6.8042,6.7352,6.4145,6.0398,0.0,0.0,0.0,0.0,0.0,0.0,0.0,0.0,0.0,0.0,0.0,0.0,0.0,0.0,0.0,0.0,0.0,0.0,0.0,0.0,0.0,0.0,0.0,0.0,0.0,0.0,0.0,0.0,0.0,0.0,0.0,0.0,0.0,0.0,0.0,0.0,0.0,0.0,0.0,0.0,0.0,0.0,0.0,0.0,0.0,0.0,0.0,0.0,0.0,0.0,0.0,0.0,0.0,0.0,0.0,0.0,0.0,0.0,0.0,0.0,0.0,0.0,0.0,0.0,0.0,0.0,0.0,0.0,0.0,0.0,0.0,0.0,0.0,0.0,0.0,0.0,0.0,0.0,0.0,0.0,0.0,0.0,0.0,0.0,0.0,0.0,0.0,0.0,0.0,0.0,0.0,0.0,0.0,0.0,0.0,0.0,0.0,0.0,0.0,0.0,0.0,0.0,0.0,0.0,0.0,0.0,0.0,0.0,0.0,6.2645,6.3748,6.448,6.4842,6.1848,5.8248,0.0,0.0,0.0,0.0,0.0,0.0,0.0,0.0,0.0,0.0,0.0,0.0,0.0,0.0,0.0,0.0,0.0,0.0,0.0,0.0,0.0,0.0,0.0,0.0,0.0,0.0,0.0,0.0,0.0,0.0,0.0,0.0,0.0,0.0,0.0,0.0,0.0,0.0,0.0,0.0,0.0,0.0,0.0,0.0,0.0,0.0,0.0,0.0,0.0,0.0,0.0,0.0,0.0,0.0,0.0,0.0,0.0,0.0,0.0,0.0,0.0,0.0,0.0,0.0,0.0,0.0,0.0,0.0,0.0,0.0,0.0,0.0,0.0,0.0,0.0,0.0,0.0,0.0,0.0,0.0,0.0,0.0,0.0,0.0,0.0,0.0,0.0,0.0,0.0,0.0,0.0,0.0,0.0,0.0,0.0,0.0,0.0,0.0,0.0,0.0,0.0,0.0,0.0,0.0,0.0,0.0,0.0,0.0,0.0,5.8055,5.883,5.9853,6.1322,5.7992,5.5116,5.2891,0.0,0.0,0.0,0.0,0.0,0.0,0.0,0.0,0.0,0.0,0.0,0.0,0.0,0.0,0.0,0.0,0.0,0.0,0.0,0.0,0.0,0.0,0.0,0.0,0.0,0.0,0.0,0.0,0.0,0.0,0.0,0.0,0.0,0.0,0.0,0.0,0.0,0.0,0.0,0.0,0.0,0.0,0.0,0.0,0.0,0.0,0.0,0.0,0.0,0.0,0.0,0.0,0.0,0.0,0.0,0.0,0.0,0.0,0.0,0.0,0.0,0.0,0.0,0.0,0.0,0.0,0.0,0.0,0.0,0.0,0.0,0.0,0.0,0.0,0.0,0.0,0.0,0.0,0.0,0.0,0.0,0.0,0.0,0.0,0.0,0.0,0.0,0.0,0.0,0.0,0.0,0.0,0.0,0.0,0.0,0.0,0.0,0.0,0.0,0.0,0.0,0.0,0.0,0.0,0.0,0.0,0.0,0.0,5.4969,5.6057,5.7191,5.8361,5.5521,5.3312,0.0,0.0,0.0,0.0,0.0,0.0,0.0,0.0,0.0,0.0,0.0,0.0,0.0,0.0,0.0,0.0,0.0,0.0,0.0,0.0,0.0,0.0,0.0,0.0,0.0,0.0,0.0,0.0,0.0,0.0,0.0,0.0,0.0,0.0,0.0,0.0,0.0,0.0,0.0,0.0,0.0,0.0,0.0,0.0,0.0,0.0,0.0,0.0,0.0,0.0,0.0,0.0,0.0,0.0,0.0,0.0,0.0,0.0,0.0,0.0,0.0,0.0,0.0,0.0,0.0,0.0,0.0,0.0,0.0,0.0,0.0,0.0,0.0,0.0,0.0,0.0,0.0,0.0,0.0,0.0,0.0,0.0,0.0,0.0,0.0,0.0,0.0,0.0,0.0,0.0,0.0,0.0,0.0,0.0,0.0,0.0,0.0,0.0,0.0,0.0,0.0,0.0,0.0,0.0,0.0,0.0,0.0,0.0,5.0744,5.3732,5.5786,5.6892,5.6939,5.4929,5.3265,0.0,0.0,0.0,0.0,0.0,0.0,0.0,0.0,0.0,0.0,0.0,0.0,0.0,0.0,0.0,0.0,0.0,0.0,0.0,0.0,0.0,0.0,0.0,0.0,0.0,0.0,0.0,0.0,0.0,0.0,0.0,0.0,0.0,0.0,0.0,0.0,0.0,0.0,0.0,0.0,0.0,0.0,0.0,0.0,0.0,0.0,0.0,0.0,0.0,0.0,0.0,0.0,0.0,0.0,0.0,0.0,0.0,0.0,0.0,0.0,0.0,0.0,0.0,0.0,0.0,0.0,0.0,0.0,0.0,0.0,0.0,0.0,0.0,0.0,0.0,0.0,0.0,0.0,0.0,0.0,0.0,0.0,0.0,0.0,0.0,0.0,0.0,0.0,0.0,0.0,0.0,0.0,0.0,0.0,0.0,0.0,0.0,0.0,0.0,0.0,0.0,0.0,0.0,0.0,0.0,0.0,0.0,0.0,0.0,5.175,0.0,5.5209,5.577,5.3199,5.161,0.0,0.0,0.0,0.0,0.0,0.0,0.0,0.0,0.0,0.0,0.0,0.0,0.0,0.0,0.0,0.0,0.0,0.0,0.0,0.0,0.0,0.0,0.0,0.0,0.0,0.0,0.0,0.0,0.0,0.0,0.0,0.0,0.0,0.0,0.0,0.0,0.0,0.0,0.0,0.0,0.0,0.0,0.0,0.0,0.0,0.0,0.0,0.0,0.0,0.0,0.0,0.0,0.0,0.0,0.0,0.0,0.0,0.0,0.0,0.0,0.0,0.0,0.0,0.0,0.0,0.0,0.0,0.0,0.0,0.0,0.0,0.0,0.0,0.0,0.0,0.0,0.0,0.0,0.0,0.0,0.0,0.0,0.0,0.0,0.0,0.0,0.0,0.0,0.0,0.0,0.0,0.0,0.0,0.0,0.0,0.0,0.0,0.0,0.0,0.0,0.0,0.0,0.0,0.0,0.0,0.0,0.0,0.0,0.0,5.0815,5.2378,5.3918,5.5303,5.3106,5.1703,0.0,0.0,0.0,0.0,0.0,0.0,0.0,0.0,0.0,0.0,0.0,0.0,0.0,0.0,0.0,0.0,0.0,0.0,0.0,0.0,0.0,0.0,0.0,0.0,0.0,0.0,0.0,0.0,0.0,0.0,0.0,0.0,0.0,0.0,0.0,0.0,0.0,0.0,0.0,0.0,0.0,0.0,0.0,0.0,0.0,0.0,0.0,0.0,0.0,0.0,0.0,0.0,0.0,0.0,0.0,0.0,0.0,0.0,0.0,0.0,0.0,0.0,0.0,0.0,0.0,0.0,0.0,0.0,0.0,0.0,0.0,0.0,0.0,0.0,0.0,0.0,0.0,0.0,0.0,0.0,0.0,0.0,0.0,0.0,0.0,0.0,0.0,0.0,0.0,0.0,0.0,0.0,0.0,0.0,0.0,0.0,0.0,0.0,0.0,0.0,0.0,0.0,0.0,0.0,0.0,0.0,0.0,0.0,0.0,5.0722,5.175,5.3172,5.5116,5.4321,5.3218,0.0,0.0,0.0,0.0,0.0,0.0,0.0,0.0,0.0,0.0,0.0,0.0,0.0,0.0,0.0,0.0,0.0,0.0,0.0,0.0,0.0,0.0,0.0,0.0,0.0,0.0,0.0,0.0,0.0,0.0,0.0,0.0,0.0,0.0,0.0,0.0,0.0,0.0,0.0,0.0,0.0,0.0,0.0,0.0,0.0,0.0,0.0,0.0,0.0,0.0,0.0,0.0,0.0,0.0,0.0,0.0,0.0,0.0,0.0,0.0,0.0,0.0,0.0,0.0,0.0,0.0,0.0,0.0,0.0,0.0,0.0,0.0,0.0,0.0,0.0,0.0,0.0,0.0,0.0,0.0,0.0,0.0,0.0,0.0,0.0,0.0,0.0,0.0,0.0,0.0,0.0,0.0,0.0,0.0,0.0,0.0,0.0,0.0,0.0,0.0,0.0,0.0,0.0,0.0,0.0,0.0,0.0,0.0,0.0,0.0,5.1002,5.1843,5.3031,5.2845,5.2009,5.051,0.0,0.0,0.0,0.0,0.0,0.0,0.0,0.0,0.0,0.0,0.0,0.0,0.0,0.0,0.0,0.0,0.0,0.0,0.0,0.0,0.0,0.0,0.0,0.0,0.0,0.0,0.0,0.0,0.0,0.0,0.0,0.0,0.0,0.0,0.0,0.0,0.0,0.0,0.0,0.0,0.0,0.0,0.0,0.0,0.0,0.0,0.0,0.0,0.0,0.0,0.0,0.0,0.0,0.0,0.0,0.0,0.0,0.0,0.0,0.0,0.0,0.0,0.0,0.0,0.0,0.0,0.0,0.0,0.0,0.0,0.0,0.0,0.0,0.0,0.0,0.0,0.0,0.0,0.0,0.0,0.0,0.0,0.0,0.0,0.0,0.0,0.0,0.0,0.0,0.0,0.0,0.0,0.0,0.0,0.0,0.0,0.0,0.0,0.0,0.0,0.0,0.0,0.0,0.0,0.0,0.0,0.0,0.0,0.0,0.0,5.112,5.192,5.2342,5.1994,0.0,0.0,0.0,0.0,0.0,0.0,0.0,0.0,0.0,0.0,0.0,0.0,0.0,0.0,0.0,0.0,0.0,0.0,0.0,0.0,0.0,0.0,0.0,0.0,0.0,0.0,0.0,0.0,0.0,0.0,0.0,0.0,0.0,0.0,0.0,0.0,0.0,0.0,0.0,0.0,0.0,0.0,0.0,0.0,0.0,0.0,0.0,0.0,0.0,0.0,0.0,0.0,0.0,0.0,0.0,0.0,0.0,0.0,0.0,0.0,0.0,0.0,0.0,0.0,0.0,0.0,0.0,0.0,0.0,0.0,0.0,0.0,0.0,0.0,0.0,0.0,0.0,0.0,0.0,0.0,0.0,0.0,0.0,0.0,0.0,0.0,0.0,0.0,0.0,0.0,0.0,0.0,0.0,0.0,0.0,0.0,0.0,0.0,0.0,0.0,0.0,0.0,0.0,0.0,0.0,0.0,0.0,0.0,0.0,0.0,0.0,5.0793,5.1262,5.2066,0.0,5.2313,0.0,0.0,0.0,0.0,0.0,0.0,0.0,0.0,0.0,0.0,0.0,0.0,0.0,0.0,0.0,0.0,0.0,0.0,0.0,0.0,0.0,0.0,0.0,0.0,0.0,0.0,0.0,0.0,0.0,0.0,0.0,0.0,0.0,0.0,0.0,0.0,0.0,0.0,0.0,0.0,0.0,0.0,0.0,0.0,0.0,0.0,0.0,0.0,0.0,0.0,0.0,0.0,0.0,0.0,0.0,0.0,0.0,0.0,0.0,0.0,0.0,0.0,0.0,0.0,0.0,0.0,0.0,0.0,0.0,0.0,0.0,0.0,0.0,0.0,0.0,0.0,0.0,0.0,0.0,0.0,0.0,0.0,0.0,0.0,0.0,0.0,0.0,0.0,0.0,0.0,0.0,0.0,0.0,0.0,0.0,0.0,0.0,0.0,0.0,0.0,0.0,0.0,0.0,0.0,0.0,0.0,0.0,0.0,0.0,0.0,0.0,0.0,5.0039,5.0059,5.0789,0.0,0.0,0.0,0.0,0.0,0.0,0.0,0.0,0.0,0.0,0.0,0.0,0.0,0.0,0.0,0.0,0.0,0.0,0.0,0.0,0.0,0.0,0.0,0.0,0.0,0.0,0.0,0.0,0.0,0.0,0.0,0.0,0.0,0.0,0.0,0.0,0.0,0.0,0.0,0.0,0.0,0.0,0.0,0.0,0.0,0.0,0.0,0.0,0.0,0.0,0.0,0.0,0.0,0.0,0.0,0.0,0.0,0.0,0.0,0.0,0.0,0.0,0.0,0.0,0.0,0.0,0.0,0.0,0.0,0.0,0.0,0.0,0.0,0.0,0.0,0.0,0.0,0.0,0.0,0.0,0.0,0.0,0.0,0.0,0.0,0.0,0.0,0.0,0.0,0.0,0.0,0.0,0.0,0.0,0.0,0.0,0.0,0.0,0.0,0.0,0.0,0.0,0.0,0.0,0.0,0.0,0.0,0.0,0.0,0.0,5.023,5.0569,5.0127,5.0278,5.1011,0.0,0.0,0.0,0.0,0.0,0.0,0.0,0.0,0.0,0.0,0.0,0.0,0.0,0.0,0.0,0.0,0.0,0.0,0.0,0.0,0.0,0.0,0.0,0.0,0.0,0.0,0.0,0.0,0.0,0.0,0.0,0.0,0.0,0.0,0.0,0.0,0.0,0.0,0.0,0.0,0.0,0.0,0.0,0.0,0.0,0.0,0.0,0.0,0.0,0.0,0.0,0.0,0.0,0.0,0.0,0.0,0.0,0.0,0.0,0.0,0.0,0.0,0.0,0.0,0.0,0.0,0.0,0.0,0.0,0.0,0.0,0.0,0.0,0.0,0.0,0.0,0.0,0.0,0.0,0.0,0.0,0.0,0.0,0.0,0.0,0.0,0.0,0.0,0.0,0.0,0.0,0.0,0.0,0.0,0.0,0.0,0.0,0.0,0.0,0.0,0.0,0.0,0.0,0.0,0.0,0.0,0.0,0.0,0.0,0.0,0.0,0.0,0.0,0.0,5.1746,0.0,0.0,0.0,0.0,0.0,0.0,0.0,0.0,0.0,0.0,0.0,0.0,0.0,0.0,0.0,0.0,0.0,0.0,0.0,0.0,0.0,0.0,0.0,0.0,0.0,0.0,0.0,0.0,0.0,0.0,0.0,0.0,0.0,0.0,0.0,0.0,0.0,0.0,0.0,0.0,0.0,0.0,0.0,0.0,0.0,0.0,0.0,0.0,0.0,0.0,0.0,0.0,0.0,0.0,0.0,0.0,0.0,0.0,0.0,0.0,0.0,0.0,0.0,0.0,0.0,0.0,0.0,0.0,0.0,0.0,0.0,0.0,0.0,0.0,0.0,0.0,0.0,0.0,0.0,0.0,0.0,0.0,0.0,0.0,0.0,0.0,0.0,0.0,0.0,0.0,0.0,0.0,0.0,0.0,0.0,0.0,0.0,0.0,0.0,0.0,0.0,0.0,0.0,0.0,0.0,0.0,0.0,0.0,0.0,0.0,0.0,0.0,0.0,0.0,0.0,0.0,0.0,0.0,0.0,0.0,0.0,0.0,0.0,0.0,0.0,0.0,0.0,0.0,0.0,0.0,0.0,0.0,0.0,0.0,0.0,0.0,0.0,0.0,0.0,0.0,0.0,0.0,0.0,0.0,0.0,0.0,0.0,0.0,0.0,0.0,0.0,0.0,0.0,0.0,0.0,0.0,0.0,0.0,0.0,0.0,0.0,0.0,0.0,0.0,0.0,0.0,0.0,0.0,0.0,0.0,0.0,0.0,0.0,0.0,0.0,0.0,0.0,0.0,0.0,0.0,0.0,0.0,0.0,0.0,0.0,0.0,0.0,0.0,0.0,0.0,0.0,0.0,0.0,0.0,0.0,0.0,0.0,0.0,0.0,0.0,0.0,0.0,0.0,0.0,0.0,0.0,0.0,0.0,0.0,0.0,0.0,0.0,0.0,0.0,0.0,0.0,0.0,0.0,0.0,0.0,0.0,0.0,0.0,0.0,0.0,0.0,0.0,0.0,0.0,0.0,0.0,0.0,0.0,0.0,0.0,0.0,0.0,0.0,0.0,0.0,0.0,0.0,0.0,0.0,0.0,0.0,0.0,0.0,0.0,0.0,0.0,0.0,0.0,0.0,0.0,0.0,0.0,0.0,0.0,0.0,0.0,0.0,0.0,0.0,0.0,0.0,0.0,0.0,0.0,0.0,0.0,0.0,0.0,0.0,0.0,0.0,0.0,0.0,0.0,0.0,0.0,0.0,0.0,0.0,0.0,0.0,0.0,0.0,0.0,0.0,0.0,0.0,0.0,0.0,0.0,0.0,0.0,0.0,0.0,0.0,0.0,0.0,0.0,0.0,0.0,0.0,0.0,0.0,0.0,0.0,0.0,0.0,0.0,0.0,0.0,0.0,0.0,0.0,0.0,0.0,0.0,0.0,0.0,0.0,0.0,0.0,0.0,0.0,0.0,0.0,0.0,0.0,0.0,0.0,0.0,0.0,0.0,0.0,0.0,0.0,0.0,0.0,0.0,0.0,0.0,0.0,0.0,0.0,0.0,0.0,0.0,0.0,0.0,0.0,0.0,0.0,0.0,0.0,0.0,0.0,0.0,0.0,0.0,0.0,0.0,0.0,0.0,0.0,0.0,0.0,0.0,0.0,0.0,0.0,0.0,0.0,0.0,0.0,0.0,0.0,0.0,0.0,0.0,0.0,0.0,0.0,0.0,0.0,0.0,0.0,0.0,0.0,0.0,0.0,0.0,0.0,0.0,0.0,0.0,0.0,0.0,0.0,0.0,0.0,0.0,0.0,0.0,0.0,0.0,0.0,0.0,0.0,0.0,0.0,0.0,0.0,0.0,0.0,0.0,0.0,0.0,0.0,0.0,0.0,0.0,0.0,0.0,0.0,0.0,0.0,0.0,0.0,0.0,0.0,0.0,0.0,0.0,0.0,0.0,0.0,0.0,0.0,0.0,0.0,0.0,0.0,0.0,0.0,0.0,0.0,0.0,0.0,0.0,0.0,0.0,0.0,0.0,0.0,0.0,0.0,0.0,0.0,0.0,0.0,0.0,0.0,0.0,0.0,0.0,0.0,0.0,0.0,0.0,0.0,0.0,0.0,0.0,0.0,0.0,0.0,0.0,0.0,0.0,0.0,0.0,0.0,0.0,0.0,0.0,0.0,0.0,0.0,0.0,0.0,0.0,0.0,0.0,0.0,0.0,0.0,0.0,0.0,0.0,0.0,0.0,0.0,0.0,0.0,0.0,0.0,0.0,0.0,0.0,0.0,0.0,0.0,0.0,0.0,0.0,0.0,0.0,0.0,0.0,0.0,0.0,0.0,0.0,0.0,0.0,0.0,0.0,0.0,0.0,0.0,0.0,0.0,0.0,0.0,0.0,0.0,0.0,0.0,0.0,0.0,0.0,0.0,0.0,0.0,0.0,0.0,0.0,0.0,0.0,0.0,0.0,0.0,0.0,0.0,0.0,0.0,0.0,0.0,0.0,0.0,0.0,0.0,0.0,0.0,0.0,0.0,0.0,0.0,0.0,0.0,0.0,0.0,0.0,0.0,0.0,0.0,0.0,0.0,0.0,0.0,0.0,0.0,0.0,0.0,0.0,0.0,0.0,0.0,0.0,0.0,0.0,0.0,0.0,0.0,0.0,0.0,0.0,0.0,0.0,0.0,0.0,0.0,0.0,0.0,0.0,0.0,0.0,0.0,0.0,0.0,0.0,0.0,0.0,0.0,0.0,0.0,0.0,0.0,0.0,0.0,0.0,0.0,0.0,0.0,0.0,0.0,0.0,0.0,0.0,0.0,0.0,0.0,0.0,0.0,0.0,0.0,0.0,0.0,0.0,0.0,0.0,0.0,0.0,0.0,0.0,0.0,0.0,0.0,0.0,0.0,0.0,0.0,0.0,0.0,0.0,0.0,0.0,0.0,0.0,0.0,0.0,0.0,0.0,0.0,0.0,0.0,0.0,0.0,0.0,0.0,0.0,0.0,0.0,0.0,0.0,0.0,0.0,0.0,0.0,0.0,0.0,0.0,0.0,0.0,0.0,0.0,0.0,0.0,0.0,0.0,0.0,0.0,0.0,0.0,0.0,0.0,0.0,0.0,0.0,0.0,0.0,0.0,0.0,0.0,0.0,0.0,0.0,0.0,0.0,0.0,0.0,0.0,0.0,0.0,0.0,0.0,0.0,0.0,0.0,0.0,0.0,0.0,0.0,0.0,0.0,0.0,0.0,0.0,0.0,0.0,0.0,0.0,0.0,0.0,0.0,0.0,0.0,0.0,0.0,0.0,0.0,0.0,0.0,0.0,0.0,0.0,0.0,0.0,0.0,0.0,0.0,0.0,0.0,0.0,0.0,0.0,0.0,0.0,0.0,0.0,0.0,0.0,0.0,0.0,0.0,0.0,0.0,0.0,0.0,0.0,0.0,0.0,0.0,0.0,0.0,0.0,0.0,0.0,0.0,0.0,0.0,0.0,0.0,0.0,0.0,0.0,0.0,0.0,0.0,0.0,0.0,0.0,0.0,0.0,0.0,0.0,0.0,0.0,0.0,0.0,0.0,0.0,0.0,0.0,0.0,0.0,0.0,0.0,0.0,0.0,0.0,0.0,0.0,0.0,0.0,0.0,0.0,0.0,0.0,0.0,0.0,0.0,0.0,0.0,0.0,0.0,0.0,0.0,0.0,0.0,0.0,0.0,0.0,0.0,0.0,0.0,0.0,0.0,0.0,0.0,0.0,0.0,0.0,0.0,0.0,0.0,0.0,0.0,0.0,0.0,0.0,0.0,0.0,0.0,0.0,0.0,0.0,0.0,0.0,0.0,0.0,0.0,0.0,0.0,0.0,0.0,0.0,0.0,0.0,0.0,0.0,0.0,0.0,0.0,0.0,0.0,0.0,0.0,0.0,0.0,0.0,0.0,0.0,0.0,0.0,0.0,0.0,0.0,0.0,0.0,0.0,0.0,0.0,0.0,0.0,0.0,0.0,0.0,0.0,0.0,0.0,0.0,0.0,0.0,0.0,0.0,0.0,0.0,0.0,0.0,0.0,0.0,0.0,0.0,0.0,0.0,0.0,0.0,0.0,0.0,0.0,0.0,0.0,0.0,0.0,0.0,0.0,0.0,0.0,0.0,0.0,0.0,0.0,0.0,0.0,0.0,0.0,0.0,0.0,0.0,0.0,0.0,0.0,0.0,0.0,0.0,0.0,0.0,0.0,0.0,0.0,0.0,0.0,0.0,0.0,0.0,0.0,0.0,0.0,0.0,0.0,0.0,0.0,0.0,0.0,0.0,0.0,0.0,0.0,0.0,0.0,0.0,0.0,0.0,0.0,0.0,0.0,0.0,0.0,0.0,0.0,0.0,0.0,0.0]}]]]